<?xml version="1.0" encoding="UTF-8" standalone="no" ?>
<gpx xmlns="http://www.topografix.com/GPX/1/1" xmlns:xsi="http://www.w3.org/2001/XMLSchema-instance" xsi:schemaLocation="http://www.topografix.com/GPX/1/1 http://www.topografix.com/GPX/1/1/gpx.xsd" version="1.1" creator="VisuGPX - https://www.visugpx.com">
  <metadata>
    <name>Orival THE best Track 20-08-18</name>
  </metadata>
  <trk>
    <name><![CDATA[Orival THE best Track 20-08-18]]></name>
    <extensions>
      <line xmlns="http://www.topografix.com/GPX/gpx_style/0/2">
        <color>0000FF</color>
        <width>3</width>
      </line>
    </extensions>
    <trkseg>
      <trkpt lat="49.31841" lon="0.99406">
        <ele>20.8</ele>
        <time>2020-08-18T06:24:34.000Z</time>
      </trkpt>
      <trkpt lat="49.3184" lon="0.99407">
        <ele>20.3</ele>
        <time>2020-08-18T06:25:27.000Z</time>
      </trkpt>
      <trkpt lat="49.31836" lon="0.99403">
        <ele>19.5</ele>
        <time>2020-08-18T06:25:32.000Z</time>
      </trkpt>
      <trkpt lat="49.3184" lon="0.99395">
        <ele>18.7</ele>
        <time>2020-08-18T06:25:37.000Z</time>
      </trkpt>
      <trkpt lat="49.31848" lon="0.99394">
        <ele>18.4</ele>
        <time>2020-08-18T06:25:42.000Z</time>
      </trkpt>
      <trkpt lat="49.3186" lon="0.99392">
        <ele>17.8</ele>
        <time>2020-08-18T06:25:47.000Z</time>
      </trkpt>
      <trkpt lat="49.31861" lon="0.99392">
        <ele>17.6</ele>
        <time>2020-08-18T06:25:50.000Z</time>
      </trkpt>
      <trkpt lat="49.31861" lon="0.99393">
        <ele>17.4</ele>
        <time>2020-08-18T06:25:52.000Z</time>
      </trkpt>
      <trkpt lat="49.31871" lon="0.99389">
        <ele>16.6</ele>
        <time>2020-08-18T06:25:57.000Z</time>
      </trkpt>
      <trkpt lat="49.31884" lon="0.99372">
        <ele>15.9</ele>
        <time>2020-08-18T06:26:02.000Z</time>
      </trkpt>
      <trkpt lat="49.31898" lon="0.99355">
        <ele>15.4</ele>
        <time>2020-08-18T06:26:07.000Z</time>
      </trkpt>
      <trkpt lat="49.31906" lon="0.99335">
        <ele>14.7</ele>
        <time>2020-08-18T06:26:12.000Z</time>
      </trkpt>
      <trkpt lat="49.3192" lon="0.99299">
        <ele>13.6</ele>
        <time>2020-08-18T06:26:17.000Z</time>
      </trkpt>
      <trkpt lat="49.31934" lon="0.99264">
        <ele>13.1</ele>
        <time>2020-08-18T06:26:22.000Z</time>
      </trkpt>
      <trkpt lat="49.31948" lon="0.99231">
        <ele>13.2</ele>
        <time>2020-08-18T06:26:27.000Z</time>
      </trkpt>
      <trkpt lat="49.31962" lon="0.99204">
        <ele>13</ele>
        <time>2020-08-18T06:26:32.000Z</time>
      </trkpt>
      <trkpt lat="49.31976" lon="0.9918">
        <ele>12.8</ele>
        <time>2020-08-18T06:26:37.000Z</time>
      </trkpt>
      <trkpt lat="49.31988" lon="0.99156">
        <ele>12.5</ele>
        <time>2020-08-18T06:26:42.000Z</time>
      </trkpt>
      <trkpt lat="49.32003" lon="0.9913">
        <ele>12</ele>
        <time>2020-08-18T06:26:47.000Z</time>
      </trkpt>
      <trkpt lat="49.32017" lon="0.99106">
        <ele>11.5</ele>
        <time>2020-08-18T06:26:52.000Z</time>
      </trkpt>
      <trkpt lat="49.32031" lon="0.99081">
        <ele>11.4</ele>
        <time>2020-08-18T06:26:57.000Z</time>
      </trkpt>
      <trkpt lat="49.32044" lon="0.99057">
        <ele>11.1</ele>
        <time>2020-08-18T06:27:02.000Z</time>
      </trkpt>
      <trkpt lat="49.32056" lon="0.9903">
        <ele>10.9</ele>
        <time>2020-08-18T06:27:07.000Z</time>
      </trkpt>
      <trkpt lat="49.32065" lon="0.99006">
        <ele>11.2</ele>
        <time>2020-08-18T06:27:12.000Z</time>
      </trkpt>
      <trkpt lat="49.32069" lon="0.98993">
        <ele>11.3</ele>
        <time>2020-08-18T06:27:17.000Z</time>
      </trkpt>
      <trkpt lat="49.32076" lon="0.98976">
        <ele>11.1</ele>
        <time>2020-08-18T06:27:22.000Z</time>
      </trkpt>
      <trkpt lat="49.32086" lon="0.98954">
        <ele>10.4</ele>
        <time>2020-08-18T06:27:27.000Z</time>
      </trkpt>
      <trkpt lat="49.32093" lon="0.98932">
        <ele>9.8</ele>
        <time>2020-08-18T06:27:32.000Z</time>
      </trkpt>
      <trkpt lat="49.32098" lon="0.98909">
        <ele>10.3</ele>
        <time>2020-08-18T06:27:37.000Z</time>
      </trkpt>
      <trkpt lat="49.32101" lon="0.98884">
        <ele>10.2</ele>
        <time>2020-08-18T06:27:42.000Z</time>
      </trkpt>
      <trkpt lat="49.32109" lon="0.98849">
        <ele>10.5</ele>
        <time>2020-08-18T06:27:47.000Z</time>
      </trkpt>
      <trkpt lat="49.32114" lon="0.98822">
        <ele>11.2</ele>
        <time>2020-08-18T06:27:52.000Z</time>
      </trkpt>
      <trkpt lat="49.3212" lon="0.98799">
        <ele>11.8</ele>
        <time>2020-08-18T06:27:57.000Z</time>
      </trkpt>
      <trkpt lat="49.32126" lon="0.98776">
        <ele>13.6</ele>
        <time>2020-08-18T06:28:02.000Z</time>
      </trkpt>
      <trkpt lat="49.32136" lon="0.9875">
        <ele>15.5</ele>
        <time>2020-08-18T06:28:07.000Z</time>
      </trkpt>
      <trkpt lat="49.32144" lon="0.98731">
        <ele>18.3</ele>
        <time>2020-08-18T06:28:12.000Z</time>
      </trkpt>
      <trkpt lat="49.32154" lon="0.98716">
        <ele>19.9</ele>
        <time>2020-08-18T06:28:17.000Z</time>
      </trkpt>
      <trkpt lat="49.32165" lon="0.98706">
        <ele>22</ele>
        <time>2020-08-18T06:28:22.000Z</time>
      </trkpt>
      <trkpt lat="49.32176" lon="0.98695">
        <ele>23.8</ele>
        <time>2020-08-18T06:28:27.000Z</time>
      </trkpt>
      <trkpt lat="49.32185" lon="0.98687">
        <ele>25.8</ele>
        <time>2020-08-18T06:28:32.000Z</time>
      </trkpt>
      <trkpt lat="49.32194" lon="0.98681">
        <ele>27.1</ele>
        <time>2020-08-18T06:28:37.000Z</time>
      </trkpt>
      <trkpt lat="49.32204" lon="0.98683">
        <ele>28.4</ele>
        <time>2020-08-18T06:28:42.000Z</time>
      </trkpt>
      <trkpt lat="49.32215" lon="0.98691">
        <ele>29.8</ele>
        <time>2020-08-18T06:28:47.000Z</time>
      </trkpt>
      <trkpt lat="49.32226" lon="0.98699">
        <ele>31.6</ele>
        <time>2020-08-18T06:28:52.000Z</time>
      </trkpt>
      <trkpt lat="49.32236" lon="0.98698">
        <ele>33.5</ele>
        <time>2020-08-18T06:28:57.000Z</time>
      </trkpt>
      <trkpt lat="49.32236" lon="0.98689">
        <ele>34.5</ele>
        <time>2020-08-18T06:29:02.000Z</time>
      </trkpt>
      <trkpt lat="49.3223" lon="0.98677">
        <ele>36.1</ele>
        <time>2020-08-18T06:29:07.000Z</time>
      </trkpt>
      <trkpt lat="49.3222" lon="0.98662">
        <ele>38</ele>
        <time>2020-08-18T06:29:12.000Z</time>
      </trkpt>
      <trkpt lat="49.3221" lon="0.98646">
        <ele>39.2</ele>
        <time>2020-08-18T06:29:17.000Z</time>
      </trkpt>
      <trkpt lat="49.32195" lon="0.98627">
        <ele>41.9</ele>
        <time>2020-08-18T06:29:22.000Z</time>
      </trkpt>
      <trkpt lat="49.3218" lon="0.98612">
        <ele>44.1</ele>
        <time>2020-08-18T06:29:27.000Z</time>
      </trkpt>
      <trkpt lat="49.32169" lon="0.98599">
        <ele>46.2</ele>
        <time>2020-08-18T06:29:32.000Z</time>
      </trkpt>
      <trkpt lat="49.32171" lon="0.98578">
        <ele>46</ele>
        <time>2020-08-18T06:29:37.000Z</time>
      </trkpt>
      <trkpt lat="49.32181" lon="0.98561">
        <ele>47.1</ele>
        <time>2020-08-18T06:29:42.000Z</time>
      </trkpt>
      <trkpt lat="49.32192" lon="0.98546">
        <ele>48</ele>
        <time>2020-08-18T06:29:47.000Z</time>
      </trkpt>
      <trkpt lat="49.32203" lon="0.98529">
        <ele>48</ele>
        <time>2020-08-18T06:29:52.000Z</time>
      </trkpt>
      <trkpt lat="49.32214" lon="0.98507">
        <ele>48.2</ele>
        <time>2020-08-18T06:29:57.000Z</time>
      </trkpt>
      <trkpt lat="49.32221" lon="0.98484">
        <ele>48.2</ele>
        <time>2020-08-18T06:30:02.000Z</time>
      </trkpt>
      <trkpt lat="49.32228" lon="0.98465">
        <ele>47.9</ele>
        <time>2020-08-18T06:30:07.000Z</time>
      </trkpt>
      <trkpt lat="49.32238" lon="0.98456">
        <ele>47.5</ele>
        <time>2020-08-18T06:30:12.000Z</time>
      </trkpt>
      <trkpt lat="49.32249" lon="0.98441">
        <ele>47.8</ele>
        <time>2020-08-18T06:30:17.000Z</time>
      </trkpt>
      <trkpt lat="49.32257" lon="0.98424">
        <ele>48</ele>
        <time>2020-08-18T06:30:22.000Z</time>
      </trkpt>
      <trkpt lat="49.32267" lon="0.98411">
        <ele>48.2</ele>
        <time>2020-08-18T06:30:27.000Z</time>
      </trkpt>
      <trkpt lat="49.32275" lon="0.98412">
        <ele>48.7</ele>
        <time>2020-08-18T06:30:32.000Z</time>
      </trkpt>
      <trkpt lat="49.32284" lon="0.98423">
        <ele>48.9</ele>
        <time>2020-08-18T06:30:37.000Z</time>
      </trkpt>
      <trkpt lat="49.32294" lon="0.98433">
        <ele>49.2</ele>
        <time>2020-08-18T06:30:42.000Z</time>
      </trkpt>
      <trkpt lat="49.32304" lon="0.9844">
        <ele>49.3</ele>
        <time>2020-08-18T06:30:47.000Z</time>
      </trkpt>
      <trkpt lat="49.32316" lon="0.9845">
        <ele>49.9</ele>
        <time>2020-08-18T06:30:52.000Z</time>
      </trkpt>
      <trkpt lat="49.32327" lon="0.98461">
        <ele>51</ele>
        <time>2020-08-18T06:30:57.000Z</time>
      </trkpt>
      <trkpt lat="49.32337" lon="0.98479">
        <ele>50.5</ele>
        <time>2020-08-18T06:31:02.000Z</time>
      </trkpt>
      <trkpt lat="49.32345" lon="0.98501">
        <ele>51</ele>
        <time>2020-08-18T06:31:07.000Z</time>
      </trkpt>
      <trkpt lat="49.32353" lon="0.9852">
        <ele>51.9</ele>
        <time>2020-08-18T06:31:12.000Z</time>
      </trkpt>
      <trkpt lat="49.32361" lon="0.98537">
        <ele>53.2</ele>
        <time>2020-08-18T06:31:17.000Z</time>
      </trkpt>
      <trkpt lat="49.32368" lon="0.98558">
        <ele>54.4</ele>
        <time>2020-08-18T06:31:22.000Z</time>
      </trkpt>
      <trkpt lat="49.32374" lon="0.98577">
        <ele>54.9</ele>
        <time>2020-08-18T06:31:27.000Z</time>
      </trkpt>
      <trkpt lat="49.32381" lon="0.98593">
        <ele>56.1</ele>
        <time>2020-08-18T06:31:32.000Z</time>
      </trkpt>
      <trkpt lat="49.3239" lon="0.98611">
        <ele>56.8</ele>
        <time>2020-08-18T06:31:37.000Z</time>
      </trkpt>
      <trkpt lat="49.32394" lon="0.98621">
        <ele>57.2</ele>
        <time>2020-08-18T06:31:42.000Z</time>
      </trkpt>
      <trkpt lat="49.32396" lon="0.98625">
        <ele>57.7</ele>
        <time>2020-08-18T06:31:47.000Z</time>
      </trkpt>
      <trkpt lat="49.32396" lon="0.98626">
        <ele>58.1</ele>
        <time>2020-08-18T06:31:49.000Z</time>
      </trkpt>
      <trkpt lat="49.32396" lon="0.98627">
        <ele>58.2</ele>
        <time>2020-08-18T06:32:04.000Z</time>
      </trkpt>
      <trkpt lat="49.32396" lon="0.98629">
        <ele>58</ele>
        <time>2020-08-18T06:32:07.000Z</time>
      </trkpt>
      <trkpt lat="49.32396" lon="0.9863">
        <ele>57.5</ele>
        <time>2020-08-18T06:32:22.000Z</time>
      </trkpt>
      <trkpt lat="49.32397" lon="0.9863">
        <ele>57.3</ele>
        <time>2020-08-18T06:32:32.000Z</time>
      </trkpt>
      <trkpt lat="49.32397" lon="0.98631">
        <ele>57.3</ele>
        <time>2020-08-18T06:33:01.000Z</time>
      </trkpt>
      <trkpt lat="49.32396" lon="0.98632">
        <ele>58.9</ele>
        <time>2020-08-18T06:33:40.000Z</time>
      </trkpt>
      <trkpt lat="49.32395" lon="0.98633">
        <ele>60</ele>
        <time>2020-08-18T06:33:42.000Z</time>
      </trkpt>
      <trkpt lat="49.32395" lon="0.98632">
        <ele>60.6</ele>
        <time>2020-08-18T06:33:45.000Z</time>
      </trkpt>
      <trkpt lat="49.32395" lon="0.98633">
        <ele>61</ele>
        <time>2020-08-18T06:33:50.000Z</time>
      </trkpt>
      <trkpt lat="49.32394" lon="0.98632">
        <ele>61.4</ele>
        <time>2020-08-18T06:33:55.000Z</time>
      </trkpt>
      <trkpt lat="49.32395" lon="0.98632">
        <ele>61.9</ele>
        <time>2020-08-18T06:34:00.000Z</time>
      </trkpt>
      <trkpt lat="49.32398" lon="0.98636">
        <ele>62.8</ele>
        <time>2020-08-18T06:34:05.000Z</time>
      </trkpt>
      <trkpt lat="49.32402" lon="0.98636">
        <ele>64.7</ele>
        <time>2020-08-18T06:34:10.000Z</time>
      </trkpt>
      <trkpt lat="49.32402" lon="0.98635">
        <ele>65.2</ele>
        <time>2020-08-18T06:34:15.000Z</time>
      </trkpt>
      <trkpt lat="49.32407" lon="0.98632">
        <ele>66</ele>
        <time>2020-08-18T06:34:20.000Z</time>
      </trkpt>
      <trkpt lat="49.32414" lon="0.9862">
        <ele>65.8</ele>
        <time>2020-08-18T06:34:25.000Z</time>
      </trkpt>
      <trkpt lat="49.32417" lon="0.98605">
        <ele>65.6</ele>
        <time>2020-08-18T06:34:30.000Z</time>
      </trkpt>
      <trkpt lat="49.32423" lon="0.98595">
        <ele>67.4</ele>
        <time>2020-08-18T06:34:35.000Z</time>
      </trkpt>
      <trkpt lat="49.32427" lon="0.98582">
        <ele>68.1</ele>
        <time>2020-08-18T06:34:40.000Z</time>
      </trkpt>
      <trkpt lat="49.32425" lon="0.98564">
        <ele>68.2</ele>
        <time>2020-08-18T06:34:45.000Z</time>
      </trkpt>
      <trkpt lat="49.32427" lon="0.98544">
        <ele>68.4</ele>
        <time>2020-08-18T06:34:50.000Z</time>
      </trkpt>
      <trkpt lat="49.3243" lon="0.98521">
        <ele>69.2</ele>
        <time>2020-08-18T06:34:55.000Z</time>
      </trkpt>
      <trkpt lat="49.32435" lon="0.98499">
        <ele>69.6</ele>
        <time>2020-08-18T06:35:00.000Z</time>
      </trkpt>
      <trkpt lat="49.3244" lon="0.98478">
        <ele>71</ele>
        <time>2020-08-18T06:35:05.000Z</time>
      </trkpt>
      <trkpt lat="49.32443" lon="0.98459">
        <ele>72.2</ele>
        <time>2020-08-18T06:35:10.000Z</time>
      </trkpt>
      <trkpt lat="49.32451" lon="0.98449">
        <ele>73.3</ele>
        <time>2020-08-18T06:35:15.000Z</time>
      </trkpt>
      <trkpt lat="49.32464" lon="0.98441">
        <ele>73.3</ele>
        <time>2020-08-18T06:35:20.000Z</time>
      </trkpt>
      <trkpt lat="49.32477" lon="0.98419">
        <ele>73.8</ele>
        <time>2020-08-18T06:35:25.000Z</time>
      </trkpt>
      <trkpt lat="49.3249" lon="0.98395">
        <ele>73.7</ele>
        <time>2020-08-18T06:35:30.000Z</time>
      </trkpt>
      <trkpt lat="49.32507" lon="0.98375">
        <ele>73.2</ele>
        <time>2020-08-18T06:35:35.000Z</time>
      </trkpt>
      <trkpt lat="49.32521" lon="0.98371">
        <ele>73.8</ele>
        <time>2020-08-18T06:35:40.000Z</time>
      </trkpt>
      <trkpt lat="49.32536" lon="0.9837">
        <ele>74.7</ele>
        <time>2020-08-18T06:35:45.000Z</time>
      </trkpt>
      <trkpt lat="49.32552" lon="0.98369">
        <ele>75.2</ele>
        <time>2020-08-18T06:35:50.000Z</time>
      </trkpt>
      <trkpt lat="49.32567" lon="0.98369">
        <ele>75.7</ele>
        <time>2020-08-18T06:35:55.000Z</time>
      </trkpt>
      <trkpt lat="49.32581" lon="0.98367">
        <ele>76.6</ele>
        <time>2020-08-18T06:36:00.000Z</time>
      </trkpt>
      <trkpt lat="49.32595" lon="0.98363">
        <ele>77.5</ele>
        <time>2020-08-18T06:36:05.000Z</time>
      </trkpt>
      <trkpt lat="49.32613" lon="0.98361">
        <ele>78.1</ele>
        <time>2020-08-18T06:36:10.000Z</time>
      </trkpt>
      <trkpt lat="49.32628" lon="0.98358">
        <ele>78.3</ele>
        <time>2020-08-18T06:36:15.000Z</time>
      </trkpt>
      <trkpt lat="49.3264" lon="0.98353">
        <ele>78.6</ele>
        <time>2020-08-18T06:36:20.000Z</time>
      </trkpt>
      <trkpt lat="49.32652" lon="0.98347">
        <ele>79.4</ele>
        <time>2020-08-18T06:36:25.000Z</time>
      </trkpt>
      <trkpt lat="49.32668" lon="0.98335">
        <ele>78.6</ele>
        <time>2020-08-18T06:36:30.000Z</time>
      </trkpt>
      <trkpt lat="49.3268" lon="0.98328">
        <ele>79.4</ele>
        <time>2020-08-18T06:36:35.000Z</time>
      </trkpt>
      <trkpt lat="49.32694" lon="0.98317">
        <ele>79.6</ele>
        <time>2020-08-18T06:36:40.000Z</time>
      </trkpt>
      <trkpt lat="49.32714" lon="0.98292">
        <ele>78.6</ele>
        <time>2020-08-18T06:36:45.000Z</time>
      </trkpt>
      <trkpt lat="49.32733" lon="0.98275">
        <ele>79</ele>
        <time>2020-08-18T06:36:50.000Z</time>
      </trkpt>
      <trkpt lat="49.3275" lon="0.98258">
        <ele>81.9</ele>
        <time>2020-08-18T06:36:55.000Z</time>
      </trkpt>
      <trkpt lat="49.32762" lon="0.98238">
        <ele>82.7</ele>
        <time>2020-08-18T06:37:00.000Z</time>
      </trkpt>
      <trkpt lat="49.32771" lon="0.98214">
        <ele>83</ele>
        <time>2020-08-18T06:37:05.000Z</time>
      </trkpt>
      <trkpt lat="49.32783" lon="0.98184">
        <ele>81.8</ele>
        <time>2020-08-18T06:37:10.000Z</time>
      </trkpt>
      <trkpt lat="49.32791" lon="0.98159">
        <ele>82.9</ele>
        <time>2020-08-18T06:37:15.000Z</time>
      </trkpt>
      <trkpt lat="49.32801" lon="0.98146">
        <ele>83.5</ele>
        <time>2020-08-18T06:37:20.000Z</time>
      </trkpt>
      <trkpt lat="49.32815" lon="0.98136">
        <ele>83.9</ele>
        <time>2020-08-18T06:37:25.000Z</time>
      </trkpt>
      <trkpt lat="49.32829" lon="0.98124">
        <ele>84.8</ele>
        <time>2020-08-18T06:37:30.000Z</time>
      </trkpt>
      <trkpt lat="49.3284" lon="0.98116">
        <ele>85.1</ele>
        <time>2020-08-18T06:37:35.000Z</time>
      </trkpt>
      <trkpt lat="49.32849" lon="0.98103">
        <ele>85</ele>
        <time>2020-08-18T06:37:40.000Z</time>
      </trkpt>
      <trkpt lat="49.32857" lon="0.98109">
        <ele>82.6</ele>
        <time>2020-08-18T06:37:45.000Z</time>
      </trkpt>
      <trkpt lat="49.32859" lon="0.98127">
        <ele>82</ele>
        <time>2020-08-18T06:37:50.000Z</time>
      </trkpt>
      <trkpt lat="49.32856" lon="0.98146">
        <ele>82.8</ele>
        <time>2020-08-18T06:37:55.000Z</time>
      </trkpt>
      <trkpt lat="49.32853" lon="0.98165">
        <ele>83.8</ele>
        <time>2020-08-18T06:38:00.000Z</time>
      </trkpt>
      <trkpt lat="49.32852" lon="0.98188">
        <ele>85.9</ele>
        <time>2020-08-18T06:38:05.000Z</time>
      </trkpt>
      <trkpt lat="49.32851" lon="0.98208">
        <ele>88.4</ele>
        <time>2020-08-18T06:38:10.000Z</time>
      </trkpt>
      <trkpt lat="49.32846" lon="0.98229">
        <ele>91.6</ele>
        <time>2020-08-18T06:38:15.000Z</time>
      </trkpt>
      <trkpt lat="49.32842" lon="0.98249">
        <ele>94.4</ele>
        <time>2020-08-18T06:38:20.000Z</time>
      </trkpt>
      <trkpt lat="49.32846" lon="0.98267">
        <ele>97</ele>
        <time>2020-08-18T06:38:25.000Z</time>
      </trkpt>
      <trkpt lat="49.32848" lon="0.98285">
        <ele>99.4</ele>
        <time>2020-08-18T06:38:30.000Z</time>
      </trkpt>
      <trkpt lat="49.32846" lon="0.98302">
        <ele>101.8</ele>
        <time>2020-08-18T06:38:35.000Z</time>
      </trkpt>
      <trkpt lat="49.32848" lon="0.98325">
        <ele>102.3</ele>
        <time>2020-08-18T06:38:40.000Z</time>
      </trkpt>
      <trkpt lat="49.32853" lon="0.98342">
        <ele>103.7</ele>
        <time>2020-08-18T06:38:45.000Z</time>
      </trkpt>
      <trkpt lat="49.32858" lon="0.9836">
        <ele>105</ele>
        <time>2020-08-18T06:38:50.000Z</time>
      </trkpt>
      <trkpt lat="49.32859" lon="0.98378">
        <ele>106.2</ele>
        <time>2020-08-18T06:38:55.000Z</time>
      </trkpt>
      <trkpt lat="49.32861" lon="0.98393">
        <ele>107</ele>
        <time>2020-08-18T06:39:00.000Z</time>
      </trkpt>
      <trkpt lat="49.32863" lon="0.98403">
        <ele>108.4</ele>
        <time>2020-08-18T06:39:05.000Z</time>
      </trkpt>
      <trkpt lat="49.32865" lon="0.98414">
        <ele>109.8</ele>
        <time>2020-08-18T06:39:10.000Z</time>
      </trkpt>
      <trkpt lat="49.32866" lon="0.98414">
        <ele>109.4</ele>
        <time>2020-08-18T06:39:13.000Z</time>
      </trkpt>
      <trkpt lat="49.32867" lon="0.98416">
        <ele>109.5</ele>
        <time>2020-08-18T06:39:30.000Z</time>
      </trkpt>
      <trkpt lat="49.32869" lon="0.98426">
        <ele>110.7</ele>
        <time>2020-08-18T06:39:35.000Z</time>
      </trkpt>
      <trkpt lat="49.32874" lon="0.98445">
        <ele>110.2</ele>
        <time>2020-08-18T06:39:40.000Z</time>
      </trkpt>
      <trkpt lat="49.32879" lon="0.98457">
        <ele>111</ele>
        <time>2020-08-18T06:39:45.000Z</time>
      </trkpt>
      <trkpt lat="49.32883" lon="0.98466">
        <ele>112.2</ele>
        <time>2020-08-18T06:39:50.000Z</time>
      </trkpt>
      <trkpt lat="49.32884" lon="0.98479">
        <ele>112.9</ele>
        <time>2020-08-18T06:39:55.000Z</time>
      </trkpt>
      <trkpt lat="49.32889" lon="0.98492">
        <ele>113.8</ele>
        <time>2020-08-18T06:40:00.000Z</time>
      </trkpt>
      <trkpt lat="49.329" lon="0.9851">
        <ele>113.6</ele>
        <time>2020-08-18T06:40:05.000Z</time>
      </trkpt>
      <trkpt lat="49.32911" lon="0.98523">
        <ele>114.5</ele>
        <time>2020-08-18T06:40:10.000Z</time>
      </trkpt>
      <trkpt lat="49.32924" lon="0.98538">
        <ele>114.6</ele>
        <time>2020-08-18T06:40:15.000Z</time>
      </trkpt>
      <trkpt lat="49.32937" lon="0.98546">
        <ele>114.7</ele>
        <time>2020-08-18T06:40:20.000Z</time>
      </trkpt>
      <trkpt lat="49.32951" lon="0.98545">
        <ele>115.6</ele>
        <time>2020-08-18T06:40:25.000Z</time>
      </trkpt>
      <trkpt lat="49.32964" lon="0.98553">
        <ele>116</ele>
        <time>2020-08-18T06:40:30.000Z</time>
      </trkpt>
      <trkpt lat="49.32971" lon="0.98567">
        <ele>117.1</ele>
        <time>2020-08-18T06:40:35.000Z</time>
      </trkpt>
      <trkpt lat="49.32974" lon="0.98582">
        <ele>116.9</ele>
        <time>2020-08-18T06:40:40.000Z</time>
      </trkpt>
      <trkpt lat="49.32975" lon="0.986">
        <ele>115.8</ele>
        <time>2020-08-18T06:40:45.000Z</time>
      </trkpt>
      <trkpt lat="49.32975" lon="0.98616">
        <ele>117.9</ele>
        <time>2020-08-18T06:40:50.000Z</time>
      </trkpt>
      <trkpt lat="49.32974" lon="0.9863">
        <ele>118.1</ele>
        <time>2020-08-18T06:40:55.000Z</time>
      </trkpt>
      <trkpt lat="49.32979" lon="0.98652">
        <ele>117.3</ele>
        <time>2020-08-18T06:41:00.000Z</time>
      </trkpt>
      <trkpt lat="49.32983" lon="0.98671">
        <ele>117.3</ele>
        <time>2020-08-18T06:41:05.000Z</time>
      </trkpt>
      <trkpt lat="49.32989" lon="0.9869">
        <ele>117.4</ele>
        <time>2020-08-18T06:41:10.000Z</time>
      </trkpt>
      <trkpt lat="49.32995" lon="0.98711">
        <ele>116.9</ele>
        <time>2020-08-18T06:41:15.000Z</time>
      </trkpt>
      <trkpt lat="49.33" lon="0.98733">
        <ele>117</ele>
        <time>2020-08-18T06:41:20.000Z</time>
      </trkpt>
      <trkpt lat="49.33002" lon="0.98755">
        <ele>117.6</ele>
        <time>2020-08-18T06:41:25.000Z</time>
      </trkpt>
      <trkpt lat="49.33004" lon="0.98774">
        <ele>117.2</ele>
        <time>2020-08-18T06:41:30.000Z</time>
      </trkpt>
      <trkpt lat="49.33008" lon="0.98786">
        <ele>116.7</ele>
        <time>2020-08-18T06:41:35.000Z</time>
      </trkpt>
      <trkpt lat="49.33016" lon="0.98782">
        <ele>115.7</ele>
        <time>2020-08-18T06:41:40.000Z</time>
      </trkpt>
      <trkpt lat="49.33034" lon="0.98766">
        <ele>113.9</ele>
        <time>2020-08-18T06:41:45.000Z</time>
      </trkpt>
      <trkpt lat="49.33054" lon="0.98746">
        <ele>112.3</ele>
        <time>2020-08-18T06:41:50.000Z</time>
      </trkpt>
      <trkpt lat="49.33075" lon="0.98732">
        <ele>112.1</ele>
        <time>2020-08-18T06:41:55.000Z</time>
      </trkpt>
      <trkpt lat="49.33085" lon="0.98716">
        <ele>111</ele>
        <time>2020-08-18T06:42:00.000Z</time>
      </trkpt>
      <trkpt lat="49.33084" lon="0.98695">
        <ele>109.7</ele>
        <time>2020-08-18T06:42:05.000Z</time>
      </trkpt>
      <trkpt lat="49.33087" lon="0.98673">
        <ele>108.7</ele>
        <time>2020-08-18T06:42:10.000Z</time>
      </trkpt>
      <trkpt lat="49.33084" lon="0.98648">
        <ele>107.7</ele>
        <time>2020-08-18T06:42:15.000Z</time>
      </trkpt>
      <trkpt lat="49.33078" lon="0.98621">
        <ele>109.1</ele>
        <time>2020-08-18T06:42:20.000Z</time>
      </trkpt>
      <trkpt lat="49.33074" lon="0.98591">
        <ele>111</ele>
        <time>2020-08-18T06:42:25.000Z</time>
      </trkpt>
      <trkpt lat="49.33077" lon="0.98563">
        <ele>112.2</ele>
        <time>2020-08-18T06:42:30.000Z</time>
      </trkpt>
      <trkpt lat="49.33084" lon="0.98539">
        <ele>113.2</ele>
        <time>2020-08-18T06:42:35.000Z</time>
      </trkpt>
      <trkpt lat="49.33086" lon="0.98512">
        <ele>114.3</ele>
        <time>2020-08-18T06:42:40.000Z</time>
      </trkpt>
      <trkpt lat="49.33091" lon="0.98492">
        <ele>114.5</ele>
        <time>2020-08-18T06:42:45.000Z</time>
      </trkpt>
      <trkpt lat="49.33098" lon="0.98478">
        <ele>115</ele>
        <time>2020-08-18T06:42:50.000Z</time>
      </trkpt>
      <trkpt lat="49.33101" lon="0.98464">
        <ele>115.2</ele>
        <time>2020-08-18T06:42:55.000Z</time>
      </trkpt>
      <trkpt lat="49.33103" lon="0.98448">
        <ele>115.2</ele>
        <time>2020-08-18T06:43:00.000Z</time>
      </trkpt>
      <trkpt lat="49.33096" lon="0.98433">
        <ele>115.1</ele>
        <time>2020-08-18T06:43:05.000Z</time>
      </trkpt>
      <trkpt lat="49.33092" lon="0.98418">
        <ele>115.8</ele>
        <time>2020-08-18T06:43:10.000Z</time>
      </trkpt>
      <trkpt lat="49.33097" lon="0.984">
        <ele>115.6</ele>
        <time>2020-08-18T06:43:15.000Z</time>
      </trkpt>
      <trkpt lat="49.33097" lon="0.98384">
        <ele>115.9</ele>
        <time>2020-08-18T06:43:20.000Z</time>
      </trkpt>
      <trkpt lat="49.33098" lon="0.98364">
        <ele>116.1</ele>
        <time>2020-08-18T06:43:25.000Z</time>
      </trkpt>
      <trkpt lat="49.33103" lon="0.98349">
        <ele>116.5</ele>
        <time>2020-08-18T06:43:30.000Z</time>
      </trkpt>
      <trkpt lat="49.33096" lon="0.98327">
        <ele>116</ele>
        <time>2020-08-18T06:43:35.000Z</time>
      </trkpt>
      <trkpt lat="49.33094" lon="0.98325">
        <ele>116</ele>
        <time>2020-08-18T06:43:48.000Z</time>
      </trkpt>
      <trkpt lat="49.33093" lon="0.98324">
        <ele>116.1</ele>
        <time>2020-08-18T06:43:49.000Z</time>
      </trkpt>
      <trkpt lat="49.33091" lon="0.98307">
        <ele>115.3</ele>
        <time>2020-08-18T06:43:54.000Z</time>
      </trkpt>
      <trkpt lat="49.33088" lon="0.98284">
        <ele>115.9</ele>
        <time>2020-08-18T06:43:59.000Z</time>
      </trkpt>
      <trkpt lat="49.3309" lon="0.98263">
        <ele>116.1</ele>
        <time>2020-08-18T06:44:04.000Z</time>
      </trkpt>
      <trkpt lat="49.33095" lon="0.98246">
        <ele>116</ele>
        <time>2020-08-18T06:44:09.000Z</time>
      </trkpt>
      <trkpt lat="49.33096" lon="0.98221">
        <ele>116.6</ele>
        <time>2020-08-18T06:44:14.000Z</time>
      </trkpt>
      <trkpt lat="49.33094" lon="0.98184">
        <ele>117.4</ele>
        <time>2020-08-18T06:44:19.000Z</time>
      </trkpt>
      <trkpt lat="49.33092" lon="0.98147">
        <ele>116.2</ele>
        <time>2020-08-18T06:44:24.000Z</time>
      </trkpt>
      <trkpt lat="49.33105" lon="0.98122">
        <ele>114</ele>
        <time>2020-08-18T06:44:29.000Z</time>
      </trkpt>
      <trkpt lat="49.33109" lon="0.98099">
        <ele>113.1</ele>
        <time>2020-08-18T06:44:34.000Z</time>
      </trkpt>
      <trkpt lat="49.3311" lon="0.98074">
        <ele>111.9</ele>
        <time>2020-08-18T06:44:39.000Z</time>
      </trkpt>
      <trkpt lat="49.33112" lon="0.98059">
        <ele>110.2</ele>
        <time>2020-08-18T06:44:44.000Z</time>
      </trkpt>
      <trkpt lat="49.33108" lon="0.98033">
        <ele>108.1</ele>
        <time>2020-08-18T06:44:49.000Z</time>
      </trkpt>
      <trkpt lat="49.33105" lon="0.98014">
        <ele>105.5</ele>
        <time>2020-08-18T06:44:54.000Z</time>
      </trkpt>
      <trkpt lat="49.33103" lon="0.97987">
        <ele>103.8</ele>
        <time>2020-08-18T06:44:59.000Z</time>
      </trkpt>
      <trkpt lat="49.33104" lon="0.97967">
        <ele>101.1</ele>
        <time>2020-08-18T06:45:04.000Z</time>
      </trkpt>
      <trkpt lat="49.3311" lon="0.97959">
        <ele>99.4</ele>
        <time>2020-08-18T06:45:09.000Z</time>
      </trkpt>
      <trkpt lat="49.33115" lon="0.97955">
        <ele>98.9</ele>
        <time>2020-08-18T06:45:26.000Z</time>
      </trkpt>
      <trkpt lat="49.3312" lon="0.97955">
        <ele>98.4</ele>
        <time>2020-08-18T06:45:31.000Z</time>
      </trkpt>
      <trkpt lat="49.33127" lon="0.9797">
        <ele>96.6</ele>
        <time>2020-08-18T06:45:36.000Z</time>
      </trkpt>
      <trkpt lat="49.33132" lon="0.97991">
        <ele>94.9</ele>
        <time>2020-08-18T06:45:41.000Z</time>
      </trkpt>
      <trkpt lat="49.33138" lon="0.98016">
        <ele>92.3</ele>
        <time>2020-08-18T06:45:46.000Z</time>
      </trkpt>
      <trkpt lat="49.33145" lon="0.98034">
        <ele>91.2</ele>
        <time>2020-08-18T06:45:51.000Z</time>
      </trkpt>
      <trkpt lat="49.33151" lon="0.98051">
        <ele>90.5</ele>
        <time>2020-08-18T06:45:56.000Z</time>
      </trkpt>
      <trkpt lat="49.33155" lon="0.98068">
        <ele>90.9</ele>
        <time>2020-08-18T06:46:01.000Z</time>
      </trkpt>
      <trkpt lat="49.33165" lon="0.98077">
        <ele>91.1</ele>
        <time>2020-08-18T06:46:06.000Z</time>
      </trkpt>
      <trkpt lat="49.33181" lon="0.98084">
        <ele>91.2</ele>
        <time>2020-08-18T06:46:11.000Z</time>
      </trkpt>
      <trkpt lat="49.33198" lon="0.98089">
        <ele>91.5</ele>
        <time>2020-08-18T06:46:16.000Z</time>
      </trkpt>
      <trkpt lat="49.33209" lon="0.981">
        <ele>91.5</ele>
        <time>2020-08-18T06:46:21.000Z</time>
      </trkpt>
      <trkpt lat="49.33216" lon="0.98114">
        <ele>91.4</ele>
        <time>2020-08-18T06:46:26.000Z</time>
      </trkpt>
      <trkpt lat="49.33229" lon="0.98138">
        <ele>90.4</ele>
        <time>2020-08-18T06:46:31.000Z</time>
      </trkpt>
      <trkpt lat="49.33245" lon="0.98163">
        <ele>88.7</ele>
        <time>2020-08-18T06:46:36.000Z</time>
      </trkpt>
      <trkpt lat="49.33259" lon="0.98184">
        <ele>87.9</ele>
        <time>2020-08-18T06:46:41.000Z</time>
      </trkpt>
      <trkpt lat="49.33276" lon="0.98203">
        <ele>88.2</ele>
        <time>2020-08-18T06:46:46.000Z</time>
      </trkpt>
      <trkpt lat="49.33287" lon="0.98222">
        <ele>88.6</ele>
        <time>2020-08-18T06:46:51.000Z</time>
      </trkpt>
      <trkpt lat="49.33291" lon="0.98239">
        <ele>89.6</ele>
        <time>2020-08-18T06:46:56.000Z</time>
      </trkpt>
      <trkpt lat="49.33299" lon="0.98259">
        <ele>89.4</ele>
        <time>2020-08-18T06:47:01.000Z</time>
      </trkpt>
      <trkpt lat="49.33308" lon="0.98272">
        <ele>89.3</ele>
        <time>2020-08-18T06:47:06.000Z</time>
      </trkpt>
      <trkpt lat="49.33307" lon="0.9827">
        <ele>89.5</ele>
        <time>2020-08-18T06:47:08.000Z</time>
      </trkpt>
      <trkpt lat="49.33307" lon="0.98271">
        <ele>90.5</ele>
        <time>2020-08-18T06:47:13.000Z</time>
      </trkpt>
      <trkpt lat="49.33307" lon="0.98272">
        <ele>91.6</ele>
        <time>2020-08-18T06:47:18.000Z</time>
      </trkpt>
      <trkpt lat="49.3331" lon="0.98276">
        <ele>93.5</ele>
        <time>2020-08-18T06:47:23.000Z</time>
      </trkpt>
      <trkpt lat="49.33313" lon="0.98279">
        <ele>94.3</ele>
        <time>2020-08-18T06:47:31.000Z</time>
      </trkpt>
      <trkpt lat="49.33318" lon="0.9828">
        <ele>94.8</ele>
        <time>2020-08-18T06:47:36.000Z</time>
      </trkpt>
      <trkpt lat="49.33328" lon="0.98281">
        <ele>95</ele>
        <time>2020-08-18T06:47:41.000Z</time>
      </trkpt>
      <trkpt lat="49.33341" lon="0.98275">
        <ele>95.6</ele>
        <time>2020-08-18T06:47:46.000Z</time>
      </trkpt>
      <trkpt lat="49.33355" lon="0.9827">
        <ele>95.4</ele>
        <time>2020-08-18T06:47:51.000Z</time>
      </trkpt>
      <trkpt lat="49.33373" lon="0.9826">
        <ele>95.8</ele>
        <time>2020-08-18T06:47:56.000Z</time>
      </trkpt>
      <trkpt lat="49.33382" lon="0.98246">
        <ele>95.1</ele>
        <time>2020-08-18T06:48:01.000Z</time>
      </trkpt>
      <trkpt lat="49.33387" lon="0.98238">
        <ele>95.3</ele>
        <time>2020-08-18T06:48:06.000Z</time>
      </trkpt>
      <trkpt lat="49.33387" lon="0.98228">
        <ele>94.6</ele>
        <time>2020-08-18T06:48:11.000Z</time>
      </trkpt>
      <trkpt lat="49.33386" lon="0.98207">
        <ele>93.8</ele>
        <time>2020-08-18T06:48:16.000Z</time>
      </trkpt>
      <trkpt lat="49.33384" lon="0.98194">
        <ele>92.7</ele>
        <time>2020-08-18T06:48:21.000Z</time>
      </trkpt>
      <trkpt lat="49.33386" lon="0.98178">
        <ele>91.8</ele>
        <time>2020-08-18T06:48:26.000Z</time>
      </trkpt>
      <trkpt lat="49.33388" lon="0.98166">
        <ele>91.2</ele>
        <time>2020-08-18T06:48:31.000Z</time>
      </trkpt>
      <trkpt lat="49.3339" lon="0.98155">
        <ele>91.7</ele>
        <time>2020-08-18T06:48:36.000Z</time>
      </trkpt>
      <trkpt lat="49.33393" lon="0.98144">
        <ele>92.3</ele>
        <time>2020-08-18T06:48:41.000Z</time>
      </trkpt>
      <trkpt lat="49.33401" lon="0.9813">
        <ele>92.2</ele>
        <time>2020-08-18T06:48:46.000Z</time>
      </trkpt>
      <trkpt lat="49.33406" lon="0.98117">
        <ele>92</ele>
        <time>2020-08-18T06:48:51.000Z</time>
      </trkpt>
      <trkpt lat="49.33402" lon="0.98094">
        <ele>90.8</ele>
        <time>2020-08-18T06:48:56.000Z</time>
      </trkpt>
      <trkpt lat="49.33399" lon="0.98076">
        <ele>89.7</ele>
        <time>2020-08-18T06:49:01.000Z</time>
      </trkpt>
      <trkpt lat="49.33404" lon="0.98057">
        <ele>89.4</ele>
        <time>2020-08-18T06:49:06.000Z</time>
      </trkpt>
      <trkpt lat="49.33406" lon="0.9803">
        <ele>89.1</ele>
        <time>2020-08-18T06:49:11.000Z</time>
      </trkpt>
      <trkpt lat="49.33412" lon="0.98005">
        <ele>87.3</ele>
        <time>2020-08-18T06:49:16.000Z</time>
      </trkpt>
      <trkpt lat="49.33421" lon="0.97989">
        <ele>86.5</ele>
        <time>2020-08-18T06:49:21.000Z</time>
      </trkpt>
      <trkpt lat="49.33431" lon="0.97978">
        <ele>87</ele>
        <time>2020-08-18T06:49:26.000Z</time>
      </trkpt>
      <trkpt lat="49.33443" lon="0.97966">
        <ele>86.6</ele>
        <time>2020-08-18T06:49:31.000Z</time>
      </trkpt>
      <trkpt lat="49.33453" lon="0.97954">
        <ele>86</ele>
        <time>2020-08-18T06:49:36.000Z</time>
      </trkpt>
      <trkpt lat="49.33461" lon="0.97936">
        <ele>85.9</ele>
        <time>2020-08-18T06:49:41.000Z</time>
      </trkpt>
      <trkpt lat="49.33467" lon="0.97919">
        <ele>86</ele>
        <time>2020-08-18T06:49:46.000Z</time>
      </trkpt>
      <trkpt lat="49.33468" lon="0.97898">
        <ele>85.8</ele>
        <time>2020-08-18T06:49:51.000Z</time>
      </trkpt>
      <trkpt lat="49.33472" lon="0.97885">
        <ele>87.7</ele>
        <time>2020-08-18T06:49:56.000Z</time>
      </trkpt>
      <trkpt lat="49.33475" lon="0.97871">
        <ele>88.2</ele>
        <time>2020-08-18T06:50:01.000Z</time>
      </trkpt>
      <trkpt lat="49.33476" lon="0.97853">
        <ele>87.6</ele>
        <time>2020-08-18T06:50:06.000Z</time>
      </trkpt>
      <trkpt lat="49.33475" lon="0.97837">
        <ele>87.7</ele>
        <time>2020-08-18T06:50:11.000Z</time>
      </trkpt>
      <trkpt lat="49.33478" lon="0.97822">
        <ele>87.9</ele>
        <time>2020-08-18T06:50:16.000Z</time>
      </trkpt>
      <trkpt lat="49.33484" lon="0.9781">
        <ele>88.3</ele>
        <time>2020-08-18T06:50:21.000Z</time>
      </trkpt>
      <trkpt lat="49.33492" lon="0.97797">
        <ele>88.5</ele>
        <time>2020-08-18T06:50:26.000Z</time>
      </trkpt>
      <trkpt lat="49.33498" lon="0.97783">
        <ele>88.3</ele>
        <time>2020-08-18T06:50:31.000Z</time>
      </trkpt>
      <trkpt lat="49.33504" lon="0.97776">
        <ele>88.6</ele>
        <time>2020-08-18T06:50:36.000Z</time>
      </trkpt>
      <trkpt lat="49.33514" lon="0.97773">
        <ele>89.5</ele>
        <time>2020-08-18T06:50:41.000Z</time>
      </trkpt>
      <trkpt lat="49.33523" lon="0.97767">
        <ele>91.2</ele>
        <time>2020-08-18T06:50:46.000Z</time>
      </trkpt>
      <trkpt lat="49.33531" lon="0.97766">
        <ele>92.1</ele>
        <time>2020-08-18T06:50:51.000Z</time>
      </trkpt>
      <trkpt lat="49.33537" lon="0.9777">
        <ele>92.6</ele>
        <time>2020-08-18T06:50:56.000Z</time>
      </trkpt>
      <trkpt lat="49.33543" lon="0.97772">
        <ele>92.9</ele>
        <time>2020-08-18T06:51:01.000Z</time>
      </trkpt>
      <trkpt lat="49.33546" lon="0.97772">
        <ele>93.4</ele>
        <time>2020-08-18T06:51:06.000Z</time>
      </trkpt>
      <trkpt lat="49.33545" lon="0.97773">
        <ele>94.6</ele>
        <time>2020-08-18T06:51:11.000Z</time>
      </trkpt>
      <trkpt lat="49.33544" lon="0.97774">
        <ele>96.3</ele>
        <time>2020-08-18T06:51:16.000Z</time>
      </trkpt>
      <trkpt lat="49.33543" lon="0.97776">
        <ele>97.1</ele>
        <time>2020-08-18T06:51:17.000Z</time>
      </trkpt>
      <trkpt lat="49.33543" lon="0.97777">
        <ele>97.7</ele>
        <time>2020-08-18T06:51:22.000Z</time>
      </trkpt>
      <trkpt lat="49.33545" lon="0.9778">
        <ele>98.6</ele>
        <time>2020-08-18T06:51:27.000Z</time>
      </trkpt>
      <trkpt lat="49.33548" lon="0.97782">
        <ele>98.4</ele>
        <time>2020-08-18T06:51:32.000Z</time>
      </trkpt>
      <trkpt lat="49.33553" lon="0.97786">
        <ele>98.3</ele>
        <time>2020-08-18T06:51:37.000Z</time>
      </trkpt>
      <trkpt lat="49.33561" lon="0.97797">
        <ele>99.2</ele>
        <time>2020-08-18T06:51:42.000Z</time>
      </trkpt>
      <trkpt lat="49.33567" lon="0.9781">
        <ele>101</ele>
        <time>2020-08-18T06:51:47.000Z</time>
      </trkpt>
      <trkpt lat="49.33572" lon="0.97824">
        <ele>101.9</ele>
        <time>2020-08-18T06:51:52.000Z</time>
      </trkpt>
      <trkpt lat="49.33579" lon="0.9784">
        <ele>101.8</ele>
        <time>2020-08-18T06:51:57.000Z</time>
      </trkpt>
      <trkpt lat="49.33584" lon="0.97855">
        <ele>102.1</ele>
        <time>2020-08-18T06:52:02.000Z</time>
      </trkpt>
      <trkpt lat="49.33589" lon="0.9787">
        <ele>102.4</ele>
        <time>2020-08-18T06:52:07.000Z</time>
      </trkpt>
      <trkpt lat="49.33593" lon="0.97885">
        <ele>103.6</ele>
        <time>2020-08-18T06:52:12.000Z</time>
      </trkpt>
      <trkpt lat="49.33597" lon="0.97898">
        <ele>105.4</ele>
        <time>2020-08-18T06:52:17.000Z</time>
      </trkpt>
      <trkpt lat="49.33599" lon="0.97914">
        <ele>107.5</ele>
        <time>2020-08-18T06:52:22.000Z</time>
      </trkpt>
      <trkpt lat="49.33605" lon="0.97927">
        <ele>108.9</ele>
        <time>2020-08-18T06:52:27.000Z</time>
      </trkpt>
      <trkpt lat="49.33609" lon="0.97943">
        <ele>110.1</ele>
        <time>2020-08-18T06:52:32.000Z</time>
      </trkpt>
      <trkpt lat="49.33613" lon="0.97959">
        <ele>111.6</ele>
        <time>2020-08-18T06:52:37.000Z</time>
      </trkpt>
      <trkpt lat="49.33617" lon="0.9797">
        <ele>113.2</ele>
        <time>2020-08-18T06:52:42.000Z</time>
      </trkpt>
      <trkpt lat="49.33619" lon="0.97982">
        <ele>115</ele>
        <time>2020-08-18T06:52:47.000Z</time>
      </trkpt>
      <trkpt lat="49.33622" lon="0.97997">
        <ele>115.4</ele>
        <time>2020-08-18T06:52:52.000Z</time>
      </trkpt>
      <trkpt lat="49.33626" lon="0.98012">
        <ele>115.8</ele>
        <time>2020-08-18T06:52:57.000Z</time>
      </trkpt>
      <trkpt lat="49.3363" lon="0.98029">
        <ele>116</ele>
        <time>2020-08-18T06:53:02.000Z</time>
      </trkpt>
      <trkpt lat="49.33635" lon="0.9805">
        <ele>116</ele>
        <time>2020-08-18T06:53:07.000Z</time>
      </trkpt>
      <trkpt lat="49.33643" lon="0.98072">
        <ele>115.2</ele>
        <time>2020-08-18T06:53:12.000Z</time>
      </trkpt>
      <trkpt lat="49.33651" lon="0.98091">
        <ele>115.3</ele>
        <time>2020-08-18T06:53:17.000Z</time>
      </trkpt>
      <trkpt lat="49.3366" lon="0.98101">
        <ele>116.9</ele>
        <time>2020-08-18T06:53:22.000Z</time>
      </trkpt>
      <trkpt lat="49.33672" lon="0.98098">
        <ele>118.8</ele>
        <time>2020-08-18T06:53:27.000Z</time>
      </trkpt>
      <trkpt lat="49.33686" lon="0.98086">
        <ele>119.3</ele>
        <time>2020-08-18T06:53:32.000Z</time>
      </trkpt>
      <trkpt lat="49.33699" lon="0.98075">
        <ele>120.8</ele>
        <time>2020-08-18T06:53:37.000Z</time>
      </trkpt>
      <trkpt lat="49.33707" lon="0.98062">
        <ele>121.3</ele>
        <time>2020-08-18T06:53:42.000Z</time>
      </trkpt>
      <trkpt lat="49.3371" lon="0.98044">
        <ele>121.8</ele>
        <time>2020-08-18T06:53:47.000Z</time>
      </trkpt>
      <trkpt lat="49.33712" lon="0.9802">
        <ele>122.2</ele>
        <time>2020-08-18T06:53:52.000Z</time>
      </trkpt>
      <trkpt lat="49.33721" lon="0.98003">
        <ele>121.3</ele>
        <time>2020-08-18T06:53:57.000Z</time>
      </trkpt>
      <trkpt lat="49.33736" lon="0.97988">
        <ele>121.6</ele>
        <time>2020-08-18T06:54:02.000Z</time>
      </trkpt>
      <trkpt lat="49.33747" lon="0.9797">
        <ele>121.7</ele>
        <time>2020-08-18T06:54:07.000Z</time>
      </trkpt>
      <trkpt lat="49.33756" lon="0.97939">
        <ele>121.1</ele>
        <time>2020-08-18T06:54:12.000Z</time>
      </trkpt>
      <trkpt lat="49.33762" lon="0.97901">
        <ele>118.1</ele>
        <time>2020-08-18T06:54:17.000Z</time>
      </trkpt>
      <trkpt lat="49.33768" lon="0.9787">
        <ele>116.2</ele>
        <time>2020-08-18T06:54:22.000Z</time>
      </trkpt>
      <trkpt lat="49.33773" lon="0.97842">
        <ele>114.3</ele>
        <time>2020-08-18T06:54:27.000Z</time>
      </trkpt>
      <trkpt lat="49.33781" lon="0.9782">
        <ele>112.4</ele>
        <time>2020-08-18T06:54:32.000Z</time>
      </trkpt>
      <trkpt lat="49.33782" lon="0.97796">
        <ele>110.6</ele>
        <time>2020-08-18T06:54:37.000Z</time>
      </trkpt>
      <trkpt lat="49.33774" lon="0.97778">
        <ele>110.3</ele>
        <time>2020-08-18T06:54:42.000Z</time>
      </trkpt>
      <trkpt lat="49.33767" lon="0.97756">
        <ele>109.9</ele>
        <time>2020-08-18T06:54:47.000Z</time>
      </trkpt>
      <trkpt lat="49.33761" lon="0.97736">
        <ele>109.5</ele>
        <time>2020-08-18T06:54:52.000Z</time>
      </trkpt>
      <trkpt lat="49.3376" lon="0.97721">
        <ele>109.6</ele>
        <time>2020-08-18T06:54:57.000Z</time>
      </trkpt>
      <trkpt lat="49.33758" lon="0.97711">
        <ele>109.9</ele>
        <time>2020-08-18T06:55:02.000Z</time>
      </trkpt>
      <trkpt lat="49.33751" lon="0.97698">
        <ele>109.2</ele>
        <time>2020-08-18T06:55:07.000Z</time>
      </trkpt>
      <trkpt lat="49.33742" lon="0.97686">
        <ele>109</ele>
        <time>2020-08-18T06:55:12.000Z</time>
      </trkpt>
      <trkpt lat="49.33727" lon="0.97671">
        <ele>107.7</ele>
        <time>2020-08-18T06:55:17.000Z</time>
      </trkpt>
      <trkpt lat="49.33715" lon="0.9766">
        <ele>107.8</ele>
        <time>2020-08-18T06:55:22.000Z</time>
      </trkpt>
      <trkpt lat="49.33707" lon="0.97647">
        <ele>108.8</ele>
        <time>2020-08-18T06:55:27.000Z</time>
      </trkpt>
      <trkpt lat="49.33702" lon="0.9763">
        <ele>109.4</ele>
        <time>2020-08-18T06:55:32.000Z</time>
      </trkpt>
      <trkpt lat="49.33698" lon="0.97613">
        <ele>109.6</ele>
        <time>2020-08-18T06:55:37.000Z</time>
      </trkpt>
      <trkpt lat="49.33697" lon="0.97596">
        <ele>110.2</ele>
        <time>2020-08-18T06:55:42.000Z</time>
      </trkpt>
      <trkpt lat="49.33696" lon="0.9758">
        <ele>110.4</ele>
        <time>2020-08-18T06:55:47.000Z</time>
      </trkpt>
      <trkpt lat="49.33692" lon="0.97559">
        <ele>111.1</ele>
        <time>2020-08-18T06:55:52.000Z</time>
      </trkpt>
      <trkpt lat="49.3369" lon="0.97536">
        <ele>112.2</ele>
        <time>2020-08-18T06:55:57.000Z</time>
      </trkpt>
      <trkpt lat="49.3369" lon="0.9752">
        <ele>112.8</ele>
        <time>2020-08-18T06:56:02.000Z</time>
      </trkpt>
      <trkpt lat="49.3369" lon="0.97519">
        <ele>112.9</ele>
        <time>2020-08-18T06:56:14.000Z</time>
      </trkpt>
      <trkpt lat="49.33688" lon="0.97512">
        <ele>112.5</ele>
        <time>2020-08-18T06:56:24.000Z</time>
      </trkpt>
      <trkpt lat="49.33685" lon="0.97498">
        <ele>112.5</ele>
        <time>2020-08-18T06:56:29.000Z</time>
      </trkpt>
      <trkpt lat="49.33684" lon="0.97477">
        <ele>113</ele>
        <time>2020-08-18T06:56:34.000Z</time>
      </trkpt>
      <trkpt lat="49.3368" lon="0.97458">
        <ele>113.1</ele>
        <time>2020-08-18T06:56:39.000Z</time>
      </trkpt>
      <trkpt lat="49.33672" lon="0.97436">
        <ele>113.3</ele>
        <time>2020-08-18T06:56:44.000Z</time>
      </trkpt>
      <trkpt lat="49.33666" lon="0.97414">
        <ele>113.4</ele>
        <time>2020-08-18T06:56:49.000Z</time>
      </trkpt>
      <trkpt lat="49.3366" lon="0.97388">
        <ele>113.3</ele>
        <time>2020-08-18T06:56:54.000Z</time>
      </trkpt>
      <trkpt lat="49.33657" lon="0.97364">
        <ele>113</ele>
        <time>2020-08-18T06:56:59.000Z</time>
      </trkpt>
      <trkpt lat="49.33652" lon="0.9734">
        <ele>112.9</ele>
        <time>2020-08-18T06:57:04.000Z</time>
      </trkpt>
      <trkpt lat="49.33647" lon="0.97307">
        <ele>111.9</ele>
        <time>2020-08-18T06:57:09.000Z</time>
      </trkpt>
      <trkpt lat="49.33641" lon="0.97281">
        <ele>111.7</ele>
        <time>2020-08-18T06:57:14.000Z</time>
      </trkpt>
      <trkpt lat="49.3364" lon="0.97257">
        <ele>112</ele>
        <time>2020-08-18T06:57:19.000Z</time>
      </trkpt>
      <trkpt lat="49.33642" lon="0.97231">
        <ele>111.8</ele>
        <time>2020-08-18T06:57:24.000Z</time>
      </trkpt>
      <trkpt lat="49.33645" lon="0.97203">
        <ele>111</ele>
        <time>2020-08-18T06:57:29.000Z</time>
      </trkpt>
      <trkpt lat="49.33651" lon="0.97175">
        <ele>109.8</ele>
        <time>2020-08-18T06:57:34.000Z</time>
      </trkpt>
      <trkpt lat="49.33658" lon="0.97151">
        <ele>109.6</ele>
        <time>2020-08-18T06:57:39.000Z</time>
      </trkpt>
      <trkpt lat="49.33667" lon="0.97131">
        <ele>109</ele>
        <time>2020-08-18T06:57:44.000Z</time>
      </trkpt>
      <trkpt lat="49.33673" lon="0.97114">
        <ele>108.8</ele>
        <time>2020-08-18T06:57:49.000Z</time>
      </trkpt>
      <trkpt lat="49.33676" lon="0.97105">
        <ele>109.3</ele>
        <time>2020-08-18T06:57:54.000Z</time>
      </trkpt>
      <trkpt lat="49.33676" lon="0.97104">
        <ele>110.4</ele>
        <time>2020-08-18T06:57:59.000Z</time>
      </trkpt>
      <trkpt lat="49.33677" lon="0.97103">
        <ele>110.6</ele>
        <time>2020-08-18T06:58:00.000Z</time>
      </trkpt>
      <trkpt lat="49.33677" lon="0.971">
        <ele>111.2</ele>
        <time>2020-08-18T06:58:07.000Z</time>
      </trkpt>
      <trkpt lat="49.3368" lon="0.97089">
        <ele>111.3</ele>
        <time>2020-08-18T06:58:12.000Z</time>
      </trkpt>
      <trkpt lat="49.33685" lon="0.97072">
        <ele>110.8</ele>
        <time>2020-08-18T06:58:17.000Z</time>
      </trkpt>
      <trkpt lat="49.3369" lon="0.97058">
        <ele>110.7</ele>
        <time>2020-08-18T06:58:22.000Z</time>
      </trkpt>
      <trkpt lat="49.33692" lon="0.97039">
        <ele>110.7</ele>
        <time>2020-08-18T06:58:27.000Z</time>
      </trkpt>
      <trkpt lat="49.33696" lon="0.97012">
        <ele>110.9</ele>
        <time>2020-08-18T06:58:32.000Z</time>
      </trkpt>
      <trkpt lat="49.33704" lon="0.96994">
        <ele>110.8</ele>
        <time>2020-08-18T06:58:37.000Z</time>
      </trkpt>
      <trkpt lat="49.33709" lon="0.96972">
        <ele>110.5</ele>
        <time>2020-08-18T06:58:42.000Z</time>
      </trkpt>
      <trkpt lat="49.3371" lon="0.96944">
        <ele>110.3</ele>
        <time>2020-08-18T06:58:47.000Z</time>
      </trkpt>
      <trkpt lat="49.33714" lon="0.96917">
        <ele>110</ele>
        <time>2020-08-18T06:58:52.000Z</time>
      </trkpt>
      <trkpt lat="49.33718" lon="0.96897">
        <ele>110</ele>
        <time>2020-08-18T06:58:57.000Z</time>
      </trkpt>
      <trkpt lat="49.33718" lon="0.96862">
        <ele>109</ele>
        <time>2020-08-18T06:59:02.000Z</time>
      </trkpt>
      <trkpt lat="49.33718" lon="0.96828">
        <ele>109.5</ele>
        <time>2020-08-18T06:59:07.000Z</time>
      </trkpt>
      <trkpt lat="49.33721" lon="0.96803">
        <ele>110.9</ele>
        <time>2020-08-18T06:59:12.000Z</time>
      </trkpt>
      <trkpt lat="49.33722" lon="0.96781">
        <ele>111.5</ele>
        <time>2020-08-18T06:59:17.000Z</time>
      </trkpt>
      <trkpt lat="49.33721" lon="0.96761">
        <ele>110.8</ele>
        <time>2020-08-18T06:59:22.000Z</time>
      </trkpt>
      <trkpt lat="49.33721" lon="0.96741">
        <ele>110.9</ele>
        <time>2020-08-18T06:59:27.000Z</time>
      </trkpt>
      <trkpt lat="49.3372" lon="0.9672">
        <ele>110.6</ele>
        <time>2020-08-18T06:59:32.000Z</time>
      </trkpt>
      <trkpt lat="49.3372" lon="0.96698">
        <ele>109.9</ele>
        <time>2020-08-18T06:59:37.000Z</time>
      </trkpt>
      <trkpt lat="49.33713" lon="0.96673">
        <ele>110</ele>
        <time>2020-08-18T06:59:42.000Z</time>
      </trkpt>
      <trkpt lat="49.33708" lon="0.96647">
        <ele>109.7</ele>
        <time>2020-08-18T06:59:47.000Z</time>
      </trkpt>
      <trkpt lat="49.33709" lon="0.96625">
        <ele>108.8</ele>
        <time>2020-08-18T06:59:52.000Z</time>
      </trkpt>
      <trkpt lat="49.33715" lon="0.96603">
        <ele>108.8</ele>
        <time>2020-08-18T06:59:57.000Z</time>
      </trkpt>
      <trkpt lat="49.33719" lon="0.96582">
        <ele>108.5</ele>
        <time>2020-08-18T07:00:02.000Z</time>
      </trkpt>
      <trkpt lat="49.33719" lon="0.96557">
        <ele>108.5</ele>
        <time>2020-08-18T07:00:07.000Z</time>
      </trkpt>
      <trkpt lat="49.33722" lon="0.96531">
        <ele>108.5</ele>
        <time>2020-08-18T07:00:12.000Z</time>
      </trkpt>
      <trkpt lat="49.33723" lon="0.96511">
        <ele>108.7</ele>
        <time>2020-08-18T07:00:17.000Z</time>
      </trkpt>
      <trkpt lat="49.33723" lon="0.96482">
        <ele>108</ele>
        <time>2020-08-18T07:00:22.000Z</time>
      </trkpt>
      <trkpt lat="49.33728" lon="0.96459">
        <ele>107.9</ele>
        <time>2020-08-18T07:00:27.000Z</time>
      </trkpt>
      <trkpt lat="49.33738" lon="0.96444">
        <ele>107.6</ele>
        <time>2020-08-18T07:00:32.000Z</time>
      </trkpt>
      <trkpt lat="49.33745" lon="0.96441">
        <ele>106.8</ele>
        <time>2020-08-18T07:00:37.000Z</time>
      </trkpt>
      <trkpt lat="49.33753" lon="0.96446">
        <ele>106.4</ele>
        <time>2020-08-18T07:00:42.000Z</time>
      </trkpt>
      <trkpt lat="49.33755" lon="0.96458">
        <ele>105.8</ele>
        <time>2020-08-18T07:00:47.000Z</time>
      </trkpt>
      <trkpt lat="49.33754" lon="0.96475">
        <ele>105.8</ele>
        <time>2020-08-18T07:00:52.000Z</time>
      </trkpt>
      <trkpt lat="49.33755" lon="0.96491">
        <ele>105.9</ele>
        <time>2020-08-18T07:00:57.000Z</time>
      </trkpt>
      <trkpt lat="49.33761" lon="0.96505">
        <ele>105.5</ele>
        <time>2020-08-18T07:01:02.000Z</time>
      </trkpt>
      <trkpt lat="49.33769" lon="0.96498">
        <ele>106.3</ele>
        <time>2020-08-18T07:01:07.000Z</time>
      </trkpt>
      <trkpt lat="49.33776" lon="0.96498">
        <ele>106.2</ele>
        <time>2020-08-18T07:01:12.000Z</time>
      </trkpt>
      <trkpt lat="49.33781" lon="0.9651">
        <ele>105.1</ele>
        <time>2020-08-18T07:01:17.000Z</time>
      </trkpt>
      <trkpt lat="49.33785" lon="0.96522">
        <ele>104.1</ele>
        <time>2020-08-18T07:01:22.000Z</time>
      </trkpt>
      <trkpt lat="49.33786" lon="0.96537">
        <ele>103.8</ele>
        <time>2020-08-18T07:01:27.000Z</time>
      </trkpt>
      <trkpt lat="49.33786" lon="0.96549">
        <ele>104.8</ele>
        <time>2020-08-18T07:01:32.000Z</time>
      </trkpt>
      <trkpt lat="49.3379" lon="0.96556">
        <ele>104.9</ele>
        <time>2020-08-18T07:01:37.000Z</time>
      </trkpt>
      <trkpt lat="49.33796" lon="0.96555">
        <ele>104.8</ele>
        <time>2020-08-18T07:01:42.000Z</time>
      </trkpt>
      <trkpt lat="49.33802" lon="0.96561">
        <ele>105.4</ele>
        <time>2020-08-18T07:01:47.000Z</time>
      </trkpt>
      <trkpt lat="49.33808" lon="0.96579">
        <ele>105.3</ele>
        <time>2020-08-18T07:01:52.000Z</time>
      </trkpt>
      <trkpt lat="49.33807" lon="0.96599">
        <ele>106.2</ele>
        <time>2020-08-18T07:01:57.000Z</time>
      </trkpt>
      <trkpt lat="49.33807" lon="0.96617">
        <ele>106.6</ele>
        <time>2020-08-18T07:02:02.000Z</time>
      </trkpt>
      <trkpt lat="49.33809" lon="0.96637">
        <ele>108.2</ele>
        <time>2020-08-18T07:02:07.000Z</time>
      </trkpt>
      <trkpt lat="49.3381" lon="0.96657">
        <ele>108.6</ele>
        <time>2020-08-18T07:02:12.000Z</time>
      </trkpt>
      <trkpt lat="49.33807" lon="0.96676">
        <ele>108.7</ele>
        <time>2020-08-18T07:02:17.000Z</time>
      </trkpt>
      <trkpt lat="49.33807" lon="0.96704">
        <ele>110.7</ele>
        <time>2020-08-18T07:02:22.000Z</time>
      </trkpt>
      <trkpt lat="49.33811" lon="0.96719">
        <ele>111.4</ele>
        <time>2020-08-18T07:02:27.000Z</time>
      </trkpt>
      <trkpt lat="49.33813" lon="0.96729">
        <ele>111.9</ele>
        <time>2020-08-18T07:02:32.000Z</time>
      </trkpt>
      <trkpt lat="49.33818" lon="0.96727">
        <ele>113.1</ele>
        <time>2020-08-18T07:02:37.000Z</time>
      </trkpt>
      <trkpt lat="49.33819" lon="0.96727">
        <ele>111.7</ele>
        <time>2020-08-18T07:03:09.000Z</time>
      </trkpt>
      <trkpt lat="49.33822" lon="0.96715">
        <ele>110.6</ele>
        <time>2020-08-18T07:03:33.000Z</time>
      </trkpt>
      <trkpt lat="49.33824" lon="0.96695">
        <ele>111</ele>
        <time>2020-08-18T07:03:38.000Z</time>
      </trkpt>
      <trkpt lat="49.33827" lon="0.96673">
        <ele>112.2</ele>
        <time>2020-08-18T07:03:43.000Z</time>
      </trkpt>
      <trkpt lat="49.33828" lon="0.96655">
        <ele>113.2</ele>
        <time>2020-08-18T07:03:48.000Z</time>
      </trkpt>
      <trkpt lat="49.33828" lon="0.96635">
        <ele>114.2</ele>
        <time>2020-08-18T07:03:53.000Z</time>
      </trkpt>
      <trkpt lat="49.3383" lon="0.96616">
        <ele>114.9</ele>
        <time>2020-08-18T07:03:58.000Z</time>
      </trkpt>
      <trkpt lat="49.33832" lon="0.96599">
        <ele>115.3</ele>
        <time>2020-08-18T07:04:03.000Z</time>
      </trkpt>
      <trkpt lat="49.33836" lon="0.96578">
        <ele>116.7</ele>
        <time>2020-08-18T07:04:08.000Z</time>
      </trkpt>
      <trkpt lat="49.33842" lon="0.96562">
        <ele>116.9</ele>
        <time>2020-08-18T07:04:13.000Z</time>
      </trkpt>
      <trkpt lat="49.33838" lon="0.96548">
        <ele>116.9</ele>
        <time>2020-08-18T07:04:18.000Z</time>
      </trkpt>
      <trkpt lat="49.33838" lon="0.96529">
        <ele>116.5</ele>
        <time>2020-08-18T07:04:23.000Z</time>
      </trkpt>
      <trkpt lat="49.33846" lon="0.96516">
        <ele>115.9</ele>
        <time>2020-08-18T07:04:28.000Z</time>
      </trkpt>
      <trkpt lat="49.33848" lon="0.96491">
        <ele>115.1</ele>
        <time>2020-08-18T07:04:33.000Z</time>
      </trkpt>
      <trkpt lat="49.33851" lon="0.96463">
        <ele>115.4</ele>
        <time>2020-08-18T07:04:38.000Z</time>
      </trkpt>
      <trkpt lat="49.33857" lon="0.96446">
        <ele>114.6</ele>
        <time>2020-08-18T07:04:43.000Z</time>
      </trkpt>
      <trkpt lat="49.33865" lon="0.96431">
        <ele>114.4</ele>
        <time>2020-08-18T07:04:48.000Z</time>
      </trkpt>
      <trkpt lat="49.33871" lon="0.96408">
        <ele>113.8</ele>
        <time>2020-08-18T07:04:53.000Z</time>
      </trkpt>
      <trkpt lat="49.33877" lon="0.96379">
        <ele>112.3</ele>
        <time>2020-08-18T07:04:58.000Z</time>
      </trkpt>
      <trkpt lat="49.33879" lon="0.96359">
        <ele>109.8</ele>
        <time>2020-08-18T07:05:03.000Z</time>
      </trkpt>
      <trkpt lat="49.33874" lon="0.96339">
        <ele>107.8</ele>
        <time>2020-08-18T07:05:08.000Z</time>
      </trkpt>
      <trkpt lat="49.33878" lon="0.96316">
        <ele>105.8</ele>
        <time>2020-08-18T07:05:13.000Z</time>
      </trkpt>
      <trkpt lat="49.33884" lon="0.963">
        <ele>104.1</ele>
        <time>2020-08-18T07:05:18.000Z</time>
      </trkpt>
      <trkpt lat="49.33889" lon="0.96284">
        <ele>101.8</ele>
        <time>2020-08-18T07:05:23.000Z</time>
      </trkpt>
      <trkpt lat="49.33891" lon="0.96269">
        <ele>100.2</ele>
        <time>2020-08-18T07:05:28.000Z</time>
      </trkpt>
      <trkpt lat="49.33881" lon="0.96262">
        <ele>96.6</ele>
        <time>2020-08-18T07:05:33.000Z</time>
      </trkpt>
      <trkpt lat="49.33884" lon="0.96242">
        <ele>94.3</ele>
        <time>2020-08-18T07:05:38.000Z</time>
      </trkpt>
      <trkpt lat="49.33878" lon="0.96238">
        <ele>92.4</ele>
        <time>2020-08-18T07:05:43.000Z</time>
      </trkpt>
      <trkpt lat="49.33863" lon="0.96254">
        <ele>91.4</ele>
        <time>2020-08-18T07:05:48.000Z</time>
      </trkpt>
      <trkpt lat="49.33851" lon="0.96262">
        <ele>91.2</ele>
        <time>2020-08-18T07:05:53.000Z</time>
      </trkpt>
      <trkpt lat="49.33837" lon="0.96272">
        <ele>91</ele>
        <time>2020-08-18T07:05:58.000Z</time>
      </trkpt>
      <trkpt lat="49.33825" lon="0.96281">
        <ele>90.8</ele>
        <time>2020-08-18T07:06:03.000Z</time>
      </trkpt>
      <trkpt lat="49.33815" lon="0.9627">
        <ele>90.2</ele>
        <time>2020-08-18T07:06:08.000Z</time>
      </trkpt>
      <trkpt lat="49.33825" lon="0.96235">
        <ele>88.5</ele>
        <time>2020-08-18T07:06:13.000Z</time>
      </trkpt>
      <trkpt lat="49.33842" lon="0.96205">
        <ele>87.6</ele>
        <time>2020-08-18T07:06:18.000Z</time>
      </trkpt>
      <trkpt lat="49.33854" lon="0.96178">
        <ele>87.1</ele>
        <time>2020-08-18T07:06:23.000Z</time>
      </trkpt>
      <trkpt lat="49.33861" lon="0.96147">
        <ele>86.6</ele>
        <time>2020-08-18T07:06:28.000Z</time>
      </trkpt>
      <trkpt lat="49.33863" lon="0.9611">
        <ele>85.9</ele>
        <time>2020-08-18T07:06:33.000Z</time>
      </trkpt>
      <trkpt lat="49.33862" lon="0.96087">
        <ele>85.1</ele>
        <time>2020-08-18T07:06:38.000Z</time>
      </trkpt>
      <trkpt lat="49.33867" lon="0.96071">
        <ele>84.4</ele>
        <time>2020-08-18T07:06:43.000Z</time>
      </trkpt>
      <trkpt lat="49.33862" lon="0.96056">
        <ele>84</ele>
        <time>2020-08-18T07:06:48.000Z</time>
      </trkpt>
      <trkpt lat="49.33861" lon="0.9604">
        <ele>83.2</ele>
        <time>2020-08-18T07:06:53.000Z</time>
      </trkpt>
      <trkpt lat="49.33867" lon="0.96025">
        <ele>82.9</ele>
        <time>2020-08-18T07:06:58.000Z</time>
      </trkpt>
      <trkpt lat="49.33871" lon="0.96005">
        <ele>82.4</ele>
        <time>2020-08-18T07:07:03.000Z</time>
      </trkpt>
      <trkpt lat="49.33871" lon="0.95984">
        <ele>82.9</ele>
        <time>2020-08-18T07:07:08.000Z</time>
      </trkpt>
      <trkpt lat="49.3387" lon="0.9596">
        <ele>83</ele>
        <time>2020-08-18T07:07:13.000Z</time>
      </trkpt>
      <trkpt lat="49.3387" lon="0.95936">
        <ele>83.1</ele>
        <time>2020-08-18T07:07:18.000Z</time>
      </trkpt>
      <trkpt lat="49.33869" lon="0.95913">
        <ele>82.8</ele>
        <time>2020-08-18T07:07:23.000Z</time>
      </trkpt>
      <trkpt lat="49.33867" lon="0.95889">
        <ele>82.4</ele>
        <time>2020-08-18T07:07:28.000Z</time>
      </trkpt>
      <trkpt lat="49.33865" lon="0.95863">
        <ele>82</ele>
        <time>2020-08-18T07:07:33.000Z</time>
      </trkpt>
      <trkpt lat="49.33864" lon="0.95837">
        <ele>81.8</ele>
        <time>2020-08-18T07:07:38.000Z</time>
      </trkpt>
      <trkpt lat="49.33863" lon="0.95813">
        <ele>81.5</ele>
        <time>2020-08-18T07:07:43.000Z</time>
      </trkpt>
      <trkpt lat="49.33862" lon="0.95788">
        <ele>81.6</ele>
        <time>2020-08-18T07:07:48.000Z</time>
      </trkpt>
      <trkpt lat="49.33861" lon="0.95762">
        <ele>81.9</ele>
        <time>2020-08-18T07:07:53.000Z</time>
      </trkpt>
      <trkpt lat="49.3386" lon="0.95735">
        <ele>82.8</ele>
        <time>2020-08-18T07:07:58.000Z</time>
      </trkpt>
      <trkpt lat="49.3386" lon="0.95712">
        <ele>83.6</ele>
        <time>2020-08-18T07:08:03.000Z</time>
      </trkpt>
      <trkpt lat="49.33861" lon="0.95693">
        <ele>84.3</ele>
        <time>2020-08-18T07:08:08.000Z</time>
      </trkpt>
      <trkpt lat="49.3386" lon="0.95673">
        <ele>85.4</ele>
        <time>2020-08-18T07:08:13.000Z</time>
      </trkpt>
      <trkpt lat="49.33866" lon="0.9565">
        <ele>86.2</ele>
        <time>2020-08-18T07:08:18.000Z</time>
      </trkpt>
      <trkpt lat="49.33863" lon="0.95629">
        <ele>87.2</ele>
        <time>2020-08-18T07:08:23.000Z</time>
      </trkpt>
      <trkpt lat="49.33859" lon="0.95609">
        <ele>87.8</ele>
        <time>2020-08-18T07:08:28.000Z</time>
      </trkpt>
      <trkpt lat="49.33854" lon="0.95591">
        <ele>88.7</ele>
        <time>2020-08-18T07:08:33.000Z</time>
      </trkpt>
      <trkpt lat="49.3385" lon="0.95572">
        <ele>90.3</ele>
        <time>2020-08-18T07:08:38.000Z</time>
      </trkpt>
      <trkpt lat="49.33844" lon="0.9555">
        <ele>91.9</ele>
        <time>2020-08-18T07:08:43.000Z</time>
      </trkpt>
      <trkpt lat="49.3384" lon="0.95533">
        <ele>93.2</ele>
        <time>2020-08-18T07:08:48.000Z</time>
      </trkpt>
      <trkpt lat="49.33832" lon="0.95507">
        <ele>94.6</ele>
        <time>2020-08-18T07:08:53.000Z</time>
      </trkpt>
      <trkpt lat="49.33828" lon="0.95483">
        <ele>96.7</ele>
        <time>2020-08-18T07:08:58.000Z</time>
      </trkpt>
      <trkpt lat="49.33828" lon="0.9546">
        <ele>97.4</ele>
        <time>2020-08-18T07:09:03.000Z</time>
      </trkpt>
      <trkpt lat="49.33827" lon="0.95442">
        <ele>97.8</ele>
        <time>2020-08-18T07:09:08.000Z</time>
      </trkpt>
      <trkpt lat="49.33827" lon="0.95423">
        <ele>98.4</ele>
        <time>2020-08-18T07:09:13.000Z</time>
      </trkpt>
      <trkpt lat="49.33826" lon="0.95405">
        <ele>99.6</ele>
        <time>2020-08-18T07:09:18.000Z</time>
      </trkpt>
      <trkpt lat="49.33826" lon="0.95386">
        <ele>99.8</ele>
        <time>2020-08-18T07:09:23.000Z</time>
      </trkpt>
      <trkpt lat="49.33826" lon="0.95369">
        <ele>100</ele>
        <time>2020-08-18T07:09:28.000Z</time>
      </trkpt>
      <trkpt lat="49.33826" lon="0.95352">
        <ele>101</ele>
        <time>2020-08-18T07:09:33.000Z</time>
      </trkpt>
      <trkpt lat="49.33826" lon="0.95349">
        <ele>101.3</ele>
        <time>2020-08-18T07:09:37.000Z</time>
      </trkpt>
      <trkpt lat="49.33826" lon="0.95348">
        <ele>103.8</ele>
        <time>2020-08-18T07:10:20.000Z</time>
      </trkpt>
      <trkpt lat="49.33826" lon="0.95347">
        <ele>104</ele>
        <time>2020-08-18T07:10:24.000Z</time>
      </trkpt>
      <trkpt lat="49.33825" lon="0.9533">
        <ele>103.5</ele>
        <time>2020-08-18T07:10:29.000Z</time>
      </trkpt>
      <trkpt lat="49.33823" lon="0.95304">
        <ele>102.9</ele>
        <time>2020-08-18T07:10:34.000Z</time>
      </trkpt>
      <trkpt lat="49.33822" lon="0.95282">
        <ele>103.6</ele>
        <time>2020-08-18T07:10:39.000Z</time>
      </trkpt>
      <trkpt lat="49.33819" lon="0.95257">
        <ele>103.8</ele>
        <time>2020-08-18T07:10:44.000Z</time>
      </trkpt>
      <trkpt lat="49.33817" lon="0.95234">
        <ele>104.4</ele>
        <time>2020-08-18T07:10:49.000Z</time>
      </trkpt>
      <trkpt lat="49.33814" lon="0.9521">
        <ele>105.1</ele>
        <time>2020-08-18T07:10:54.000Z</time>
      </trkpt>
      <trkpt lat="49.33811" lon="0.95187">
        <ele>105.5</ele>
        <time>2020-08-18T07:10:59.000Z</time>
      </trkpt>
      <trkpt lat="49.3381" lon="0.95163">
        <ele>105.9</ele>
        <time>2020-08-18T07:11:04.000Z</time>
      </trkpt>
      <trkpt lat="49.3381" lon="0.95134">
        <ele>104.6</ele>
        <time>2020-08-18T07:11:09.000Z</time>
      </trkpt>
      <trkpt lat="49.33812" lon="0.95109">
        <ele>105.7</ele>
        <time>2020-08-18T07:11:14.000Z</time>
      </trkpt>
      <trkpt lat="49.33821" lon="0.95083">
        <ele>105.6</ele>
        <time>2020-08-18T07:11:19.000Z</time>
      </trkpt>
      <trkpt lat="49.33831" lon="0.95064">
        <ele>106.1</ele>
        <time>2020-08-18T07:11:24.000Z</time>
      </trkpt>
      <trkpt lat="49.33843" lon="0.95051">
        <ele>106.3</ele>
        <time>2020-08-18T07:11:29.000Z</time>
      </trkpt>
      <trkpt lat="49.33858" lon="0.95038">
        <ele>106.6</ele>
        <time>2020-08-18T07:11:34.000Z</time>
      </trkpt>
      <trkpt lat="49.33872" lon="0.95029">
        <ele>107.2</ele>
        <time>2020-08-18T07:11:39.000Z</time>
      </trkpt>
      <trkpt lat="49.33884" lon="0.95023">
        <ele>107.2</ele>
        <time>2020-08-18T07:11:44.000Z</time>
      </trkpt>
      <trkpt lat="49.33892" lon="0.9501">
        <ele>107.1</ele>
        <time>2020-08-18T07:11:49.000Z</time>
      </trkpt>
      <trkpt lat="49.33896" lon="0.94994">
        <ele>107.1</ele>
        <time>2020-08-18T07:11:54.000Z</time>
      </trkpt>
      <trkpt lat="49.33896" lon="0.94979">
        <ele>106.8</ele>
        <time>2020-08-18T07:11:59.000Z</time>
      </trkpt>
      <trkpt lat="49.33899" lon="0.94957">
        <ele>106.8</ele>
        <time>2020-08-18T07:12:04.000Z</time>
      </trkpt>
      <trkpt lat="49.339" lon="0.94929">
        <ele>106.1</ele>
        <time>2020-08-18T07:12:09.000Z</time>
      </trkpt>
      <trkpt lat="49.33901" lon="0.94897">
        <ele>106</ele>
        <time>2020-08-18T07:12:14.000Z</time>
      </trkpt>
      <trkpt lat="49.33906" lon="0.94876">
        <ele>106.8</ele>
        <time>2020-08-18T07:12:19.000Z</time>
      </trkpt>
      <trkpt lat="49.3391" lon="0.94859">
        <ele>107.7</ele>
        <time>2020-08-18T07:12:24.000Z</time>
      </trkpt>
      <trkpt lat="49.3391" lon="0.94839">
        <ele>109.2</ele>
        <time>2020-08-18T07:12:29.000Z</time>
      </trkpt>
      <trkpt lat="49.33909" lon="0.94835">
        <ele>110.2</ele>
        <time>2020-08-18T07:12:33.000Z</time>
      </trkpt>
      <trkpt lat="49.33909" lon="0.94834">
        <ele>110.4</ele>
        <time>2020-08-18T07:12:39.000Z</time>
      </trkpt>
      <trkpt lat="49.33906" lon="0.94824">
        <ele>110.6</ele>
        <time>2020-08-18T07:12:44.000Z</time>
      </trkpt>
      <trkpt lat="49.33908" lon="0.94807">
        <ele>111.3</ele>
        <time>2020-08-18T07:12:49.000Z</time>
      </trkpt>
      <trkpt lat="49.33913" lon="0.94791">
        <ele>111.6</ele>
        <time>2020-08-18T07:12:54.000Z</time>
      </trkpt>
      <trkpt lat="49.33916" lon="0.94775">
        <ele>111</ele>
        <time>2020-08-18T07:12:59.000Z</time>
      </trkpt>
      <trkpt lat="49.33905" lon="0.94765">
        <ele>111.6</ele>
        <time>2020-08-18T07:13:04.000Z</time>
      </trkpt>
      <trkpt lat="49.33893" lon="0.94753">
        <ele>112.6</ele>
        <time>2020-08-18T07:13:09.000Z</time>
      </trkpt>
      <trkpt lat="49.33891" lon="0.9473">
        <ele>112.9</ele>
        <time>2020-08-18T07:13:14.000Z</time>
      </trkpt>
      <trkpt lat="49.33894" lon="0.94706">
        <ele>114.1</ele>
        <time>2020-08-18T07:13:19.000Z</time>
      </trkpt>
      <trkpt lat="49.33896" lon="0.94681">
        <ele>114.6</ele>
        <time>2020-08-18T07:13:24.000Z</time>
      </trkpt>
      <trkpt lat="49.33896" lon="0.94659">
        <ele>116.2</ele>
        <time>2020-08-18T07:13:29.000Z</time>
      </trkpt>
      <trkpt lat="49.33896" lon="0.9464">
        <ele>117.6</ele>
        <time>2020-08-18T07:13:34.000Z</time>
      </trkpt>
      <trkpt lat="49.33886" lon="0.94634">
        <ele>117.7</ele>
        <time>2020-08-18T07:13:39.000Z</time>
      </trkpt>
      <trkpt lat="49.33878" lon="0.94621">
        <ele>117.5</ele>
        <time>2020-08-18T07:13:44.000Z</time>
      </trkpt>
      <trkpt lat="49.3388" lon="0.94599">
        <ele>116.8</ele>
        <time>2020-08-18T07:13:49.000Z</time>
      </trkpt>
      <trkpt lat="49.33886" lon="0.94575">
        <ele>117</ele>
        <time>2020-08-18T07:13:54.000Z</time>
      </trkpt>
      <trkpt lat="49.33889" lon="0.94551">
        <ele>118.2</ele>
        <time>2020-08-18T07:13:59.000Z</time>
      </trkpt>
      <trkpt lat="49.33891" lon="0.94526">
        <ele>118.9</ele>
        <time>2020-08-18T07:14:04.000Z</time>
      </trkpt>
      <trkpt lat="49.33895" lon="0.94506">
        <ele>119.1</ele>
        <time>2020-08-18T07:14:09.000Z</time>
      </trkpt>
      <trkpt lat="49.33898" lon="0.94485">
        <ele>119.2</ele>
        <time>2020-08-18T07:14:14.000Z</time>
      </trkpt>
      <trkpt lat="49.33902" lon="0.94466">
        <ele>119.4</ele>
        <time>2020-08-18T07:14:19.000Z</time>
      </trkpt>
      <trkpt lat="49.33893" lon="0.94452">
        <ele>119.3</ele>
        <time>2020-08-18T07:14:24.000Z</time>
      </trkpt>
      <trkpt lat="49.3388" lon="0.94443">
        <ele>119.7</ele>
        <time>2020-08-18T07:14:29.000Z</time>
      </trkpt>
      <trkpt lat="49.33864" lon="0.94436">
        <ele>120.3</ele>
        <time>2020-08-18T07:14:34.000Z</time>
      </trkpt>
      <trkpt lat="49.33847" lon="0.94429">
        <ele>121.1</ele>
        <time>2020-08-18T07:14:39.000Z</time>
      </trkpt>
      <trkpt lat="49.33829" lon="0.94422">
        <ele>121.5</ele>
        <time>2020-08-18T07:14:44.000Z</time>
      </trkpt>
      <trkpt lat="49.33812" lon="0.94417">
        <ele>122</ele>
        <time>2020-08-18T07:14:49.000Z</time>
      </trkpt>
      <trkpt lat="49.33794" lon="0.94412">
        <ele>121.3</ele>
        <time>2020-08-18T07:14:54.000Z</time>
      </trkpt>
      <trkpt lat="49.33778" lon="0.94406">
        <ele>121.2</ele>
        <time>2020-08-18T07:14:59.000Z</time>
      </trkpt>
      <trkpt lat="49.33759" lon="0.94399">
        <ele>121.4</ele>
        <time>2020-08-18T07:15:04.000Z</time>
      </trkpt>
      <trkpt lat="49.33742" lon="0.94391">
        <ele>121.6</ele>
        <time>2020-08-18T07:15:09.000Z</time>
      </trkpt>
      <trkpt lat="49.33722" lon="0.94384">
        <ele>120.9</ele>
        <time>2020-08-18T07:15:14.000Z</time>
      </trkpt>
      <trkpt lat="49.33706" lon="0.94378">
        <ele>121</ele>
        <time>2020-08-18T07:15:19.000Z</time>
      </trkpt>
      <trkpt lat="49.3369" lon="0.9437">
        <ele>120.5</ele>
        <time>2020-08-18T07:15:24.000Z</time>
      </trkpt>
      <trkpt lat="49.33676" lon="0.94364">
        <ele>119.9</ele>
        <time>2020-08-18T07:15:29.000Z</time>
      </trkpt>
      <trkpt lat="49.33669" lon="0.94356">
        <ele>119.5</ele>
        <time>2020-08-18T07:15:34.000Z</time>
      </trkpt>
      <trkpt lat="49.33665" lon="0.94342">
        <ele>118.9</ele>
        <time>2020-08-18T07:15:39.000Z</time>
      </trkpt>
      <trkpt lat="49.33665" lon="0.9432">
        <ele>117.9</ele>
        <time>2020-08-18T07:15:44.000Z</time>
      </trkpt>
      <trkpt lat="49.33667" lon="0.94298">
        <ele>117</ele>
        <time>2020-08-18T07:15:49.000Z</time>
      </trkpt>
      <trkpt lat="49.33667" lon="0.94277">
        <ele>117.1</ele>
        <time>2020-08-18T07:15:54.000Z</time>
      </trkpt>
      <trkpt lat="49.33668" lon="0.94254">
        <ele>117.5</ele>
        <time>2020-08-18T07:15:59.000Z</time>
      </trkpt>
      <trkpt lat="49.33665" lon="0.94228">
        <ele>117.2</ele>
        <time>2020-08-18T07:16:04.000Z</time>
      </trkpt>
      <trkpt lat="49.33667" lon="0.94203">
        <ele>117.1</ele>
        <time>2020-08-18T07:16:09.000Z</time>
      </trkpt>
      <trkpt lat="49.3367" lon="0.94178">
        <ele>117.4</ele>
        <time>2020-08-18T07:16:14.000Z</time>
      </trkpt>
      <trkpt lat="49.33674" lon="0.94158">
        <ele>118.3</ele>
        <time>2020-08-18T07:16:19.000Z</time>
      </trkpt>
      <trkpt lat="49.33678" lon="0.94139">
        <ele>118.8</ele>
        <time>2020-08-18T07:16:24.000Z</time>
      </trkpt>
      <trkpt lat="49.33683" lon="0.94121">
        <ele>119.7</ele>
        <time>2020-08-18T07:16:29.000Z</time>
      </trkpt>
      <trkpt lat="49.33689" lon="0.941">
        <ele>120</ele>
        <time>2020-08-18T07:16:34.000Z</time>
      </trkpt>
      <trkpt lat="49.33695" lon="0.9408">
        <ele>120.7</ele>
        <time>2020-08-18T07:16:39.000Z</time>
      </trkpt>
      <trkpt lat="49.33701" lon="0.9406">
        <ele>121.2</ele>
        <time>2020-08-18T07:16:44.000Z</time>
      </trkpt>
      <trkpt lat="49.33703" lon="0.94039">
        <ele>121.6</ele>
        <time>2020-08-18T07:16:49.000Z</time>
      </trkpt>
      <trkpt lat="49.33699" lon="0.94018">
        <ele>122.3</ele>
        <time>2020-08-18T07:16:54.000Z</time>
      </trkpt>
      <trkpt lat="49.3369" lon="0.93989">
        <ele>122.4</ele>
        <time>2020-08-18T07:16:59.000Z</time>
      </trkpt>
      <trkpt lat="49.33683" lon="0.93961">
        <ele>122.2</ele>
        <time>2020-08-18T07:17:04.000Z</time>
      </trkpt>
      <trkpt lat="49.33665" lon="0.93935">
        <ele>119.9</ele>
        <time>2020-08-18T07:17:09.000Z</time>
      </trkpt>
      <trkpt lat="49.33666" lon="0.93919">
        <ele>120.1</ele>
        <time>2020-08-18T07:17:14.000Z</time>
      </trkpt>
      <trkpt lat="49.33668" lon="0.93903">
        <ele>119.1</ele>
        <time>2020-08-18T07:17:19.000Z</time>
      </trkpt>
      <trkpt lat="49.33663" lon="0.93884">
        <ele>119.2</ele>
        <time>2020-08-18T07:17:24.000Z</time>
      </trkpt>
      <trkpt lat="49.33662" lon="0.93883">
        <ele>118.9</ele>
        <time>2020-08-18T07:17:27.000Z</time>
      </trkpt>
      <trkpt lat="49.33662" lon="0.93882">
        <ele>118.6</ele>
        <time>2020-08-18T07:17:30.000Z</time>
      </trkpt>
      <trkpt lat="49.33662" lon="0.93881">
        <ele>118.2</ele>
        <time>2020-08-18T07:17:33.000Z</time>
      </trkpt>
      <trkpt lat="49.33662" lon="0.93882">
        <ele>118</ele>
        <time>2020-08-18T07:17:41.000Z</time>
      </trkpt>
      <trkpt lat="49.33662" lon="0.93881">
        <ele>118.5</ele>
        <time>2020-08-18T07:17:47.000Z</time>
      </trkpt>
      <trkpt lat="49.33663" lon="0.93881">
        <ele>118.8</ele>
        <time>2020-08-18T07:17:49.000Z</time>
      </trkpt>
      <trkpt lat="49.33664" lon="0.93881">
        <ele>119.5</ele>
        <time>2020-08-18T07:17:54.000Z</time>
      </trkpt>
      <trkpt lat="49.33664" lon="0.93882">
        <ele>120.2</ele>
        <time>2020-08-18T07:17:59.000Z</time>
      </trkpt>
      <trkpt lat="49.33665" lon="0.93884">
        <ele>120.3</ele>
        <time>2020-08-18T07:18:04.000Z</time>
      </trkpt>
      <trkpt lat="49.33664" lon="0.93886">
        <ele>120.4</ele>
        <time>2020-08-18T07:18:09.000Z</time>
      </trkpt>
      <trkpt lat="49.33663" lon="0.93886">
        <ele>120.9</ele>
        <time>2020-08-18T07:18:16.000Z</time>
      </trkpt>
      <trkpt lat="49.33663" lon="0.93887">
        <ele>121.1</ele>
        <time>2020-08-18T07:18:22.000Z</time>
      </trkpt>
      <trkpt lat="49.33664" lon="0.93886">
        <ele>121.5</ele>
        <time>2020-08-18T07:18:31.000Z</time>
      </trkpt>
      <trkpt lat="49.33664" lon="0.93885">
        <ele>121.9</ele>
        <time>2020-08-18T07:18:33.000Z</time>
      </trkpt>
      <trkpt lat="49.33661" lon="0.9388">
        <ele>122.5</ele>
        <time>2020-08-18T07:18:38.000Z</time>
      </trkpt>
      <trkpt lat="49.33651" lon="0.93866">
        <ele>121.5</ele>
        <time>2020-08-18T07:18:43.000Z</time>
      </trkpt>
      <trkpt lat="49.33632" lon="0.9384">
        <ele>121.5</ele>
        <time>2020-08-18T07:18:48.000Z</time>
      </trkpt>
      <trkpt lat="49.33614" lon="0.93819">
        <ele>120.8</ele>
        <time>2020-08-18T07:18:53.000Z</time>
      </trkpt>
      <trkpt lat="49.33606" lon="0.93793">
        <ele>119.4</ele>
        <time>2020-08-18T07:18:58.000Z</time>
      </trkpt>
      <trkpt lat="49.33596" lon="0.93769">
        <ele>118.5</ele>
        <time>2020-08-18T07:19:03.000Z</time>
      </trkpt>
      <trkpt lat="49.33591" lon="0.93742">
        <ele>117.2</ele>
        <time>2020-08-18T07:19:08.000Z</time>
      </trkpt>
      <trkpt lat="49.33593" lon="0.93721">
        <ele>116.3</ele>
        <time>2020-08-18T07:19:13.000Z</time>
      </trkpt>
      <trkpt lat="49.336" lon="0.93698">
        <ele>114.4</ele>
        <time>2020-08-18T07:19:18.000Z</time>
      </trkpt>
      <trkpt lat="49.33611" lon="0.93673">
        <ele>112.9</ele>
        <time>2020-08-18T07:19:23.000Z</time>
      </trkpt>
      <trkpt lat="49.33627" lon="0.93661">
        <ele>112.2</ele>
        <time>2020-08-18T07:19:28.000Z</time>
      </trkpt>
      <trkpt lat="49.33643" lon="0.93663">
        <ele>111.4</ele>
        <time>2020-08-18T07:19:33.000Z</time>
      </trkpt>
      <trkpt lat="49.33658" lon="0.93668">
        <ele>110.4</ele>
        <time>2020-08-18T07:19:38.000Z</time>
      </trkpt>
      <trkpt lat="49.33672" lon="0.93677">
        <ele>109.9</ele>
        <time>2020-08-18T07:19:43.000Z</time>
      </trkpt>
      <trkpt lat="49.33686" lon="0.93684">
        <ele>109.8</ele>
        <time>2020-08-18T07:19:48.000Z</time>
      </trkpt>
      <trkpt lat="49.33701" lon="0.93689">
        <ele>108.9</ele>
        <time>2020-08-18T07:19:53.000Z</time>
      </trkpt>
      <trkpt lat="49.3372" lon="0.93697">
        <ele>108.7</ele>
        <time>2020-08-18T07:19:58.000Z</time>
      </trkpt>
      <trkpt lat="49.33739" lon="0.93703">
        <ele>109</ele>
        <time>2020-08-18T07:20:03.000Z</time>
      </trkpt>
      <trkpt lat="49.33756" lon="0.9371">
        <ele>108.9</ele>
        <time>2020-08-18T07:20:08.000Z</time>
      </trkpt>
      <trkpt lat="49.33771" lon="0.93713">
        <ele>108.8</ele>
        <time>2020-08-18T07:20:13.000Z</time>
      </trkpt>
      <trkpt lat="49.33781" lon="0.93718">
        <ele>108.8</ele>
        <time>2020-08-18T07:20:18.000Z</time>
      </trkpt>
      <trkpt lat="49.33795" lon="0.93721">
        <ele>108.6</ele>
        <time>2020-08-18T07:20:23.000Z</time>
      </trkpt>
      <trkpt lat="49.33809" lon="0.93728">
        <ele>109.1</ele>
        <time>2020-08-18T07:20:28.000Z</time>
      </trkpt>
      <trkpt lat="49.3382" lon="0.93732">
        <ele>109.6</ele>
        <time>2020-08-18T07:20:33.000Z</time>
      </trkpt>
      <trkpt lat="49.33832" lon="0.93735">
        <ele>110</ele>
        <time>2020-08-18T07:20:38.000Z</time>
      </trkpt>
      <trkpt lat="49.33844" lon="0.93733">
        <ele>110.9</ele>
        <time>2020-08-18T07:20:43.000Z</time>
      </trkpt>
      <trkpt lat="49.33857" lon="0.93726">
        <ele>112.2</ele>
        <time>2020-08-18T07:20:48.000Z</time>
      </trkpt>
      <trkpt lat="49.33868" lon="0.93714">
        <ele>112.6</ele>
        <time>2020-08-18T07:20:53.000Z</time>
      </trkpt>
      <trkpt lat="49.33878" lon="0.9371">
        <ele>113.5</ele>
        <time>2020-08-18T07:20:58.000Z</time>
      </trkpt>
      <trkpt lat="49.33887" lon="0.93686">
        <ele>114.5</ele>
        <time>2020-08-18T07:21:03.000Z</time>
      </trkpt>
      <trkpt lat="49.33895" lon="0.93646">
        <ele>115.1</ele>
        <time>2020-08-18T07:21:08.000Z</time>
      </trkpt>
      <trkpt lat="49.33901" lon="0.93609">
        <ele>115.2</ele>
        <time>2020-08-18T07:21:13.000Z</time>
      </trkpt>
      <trkpt lat="49.33904" lon="0.93586">
        <ele>115.7</ele>
        <time>2020-08-18T07:21:18.000Z</time>
      </trkpt>
      <trkpt lat="49.33907" lon="0.93567">
        <ele>115.7</ele>
        <time>2020-08-18T07:21:23.000Z</time>
      </trkpt>
      <trkpt lat="49.33913" lon="0.93542">
        <ele>115.6</ele>
        <time>2020-08-18T07:21:28.000Z</time>
      </trkpt>
      <trkpt lat="49.33921" lon="0.93512">
        <ele>115.2</ele>
        <time>2020-08-18T07:21:33.000Z</time>
      </trkpt>
      <trkpt lat="49.33927" lon="0.93475">
        <ele>113.7</ele>
        <time>2020-08-18T07:21:38.000Z</time>
      </trkpt>
      <trkpt lat="49.33932" lon="0.93442">
        <ele>112.6</ele>
        <time>2020-08-18T07:21:43.000Z</time>
      </trkpt>
      <trkpt lat="49.33935" lon="0.93422">
        <ele>111.7</ele>
        <time>2020-08-18T07:21:48.000Z</time>
      </trkpt>
      <trkpt lat="49.3394" lon="0.93407">
        <ele>111.2</ele>
        <time>2020-08-18T07:21:53.000Z</time>
      </trkpt>
      <trkpt lat="49.33946" lon="0.9339">
        <ele>110.9</ele>
        <time>2020-08-18T07:21:58.000Z</time>
      </trkpt>
      <trkpt lat="49.33945" lon="0.9337">
        <ele>110.2</ele>
        <time>2020-08-18T07:22:03.000Z</time>
      </trkpt>
      <trkpt lat="49.33948" lon="0.93351">
        <ele>110.4</ele>
        <time>2020-08-18T07:22:08.000Z</time>
      </trkpt>
      <trkpt lat="49.33955" lon="0.93338">
        <ele>110.1</ele>
        <time>2020-08-18T07:22:13.000Z</time>
      </trkpt>
      <trkpt lat="49.33957" lon="0.93321">
        <ele>110.1</ele>
        <time>2020-08-18T07:22:18.000Z</time>
      </trkpt>
      <trkpt lat="49.33961" lon="0.93307">
        <ele>110.2</ele>
        <time>2020-08-18T07:22:23.000Z</time>
      </trkpt>
      <trkpt lat="49.33963" lon="0.93291">
        <ele>110.9</ele>
        <time>2020-08-18T07:22:28.000Z</time>
      </trkpt>
      <trkpt lat="49.33969" lon="0.93277">
        <ele>111.1</ele>
        <time>2020-08-18T07:22:33.000Z</time>
      </trkpt>
      <trkpt lat="49.3397" lon="0.9326">
        <ele>111.2</ele>
        <time>2020-08-18T07:22:38.000Z</time>
      </trkpt>
      <trkpt lat="49.33972" lon="0.9324">
        <ele>111.6</ele>
        <time>2020-08-18T07:22:43.000Z</time>
      </trkpt>
      <trkpt lat="49.33973" lon="0.93221">
        <ele>112</ele>
        <time>2020-08-18T07:22:48.000Z</time>
      </trkpt>
      <trkpt lat="49.33965" lon="0.93204">
        <ele>111.2</ele>
        <time>2020-08-18T07:22:53.000Z</time>
      </trkpt>
      <trkpt lat="49.33953" lon="0.93195">
        <ele>109.3</ele>
        <time>2020-08-18T07:22:58.000Z</time>
      </trkpt>
      <trkpt lat="49.33944" lon="0.93178">
        <ele>107.4</ele>
        <time>2020-08-18T07:23:03.000Z</time>
      </trkpt>
      <trkpt lat="49.3394" lon="0.93162">
        <ele>106</ele>
        <time>2020-08-18T07:23:08.000Z</time>
      </trkpt>
      <trkpt lat="49.33937" lon="0.93143">
        <ele>105.2</ele>
        <time>2020-08-18T07:23:13.000Z</time>
      </trkpt>
      <trkpt lat="49.33928" lon="0.93126">
        <ele>104.7</ele>
        <time>2020-08-18T07:23:18.000Z</time>
      </trkpt>
      <trkpt lat="49.33924" lon="0.93118">
        <ele>105.1</ele>
        <time>2020-08-18T07:23:23.000Z</time>
      </trkpt>
      <trkpt lat="49.33924" lon="0.93117">
        <ele>105.3</ele>
        <time>2020-08-18T07:23:36.000Z</time>
      </trkpt>
      <trkpt lat="49.3392" lon="0.93106">
        <ele>106.1</ele>
        <time>2020-08-18T07:23:41.000Z</time>
      </trkpt>
      <trkpt lat="49.33916" lon="0.93088">
        <ele>106.9</ele>
        <time>2020-08-18T07:23:46.000Z</time>
      </trkpt>
      <trkpt lat="49.33912" lon="0.9307">
        <ele>107.2</ele>
        <time>2020-08-18T07:23:51.000Z</time>
      </trkpt>
      <trkpt lat="49.3391" lon="0.93052">
        <ele>108</ele>
        <time>2020-08-18T07:23:56.000Z</time>
      </trkpt>
      <trkpt lat="49.33906" lon="0.93036">
        <ele>109.1</ele>
        <time>2020-08-18T07:24:01.000Z</time>
      </trkpt>
      <trkpt lat="49.33899" lon="0.93018">
        <ele>109.7</ele>
        <time>2020-08-18T07:24:06.000Z</time>
      </trkpt>
      <trkpt lat="49.33901" lon="0.92999">
        <ele>109.4</ele>
        <time>2020-08-18T07:24:11.000Z</time>
      </trkpt>
      <trkpt lat="49.33905" lon="0.92983">
        <ele>110.7</ele>
        <time>2020-08-18T07:24:16.000Z</time>
      </trkpt>
      <trkpt lat="49.33911" lon="0.92967">
        <ele>111.4</ele>
        <time>2020-08-18T07:24:21.000Z</time>
      </trkpt>
      <trkpt lat="49.33909" lon="0.9295">
        <ele>112.1</ele>
        <time>2020-08-18T07:24:26.000Z</time>
      </trkpt>
      <trkpt lat="49.33905" lon="0.92932">
        <ele>113.1</ele>
        <time>2020-08-18T07:24:31.000Z</time>
      </trkpt>
      <trkpt lat="49.33901" lon="0.92917">
        <ele>114.2</ele>
        <time>2020-08-18T07:24:36.000Z</time>
      </trkpt>
      <trkpt lat="49.33893" lon="0.92901">
        <ele>115.5</ele>
        <time>2020-08-18T07:24:41.000Z</time>
      </trkpt>
      <trkpt lat="49.33883" lon="0.92884">
        <ele>116.9</ele>
        <time>2020-08-18T07:24:46.000Z</time>
      </trkpt>
      <trkpt lat="49.33884" lon="0.92864">
        <ele>117.1</ele>
        <time>2020-08-18T07:24:51.000Z</time>
      </trkpt>
      <trkpt lat="49.33881" lon="0.92847">
        <ele>117.9</ele>
        <time>2020-08-18T07:24:56.000Z</time>
      </trkpt>
      <trkpt lat="49.33884" lon="0.92836">
        <ele>118</ele>
        <time>2020-08-18T07:25:01.000Z</time>
      </trkpt>
      <trkpt lat="49.33884" lon="0.92821">
        <ele>117.7</ele>
        <time>2020-08-18T07:25:06.000Z</time>
      </trkpt>
      <trkpt lat="49.33888" lon="0.92807">
        <ele>118.5</ele>
        <time>2020-08-18T07:25:11.000Z</time>
      </trkpt>
      <trkpt lat="49.33897" lon="0.92805">
        <ele>119.1</ele>
        <time>2020-08-18T07:25:16.000Z</time>
      </trkpt>
      <trkpt lat="49.3391" lon="0.9281">
        <ele>119.1</ele>
        <time>2020-08-18T07:25:21.000Z</time>
      </trkpt>
      <trkpt lat="49.3392" lon="0.92803">
        <ele>119.9</ele>
        <time>2020-08-18T07:25:26.000Z</time>
      </trkpt>
      <trkpt lat="49.33919" lon="0.92792">
        <ele>120.6</ele>
        <time>2020-08-18T07:25:31.000Z</time>
      </trkpt>
      <trkpt lat="49.33919" lon="0.9279">
        <ele>120.4</ele>
        <time>2020-08-18T07:25:35.000Z</time>
      </trkpt>
      <trkpt lat="49.33919" lon="0.92789">
        <ele>120.4</ele>
        <time>2020-08-18T07:25:45.000Z</time>
      </trkpt>
      <trkpt lat="49.33919" lon="0.92783">
        <ele>120.7</ele>
        <time>2020-08-18T07:25:50.000Z</time>
      </trkpt>
      <trkpt lat="49.33921" lon="0.92777">
        <ele>121</ele>
        <time>2020-08-18T07:25:55.000Z</time>
      </trkpt>
      <trkpt lat="49.33928" lon="0.92767">
        <ele>120.8</ele>
        <time>2020-08-18T07:26:00.000Z</time>
      </trkpt>
      <trkpt lat="49.33939" lon="0.92751">
        <ele>120.1</ele>
        <time>2020-08-18T07:26:05.000Z</time>
      </trkpt>
      <trkpt lat="49.3395" lon="0.92743">
        <ele>119.9</ele>
        <time>2020-08-18T07:26:10.000Z</time>
      </trkpt>
      <trkpt lat="49.3396" lon="0.92737">
        <ele>120.1</ele>
        <time>2020-08-18T07:26:15.000Z</time>
      </trkpt>
      <trkpt lat="49.33969" lon="0.92721">
        <ele>120</ele>
        <time>2020-08-18T07:26:20.000Z</time>
      </trkpt>
      <trkpt lat="49.3398" lon="0.92712">
        <ele>119.8</ele>
        <time>2020-08-18T07:26:25.000Z</time>
      </trkpt>
      <trkpt lat="49.33989" lon="0.92709">
        <ele>120</ele>
        <time>2020-08-18T07:26:30.000Z</time>
      </trkpt>
      <trkpt lat="49.33997" lon="0.92705">
        <ele>120.2</ele>
        <time>2020-08-18T07:26:35.000Z</time>
      </trkpt>
      <trkpt lat="49.33999" lon="0.92697">
        <ele>120.3</ele>
        <time>2020-08-18T07:26:40.000Z</time>
      </trkpt>
      <trkpt lat="49.34001" lon="0.92684">
        <ele>119.9</ele>
        <time>2020-08-18T07:26:45.000Z</time>
      </trkpt>
      <trkpt lat="49.34" lon="0.92671">
        <ele>120.2</ele>
        <time>2020-08-18T07:26:50.000Z</time>
      </trkpt>
      <trkpt lat="49.34002" lon="0.92654">
        <ele>121.6</ele>
        <time>2020-08-18T07:26:55.000Z</time>
      </trkpt>
      <trkpt lat="49.34007" lon="0.92644">
        <ele>122.2</ele>
        <time>2020-08-18T07:27:00.000Z</time>
      </trkpt>
      <trkpt lat="49.34014" lon="0.92636">
        <ele>122.4</ele>
        <time>2020-08-18T07:27:05.000Z</time>
      </trkpt>
      <trkpt lat="49.34024" lon="0.92634">
        <ele>122.4</ele>
        <time>2020-08-18T07:27:10.000Z</time>
      </trkpt>
      <trkpt lat="49.34034" lon="0.92633">
        <ele>122.1</ele>
        <time>2020-08-18T07:27:15.000Z</time>
      </trkpt>
      <trkpt lat="49.34045" lon="0.92623">
        <ele>121.7</ele>
        <time>2020-08-18T07:27:20.000Z</time>
      </trkpt>
      <trkpt lat="49.34047" lon="0.92622">
        <ele>121.9</ele>
        <time>2020-08-18T07:27:25.000Z</time>
      </trkpt>
      <trkpt lat="49.34062" lon="0.92625">
        <ele>118.1</ele>
        <time>2020-08-18T07:36:07.000Z</time>
      </trkpt>
      <trkpt lat="49.34064" lon="0.92604">
        <ele>118.7</ele>
        <time>2020-08-18T07:36:12.000Z</time>
      </trkpt>
      <trkpt lat="49.34059" lon="0.92577">
        <ele>118.9</ele>
        <time>2020-08-18T07:36:17.000Z</time>
      </trkpt>
      <trkpt lat="49.34051" lon="0.92553">
        <ele>118.7</ele>
        <time>2020-08-18T07:36:22.000Z</time>
      </trkpt>
      <trkpt lat="49.34043" lon="0.92532">
        <ele>118.5</ele>
        <time>2020-08-18T07:36:27.000Z</time>
      </trkpt>
      <trkpt lat="49.34027" lon="0.92509">
        <ele>118.6</ele>
        <time>2020-08-18T07:36:32.000Z</time>
      </trkpt>
      <trkpt lat="49.34008" lon="0.92483">
        <ele>118.5</ele>
        <time>2020-08-18T07:36:37.000Z</time>
      </trkpt>
      <trkpt lat="49.33991" lon="0.92453">
        <ele>118.3</ele>
        <time>2020-08-18T07:36:42.000Z</time>
      </trkpt>
      <trkpt lat="49.33975" lon="0.9243">
        <ele>117.1</ele>
        <time>2020-08-18T07:36:47.000Z</time>
      </trkpt>
      <trkpt lat="49.33956" lon="0.92412">
        <ele>116.3</ele>
        <time>2020-08-18T07:36:52.000Z</time>
      </trkpt>
      <trkpt lat="49.33938" lon="0.92394">
        <ele>116.1</ele>
        <time>2020-08-18T07:36:57.000Z</time>
      </trkpt>
      <trkpt lat="49.33921" lon="0.9237">
        <ele>115.9</ele>
        <time>2020-08-18T07:37:02.000Z</time>
      </trkpt>
      <trkpt lat="49.33912" lon="0.92345">
        <ele>115.5</ele>
        <time>2020-08-18T07:37:07.000Z</time>
      </trkpt>
      <trkpt lat="49.33904" lon="0.92316">
        <ele>114.9</ele>
        <time>2020-08-18T07:37:12.000Z</time>
      </trkpt>
      <trkpt lat="49.33892" lon="0.92284">
        <ele>113.9</ele>
        <time>2020-08-18T07:37:17.000Z</time>
      </trkpt>
      <trkpt lat="49.33882" lon="0.92261">
        <ele>113.5</ele>
        <time>2020-08-18T07:37:22.000Z</time>
      </trkpt>
      <trkpt lat="49.33877" lon="0.9224">
        <ele>112.8</ele>
        <time>2020-08-18T07:37:27.000Z</time>
      </trkpt>
      <trkpt lat="49.33866" lon="0.92217">
        <ele>112.4</ele>
        <time>2020-08-18T07:37:32.000Z</time>
      </trkpt>
      <trkpt lat="49.33861" lon="0.92197">
        <ele>111.7</ele>
        <time>2020-08-18T07:37:37.000Z</time>
      </trkpt>
      <trkpt lat="49.33855" lon="0.9218">
        <ele>111.3</ele>
        <time>2020-08-18T07:37:42.000Z</time>
      </trkpt>
      <trkpt lat="49.33847" lon="0.92166">
        <ele>110.4</ele>
        <time>2020-08-18T07:37:47.000Z</time>
      </trkpt>
      <trkpt lat="49.33833" lon="0.92153">
        <ele>109.4</ele>
        <time>2020-08-18T07:37:52.000Z</time>
      </trkpt>
      <trkpt lat="49.33821" lon="0.92139">
        <ele>108.4</ele>
        <time>2020-08-18T07:37:57.000Z</time>
      </trkpt>
      <trkpt lat="49.33807" lon="0.92127">
        <ele>107.6</ele>
        <time>2020-08-18T07:38:02.000Z</time>
      </trkpt>
      <trkpt lat="49.33789" lon="0.92111">
        <ele>107.1</ele>
        <time>2020-08-18T07:38:07.000Z</time>
      </trkpt>
      <trkpt lat="49.33771" lon="0.92098">
        <ele>106</ele>
        <time>2020-08-18T07:38:12.000Z</time>
      </trkpt>
      <trkpt lat="49.33758" lon="0.92094">
        <ele>105.4</ele>
        <time>2020-08-18T07:38:17.000Z</time>
      </trkpt>
      <trkpt lat="49.33739" lon="0.92092">
        <ele>102.1</ele>
        <time>2020-08-18T07:38:22.000Z</time>
      </trkpt>
      <trkpt lat="49.33723" lon="0.9208">
        <ele>101.2</ele>
        <time>2020-08-18T07:38:27.000Z</time>
      </trkpt>
      <trkpt lat="49.33703" lon="0.92068">
        <ele>99.6</ele>
        <time>2020-08-18T07:38:32.000Z</time>
      </trkpt>
      <trkpt lat="49.33683" lon="0.92062">
        <ele>98.2</ele>
        <time>2020-08-18T07:38:37.000Z</time>
      </trkpt>
      <trkpt lat="49.33665" lon="0.92062">
        <ele>97</ele>
        <time>2020-08-18T07:38:42.000Z</time>
      </trkpt>
      <trkpt lat="49.3365" lon="0.92062">
        <ele>96.3</ele>
        <time>2020-08-18T07:38:47.000Z</time>
      </trkpt>
      <trkpt lat="49.33635" lon="0.9206">
        <ele>95.7</ele>
        <time>2020-08-18T07:38:52.000Z</time>
      </trkpt>
      <trkpt lat="49.3362" lon="0.92059">
        <ele>94.6</ele>
        <time>2020-08-18T07:38:57.000Z</time>
      </trkpt>
      <trkpt lat="49.33605" lon="0.92059">
        <ele>91.3</ele>
        <time>2020-08-18T07:39:02.000Z</time>
      </trkpt>
      <trkpt lat="49.33589" lon="0.92061">
        <ele>89.6</ele>
        <time>2020-08-18T07:39:07.000Z</time>
      </trkpt>
      <trkpt lat="49.33578" lon="0.92075">
        <ele>84.3</ele>
        <time>2020-08-18T07:39:12.000Z</time>
      </trkpt>
      <trkpt lat="49.3357" lon="0.92097">
        <ele>81.3</ele>
        <time>2020-08-18T07:39:17.000Z</time>
      </trkpt>
      <trkpt lat="49.33561" lon="0.92116">
        <ele>78.4</ele>
        <time>2020-08-18T07:39:22.000Z</time>
      </trkpt>
      <trkpt lat="49.33548" lon="0.92134">
        <ele>77.1</ele>
        <time>2020-08-18T07:39:27.000Z</time>
      </trkpt>
      <trkpt lat="49.33536" lon="0.9215">
        <ele>75.7</ele>
        <time>2020-08-18T07:39:32.000Z</time>
      </trkpt>
      <trkpt lat="49.33524" lon="0.92164">
        <ele>73.7</ele>
        <time>2020-08-18T07:39:37.000Z</time>
      </trkpt>
      <trkpt lat="49.33508" lon="0.92174">
        <ele>71.7</ele>
        <time>2020-08-18T07:39:42.000Z</time>
      </trkpt>
      <trkpt lat="49.33499" lon="0.92186">
        <ele>71.1</ele>
        <time>2020-08-18T07:39:47.000Z</time>
      </trkpt>
      <trkpt lat="49.33489" lon="0.9219">
        <ele>69.6</ele>
        <time>2020-08-18T07:39:52.000Z</time>
      </trkpt>
      <trkpt lat="49.33484" lon="0.92178">
        <ele>67.4</ele>
        <time>2020-08-18T07:39:57.000Z</time>
      </trkpt>
      <trkpt lat="49.33478" lon="0.92161">
        <ele>67</ele>
        <time>2020-08-18T07:40:02.000Z</time>
      </trkpt>
      <trkpt lat="49.33466" lon="0.9214">
        <ele>66.8</ele>
        <time>2020-08-18T07:40:07.000Z</time>
      </trkpt>
      <trkpt lat="49.33456" lon="0.92114">
        <ele>67.1</ele>
        <time>2020-08-18T07:40:12.000Z</time>
      </trkpt>
      <trkpt lat="49.33458" lon="0.92075">
        <ele>64.2</ele>
        <time>2020-08-18T07:40:17.000Z</time>
      </trkpt>
      <trkpt lat="49.33462" lon="0.92045">
        <ele>63.6</ele>
        <time>2020-08-18T07:40:22.000Z</time>
      </trkpt>
      <trkpt lat="49.33469" lon="0.9202">
        <ele>63.7</ele>
        <time>2020-08-18T07:40:27.000Z</time>
      </trkpt>
      <trkpt lat="49.33474" lon="0.91996">
        <ele>63.5</ele>
        <time>2020-08-18T07:40:32.000Z</time>
      </trkpt>
      <trkpt lat="49.33471" lon="0.9198">
        <ele>63.3</ele>
        <time>2020-08-18T07:40:37.000Z</time>
      </trkpt>
      <trkpt lat="49.33458" lon="0.91966">
        <ele>63.1</ele>
        <time>2020-08-18T07:40:42.000Z</time>
      </trkpt>
      <trkpt lat="49.33446" lon="0.91953">
        <ele>63.6</ele>
        <time>2020-08-18T07:40:47.000Z</time>
      </trkpt>
      <trkpt lat="49.33442" lon="0.91939">
        <ele>64.9</ele>
        <time>2020-08-18T07:40:52.000Z</time>
      </trkpt>
      <trkpt lat="49.33439" lon="0.91921">
        <ele>65.3</ele>
        <time>2020-08-18T07:40:57.000Z</time>
      </trkpt>
      <trkpt lat="49.33433" lon="0.91907">
        <ele>64.9</ele>
        <time>2020-08-18T07:41:02.000Z</time>
      </trkpt>
      <trkpt lat="49.33432" lon="0.919">
        <ele>63.2</ele>
        <time>2020-08-18T07:41:07.000Z</time>
      </trkpt>
      <trkpt lat="49.33432" lon="0.91899">
        <ele>62.5</ele>
        <time>2020-08-18T07:41:10.000Z</time>
      </trkpt>
      <trkpt lat="49.33433" lon="0.91888">
        <ele>61.7</ele>
        <time>2020-08-18T07:41:16.000Z</time>
      </trkpt>
      <trkpt lat="49.33436" lon="0.91872">
        <ele>61.3</ele>
        <time>2020-08-18T07:41:21.000Z</time>
      </trkpt>
      <trkpt lat="49.3344" lon="0.91856">
        <ele>60.6</ele>
        <time>2020-08-18T07:41:26.000Z</time>
      </trkpt>
      <trkpt lat="49.33447" lon="0.9185">
        <ele>61.2</ele>
        <time>2020-08-18T07:41:31.000Z</time>
      </trkpt>
      <trkpt lat="49.33461" lon="0.91844">
        <ele>62.1</ele>
        <time>2020-08-18T07:41:36.000Z</time>
      </trkpt>
      <trkpt lat="49.33475" lon="0.91836">
        <ele>62.5</ele>
        <time>2020-08-18T07:41:41.000Z</time>
      </trkpt>
      <trkpt lat="49.33485" lon="0.91827">
        <ele>62.8</ele>
        <time>2020-08-18T07:41:46.000Z</time>
      </trkpt>
      <trkpt lat="49.33493" lon="0.91817">
        <ele>62.8</ele>
        <time>2020-08-18T07:41:51.000Z</time>
      </trkpt>
      <trkpt lat="49.33495" lon="0.91812">
        <ele>63.1</ele>
        <time>2020-08-18T07:41:56.000Z</time>
      </trkpt>
      <trkpt lat="49.33501" lon="0.91803">
        <ele>62.6</ele>
        <time>2020-08-18T07:42:01.000Z</time>
      </trkpt>
      <trkpt lat="49.33503" lon="0.91788">
        <ele>62.5</ele>
        <time>2020-08-18T07:42:06.000Z</time>
      </trkpt>
      <trkpt lat="49.33505" lon="0.91769">
        <ele>62.4</ele>
        <time>2020-08-18T07:42:11.000Z</time>
      </trkpt>
      <trkpt lat="49.3351" lon="0.91747">
        <ele>61.8</ele>
        <time>2020-08-18T07:42:16.000Z</time>
      </trkpt>
      <trkpt lat="49.33514" lon="0.91728">
        <ele>61.4</ele>
        <time>2020-08-18T07:42:21.000Z</time>
      </trkpt>
      <trkpt lat="49.33521" lon="0.91719">
        <ele>61.3</ele>
        <time>2020-08-18T07:42:26.000Z</time>
      </trkpt>
      <trkpt lat="49.33525" lon="0.91732">
        <ele>61.2</ele>
        <time>2020-08-18T07:42:31.000Z</time>
      </trkpt>
      <trkpt lat="49.33528" lon="0.91752">
        <ele>60.8</ele>
        <time>2020-08-18T07:42:36.000Z</time>
      </trkpt>
      <trkpt lat="49.33529" lon="0.91773">
        <ele>61.3</ele>
        <time>2020-08-18T07:42:41.000Z</time>
      </trkpt>
      <trkpt lat="49.33529" lon="0.91795">
        <ele>61.5</ele>
        <time>2020-08-18T07:42:46.000Z</time>
      </trkpt>
      <trkpt lat="49.33531" lon="0.91815">
        <ele>61.5</ele>
        <time>2020-08-18T07:42:51.000Z</time>
      </trkpt>
      <trkpt lat="49.33536" lon="0.91827">
        <ele>61.7</ele>
        <time>2020-08-18T07:42:56.000Z</time>
      </trkpt>
      <trkpt lat="49.33542" lon="0.91811">
        <ele>61.6</ele>
        <time>2020-08-18T07:43:01.000Z</time>
      </trkpt>
      <trkpt lat="49.33547" lon="0.91793">
        <ele>62</ele>
        <time>2020-08-18T07:43:06.000Z</time>
      </trkpt>
      <trkpt lat="49.3355" lon="0.91776">
        <ele>62.9</ele>
        <time>2020-08-18T07:43:11.000Z</time>
      </trkpt>
      <trkpt lat="49.33554" lon="0.91761">
        <ele>64.2</ele>
        <time>2020-08-18T07:43:16.000Z</time>
      </trkpt>
      <trkpt lat="49.33558" lon="0.91744">
        <ele>64.2</ele>
        <time>2020-08-18T07:43:21.000Z</time>
      </trkpt>
      <trkpt lat="49.33564" lon="0.91728">
        <ele>65.3</ele>
        <time>2020-08-18T07:43:26.000Z</time>
      </trkpt>
      <trkpt lat="49.3357" lon="0.91708">
        <ele>66</ele>
        <time>2020-08-18T07:43:31.000Z</time>
      </trkpt>
      <trkpt lat="49.33574" lon="0.91691">
        <ele>67.1</ele>
        <time>2020-08-18T07:43:36.000Z</time>
      </trkpt>
      <trkpt lat="49.33577" lon="0.91674">
        <ele>67.8</ele>
        <time>2020-08-18T07:43:41.000Z</time>
      </trkpt>
      <trkpt lat="49.33579" lon="0.91658">
        <ele>68.6</ele>
        <time>2020-08-18T07:43:46.000Z</time>
      </trkpt>
      <trkpt lat="49.33581" lon="0.9164">
        <ele>69.5</ele>
        <time>2020-08-18T07:43:51.000Z</time>
      </trkpt>
      <trkpt lat="49.33584" lon="0.91618">
        <ele>70.1</ele>
        <time>2020-08-18T07:43:56.000Z</time>
      </trkpt>
      <trkpt lat="49.33588" lon="0.91598">
        <ele>71.1</ele>
        <time>2020-08-18T07:44:01.000Z</time>
      </trkpt>
      <trkpt lat="49.33595" lon="0.91579">
        <ele>72.9</ele>
        <time>2020-08-18T07:44:06.000Z</time>
      </trkpt>
      <trkpt lat="49.33604" lon="0.91562">
        <ele>73.9</ele>
        <time>2020-08-18T07:44:11.000Z</time>
      </trkpt>
      <trkpt lat="49.33613" lon="0.91547">
        <ele>75</ele>
        <time>2020-08-18T07:44:16.000Z</time>
      </trkpt>
      <trkpt lat="49.33623" lon="0.91535">
        <ele>75.4</ele>
        <time>2020-08-18T07:44:21.000Z</time>
      </trkpt>
      <trkpt lat="49.33634" lon="0.91522">
        <ele>76.6</ele>
        <time>2020-08-18T07:44:26.000Z</time>
      </trkpt>
      <trkpt lat="49.33646" lon="0.91512">
        <ele>77.3</ele>
        <time>2020-08-18T07:44:31.000Z</time>
      </trkpt>
      <trkpt lat="49.33657" lon="0.91503">
        <ele>78.2</ele>
        <time>2020-08-18T07:44:36.000Z</time>
      </trkpt>
      <trkpt lat="49.33668" lon="0.91495">
        <ele>79.8</ele>
        <time>2020-08-18T07:44:41.000Z</time>
      </trkpt>
      <trkpt lat="49.33679" lon="0.9149">
        <ele>82.4</ele>
        <time>2020-08-18T07:44:46.000Z</time>
      </trkpt>
      <trkpt lat="49.3369" lon="0.91482">
        <ele>84.4</ele>
        <time>2020-08-18T07:44:51.000Z</time>
      </trkpt>
      <trkpt lat="49.337" lon="0.91476">
        <ele>86.4</ele>
        <time>2020-08-18T07:44:56.000Z</time>
      </trkpt>
      <trkpt lat="49.33711" lon="0.91471">
        <ele>87.8</ele>
        <time>2020-08-18T07:45:01.000Z</time>
      </trkpt>
      <trkpt lat="49.33722" lon="0.91465">
        <ele>89.4</ele>
        <time>2020-08-18T07:45:06.000Z</time>
      </trkpt>
      <trkpt lat="49.33733" lon="0.91459">
        <ele>91.1</ele>
        <time>2020-08-18T07:45:11.000Z</time>
      </trkpt>
      <trkpt lat="49.33743" lon="0.91452">
        <ele>91.5</ele>
        <time>2020-08-18T07:45:16.000Z</time>
      </trkpt>
      <trkpt lat="49.33753" lon="0.91446">
        <ele>92</ele>
        <time>2020-08-18T07:45:21.000Z</time>
      </trkpt>
      <trkpt lat="49.33763" lon="0.9144">
        <ele>92.2</ele>
        <time>2020-08-18T07:45:26.000Z</time>
      </trkpt>
      <trkpt lat="49.33773" lon="0.91433">
        <ele>92.6</ele>
        <time>2020-08-18T07:45:31.000Z</time>
      </trkpt>
      <trkpt lat="49.33783" lon="0.91425">
        <ele>93.1</ele>
        <time>2020-08-18T07:45:36.000Z</time>
      </trkpt>
      <trkpt lat="49.33793" lon="0.91416">
        <ele>93.7</ele>
        <time>2020-08-18T07:45:41.000Z</time>
      </trkpt>
      <trkpt lat="49.33803" lon="0.91409">
        <ele>93.9</ele>
        <time>2020-08-18T07:45:46.000Z</time>
      </trkpt>
      <trkpt lat="49.33813" lon="0.91399">
        <ele>94.3</ele>
        <time>2020-08-18T07:45:51.000Z</time>
      </trkpt>
      <trkpt lat="49.33822" lon="0.9139">
        <ele>94.7</ele>
        <time>2020-08-18T07:45:56.000Z</time>
      </trkpt>
      <trkpt lat="49.33832" lon="0.91379">
        <ele>95.1</ele>
        <time>2020-08-18T07:46:01.000Z</time>
      </trkpt>
      <trkpt lat="49.33842" lon="0.91369">
        <ele>96</ele>
        <time>2020-08-18T07:46:06.000Z</time>
      </trkpt>
      <trkpt lat="49.33851" lon="0.91357">
        <ele>97.4</ele>
        <time>2020-08-18T07:46:11.000Z</time>
      </trkpt>
      <trkpt lat="49.33858" lon="0.91345">
        <ele>98.1</ele>
        <time>2020-08-18T07:46:16.000Z</time>
      </trkpt>
      <trkpt lat="49.33866" lon="0.91334">
        <ele>98.9</ele>
        <time>2020-08-18T07:46:21.000Z</time>
      </trkpt>
      <trkpt lat="49.33873" lon="0.91323">
        <ele>99.8</ele>
        <time>2020-08-18T07:46:26.000Z</time>
      </trkpt>
      <trkpt lat="49.33879" lon="0.91311">
        <ele>100.6</ele>
        <time>2020-08-18T07:46:31.000Z</time>
      </trkpt>
      <trkpt lat="49.3388" lon="0.91307">
        <ele>101.3</ele>
        <time>2020-08-18T07:46:36.000Z</time>
      </trkpt>
      <trkpt lat="49.3388" lon="0.91308">
        <ele>100.6</ele>
        <time>2020-08-18T07:46:44.000Z</time>
      </trkpt>
      <trkpt lat="49.33885" lon="0.91315">
        <ele>97.3</ele>
        <time>2020-08-18T07:54:27.000Z</time>
      </trkpt>
      <trkpt lat="49.33885" lon="0.91314">
        <ele>97.5</ele>
        <time>2020-08-18T07:55:12.000Z</time>
      </trkpt>
      <trkpt lat="49.3389" lon="0.91307">
        <ele>97.7</ele>
        <time>2020-08-18T07:55:17.000Z</time>
      </trkpt>
      <trkpt lat="49.33896" lon="0.91297">
        <ele>98.4</ele>
        <time>2020-08-18T07:55:22.000Z</time>
      </trkpt>
      <trkpt lat="49.33929" lon="0.91206">
        <ele>106.1</ele>
        <time>2020-08-18T07:58:28.000Z</time>
      </trkpt>
      <trkpt lat="49.33927" lon="0.91194">
        <ele>116.9</ele>
        <time>2020-08-18T08:17:03.000Z</time>
      </trkpt>
      <trkpt lat="49.33925" lon="0.91186">
        <ele>103</ele>
        <time>2020-08-18T08:17:08.000Z</time>
      </trkpt>
      <trkpt lat="49.33922" lon="0.91184">
        <ele>102.7</ele>
        <time>2020-08-18T08:17:13.000Z</time>
      </trkpt>
      <trkpt lat="49.33919" lon="0.91183">
        <ele>102.3</ele>
        <time>2020-08-18T08:17:18.000Z</time>
      </trkpt>
      <trkpt lat="49.33916" lon="0.91185">
        <ele>101.4</ele>
        <time>2020-08-18T08:17:23.000Z</time>
      </trkpt>
      <trkpt lat="49.33913" lon="0.91186">
        <ele>100.7</ele>
        <time>2020-08-18T08:17:28.000Z</time>
      </trkpt>
      <trkpt lat="49.33912" lon="0.91187">
        <ele>100.9</ele>
        <time>2020-08-18T08:17:33.000Z</time>
      </trkpt>
      <trkpt lat="49.33911" lon="0.91187">
        <ele>101</ele>
        <time>2020-08-18T08:17:35.000Z</time>
      </trkpt>
      <trkpt lat="49.33911" lon="0.91186">
        <ele>101</ele>
        <time>2020-08-18T08:17:40.000Z</time>
      </trkpt>
      <trkpt lat="49.33911" lon="0.91181">
        <ele>100.3</ele>
        <time>2020-08-18T08:17:45.000Z</time>
      </trkpt>
      <trkpt lat="49.33912" lon="0.91177">
        <ele>99.4</ele>
        <time>2020-08-18T08:17:50.000Z</time>
      </trkpt>
      <trkpt lat="49.33911" lon="0.91176">
        <ele>99.2</ele>
        <time>2020-08-18T08:17:52.000Z</time>
      </trkpt>
      <trkpt lat="49.33913" lon="0.9117">
        <ele>96.3</ele>
        <time>2020-08-18T08:24:46.000Z</time>
      </trkpt>
      <trkpt lat="49.33913" lon="0.91169">
        <ele>96.2</ele>
        <time>2020-08-18T08:24:56.000Z</time>
      </trkpt>
      <trkpt lat="49.33914" lon="0.91167">
        <ele>96.1</ele>
        <time>2020-08-18T08:25:03.000Z</time>
      </trkpt>
      <trkpt lat="49.33917" lon="0.91159">
        <ele>96.2</ele>
        <time>2020-08-18T08:25:08.000Z</time>
      </trkpt>
      <trkpt lat="49.33921" lon="0.9115">
        <ele>95.8</ele>
        <time>2020-08-18T08:25:13.000Z</time>
      </trkpt>
      <trkpt lat="49.33923" lon="0.91143">
        <ele>95.6</ele>
        <time>2020-08-18T08:25:18.000Z</time>
      </trkpt>
      <trkpt lat="49.33924" lon="0.91136">
        <ele>95.1</ele>
        <time>2020-08-18T08:25:23.000Z</time>
      </trkpt>
      <trkpt lat="49.33925" lon="0.91125">
        <ele>94.8</ele>
        <time>2020-08-18T08:25:28.000Z</time>
      </trkpt>
      <trkpt lat="49.33925" lon="0.91124">
        <ele>94.9</ele>
        <time>2020-08-18T08:25:30.000Z</time>
      </trkpt>
      <trkpt lat="49.33925" lon="0.91123">
        <ele>94.8</ele>
        <time>2020-08-18T08:25:35.000Z</time>
      </trkpt>
      <trkpt lat="49.33924" lon="0.91123">
        <ele>94.8</ele>
        <time>2020-08-18T08:25:41.000Z</time>
      </trkpt>
      <trkpt lat="49.33923" lon="0.91117">
        <ele>94.6</ele>
        <time>2020-08-18T08:25:46.000Z</time>
      </trkpt>
      <trkpt lat="49.33923" lon="0.91115">
        <ele>94.2</ele>
        <time>2020-08-18T08:25:59.000Z</time>
      </trkpt>
      <trkpt lat="49.33922" lon="0.91109">
        <ele>93</ele>
        <time>2020-08-18T08:26:04.000Z</time>
      </trkpt>
      <trkpt lat="49.3392" lon="0.91106">
        <ele>92.2</ele>
        <time>2020-08-18T08:26:09.000Z</time>
      </trkpt>
      <trkpt lat="49.33918" lon="0.91102">
        <ele>92.8</ele>
        <time>2020-08-18T08:26:14.000Z</time>
      </trkpt>
      <trkpt lat="49.33916" lon="0.91102">
        <ele>92.6</ele>
        <time>2020-08-18T08:26:19.000Z</time>
      </trkpt>
      <trkpt lat="49.33916" lon="0.91103">
        <ele>92.9</ele>
        <time>2020-08-18T08:26:22.000Z</time>
      </trkpt>
      <trkpt lat="49.33914" lon="0.91103">
        <ele>93.1</ele>
        <time>2020-08-18T08:26:27.000Z</time>
      </trkpt>
      <trkpt lat="49.33915" lon="0.91103">
        <ele>93.1</ele>
        <time>2020-08-18T08:26:28.000Z</time>
      </trkpt>
      <trkpt lat="49.33914" lon="0.91103">
        <ele>93.1</ele>
        <time>2020-08-18T08:26:33.000Z</time>
      </trkpt>
      <trkpt lat="49.33914" lon="0.9111">
        <ele>92.9</ele>
        <time>2020-08-18T08:26:38.000Z</time>
      </trkpt>
      <trkpt lat="49.33912" lon="0.91121">
        <ele>92.7</ele>
        <time>2020-08-18T08:26:43.000Z</time>
      </trkpt>
      <trkpt lat="49.33911" lon="0.91123">
        <ele>92.6</ele>
        <time>2020-08-18T08:26:48.000Z</time>
      </trkpt>
      <trkpt lat="49.33911" lon="0.91124">
        <ele>92.7</ele>
        <time>2020-08-18T08:26:52.000Z</time>
      </trkpt>
      <trkpt lat="49.3391" lon="0.91133">
        <ele>92</ele>
        <time>2020-08-18T08:27:01.000Z</time>
      </trkpt>
      <trkpt lat="49.33906" lon="0.91146">
        <ele>92</ele>
        <time>2020-08-18T08:27:06.000Z</time>
      </trkpt>
      <trkpt lat="49.339" lon="0.91171">
        <ele>90.7</ele>
        <time>2020-08-18T08:27:11.000Z</time>
      </trkpt>
      <trkpt lat="49.33892" lon="0.91192">
        <ele>89.5</ele>
        <time>2020-08-18T08:27:16.000Z</time>
      </trkpt>
      <trkpt lat="49.33888" lon="0.91196">
        <ele>88.8</ele>
        <time>2020-08-18T08:27:21.000Z</time>
      </trkpt>
      <trkpt lat="49.33885" lon="0.91202">
        <ele>88.4</ele>
        <time>2020-08-18T08:27:26.000Z</time>
      </trkpt>
      <trkpt lat="49.33886" lon="0.91206">
        <ele>88.1</ele>
        <time>2020-08-18T08:27:31.000Z</time>
      </trkpt>
      <trkpt lat="49.33889" lon="0.9121">
        <ele>88.3</ele>
        <time>2020-08-18T08:27:36.000Z</time>
      </trkpt>
      <trkpt lat="49.33884" lon="0.9121">
        <ele>88.3</ele>
        <time>2020-08-18T08:27:41.000Z</time>
      </trkpt>
      <trkpt lat="49.33883" lon="0.91211">
        <ele>88.2</ele>
        <time>2020-08-18T08:27:46.000Z</time>
      </trkpt>
      <trkpt lat="49.33881" lon="0.91211">
        <ele>88.2</ele>
        <time>2020-08-18T08:27:51.000Z</time>
      </trkpt>
      <trkpt lat="49.33875" lon="0.91208">
        <ele>88</ele>
        <time>2020-08-18T08:27:56.000Z</time>
      </trkpt>
      <trkpt lat="49.33864" lon="0.91215">
        <ele>86.7</ele>
        <time>2020-08-18T08:28:01.000Z</time>
      </trkpt>
      <trkpt lat="49.33859" lon="0.91225">
        <ele>84.6</ele>
        <time>2020-08-18T08:28:06.000Z</time>
      </trkpt>
      <trkpt lat="49.33859" lon="0.91231">
        <ele>83.1</ele>
        <time>2020-08-18T08:28:11.000Z</time>
      </trkpt>
      <trkpt lat="49.33859" lon="0.91232">
        <ele>82.7</ele>
        <time>2020-08-18T08:28:17.000Z</time>
      </trkpt>
      <trkpt lat="49.3386" lon="0.91234">
        <ele>82.2</ele>
        <time>2020-08-18T08:28:22.000Z</time>
      </trkpt>
      <trkpt lat="49.3386" lon="0.91235">
        <ele>81.6</ele>
        <time>2020-08-18T08:28:31.000Z</time>
      </trkpt>
      <trkpt lat="49.33859" lon="0.91235">
        <ele>81.6</ele>
        <time>2020-08-18T08:28:32.000Z</time>
      </trkpt>
      <trkpt lat="49.33858" lon="0.91236">
        <ele>81.2</ele>
        <time>2020-08-18T08:29:12.000Z</time>
      </trkpt>
      <trkpt lat="49.33858" lon="0.91235">
        <ele>80.9</ele>
        <time>2020-08-18T08:29:14.000Z</time>
      </trkpt>
      <trkpt lat="49.33857" lon="0.91237">
        <ele>80.3</ele>
        <time>2020-08-18T08:29:22.000Z</time>
      </trkpt>
      <trkpt lat="49.33857" lon="0.91235">
        <ele>80.5</ele>
        <time>2020-08-18T08:29:27.000Z</time>
      </trkpt>
      <trkpt lat="49.33854" lon="0.91238">
        <ele>80</ele>
        <time>2020-08-18T08:29:32.000Z</time>
      </trkpt>
      <trkpt lat="49.33849" lon="0.91238">
        <ele>79.9</ele>
        <time>2020-08-18T08:29:37.000Z</time>
      </trkpt>
      <trkpt lat="49.33841" lon="0.91242">
        <ele>79.4</ele>
        <time>2020-08-18T08:29:42.000Z</time>
      </trkpt>
      <trkpt lat="49.33833" lon="0.91249">
        <ele>78.9</ele>
        <time>2020-08-18T08:29:47.000Z</time>
      </trkpt>
      <trkpt lat="49.3383" lon="0.91261">
        <ele>77.9</ele>
        <time>2020-08-18T08:29:52.000Z</time>
      </trkpt>
      <trkpt lat="49.3383" lon="0.91265">
        <ele>77.5</ele>
        <time>2020-08-18T08:29:57.000Z</time>
      </trkpt>
      <trkpt lat="49.33828" lon="0.91272">
        <ele>77</ele>
        <time>2020-08-18T08:30:02.000Z</time>
      </trkpt>
      <trkpt lat="49.33819" lon="0.91282">
        <ele>75.9</ele>
        <time>2020-08-18T08:30:07.000Z</time>
      </trkpt>
      <trkpt lat="49.33813" lon="0.91293">
        <ele>75.2</ele>
        <time>2020-08-18T08:30:12.000Z</time>
      </trkpt>
      <trkpt lat="49.33807" lon="0.91303">
        <ele>74.6</ele>
        <time>2020-08-18T08:30:17.000Z</time>
      </trkpt>
      <trkpt lat="49.33804" lon="0.91314">
        <ele>73.9</ele>
        <time>2020-08-18T08:30:22.000Z</time>
      </trkpt>
      <trkpt lat="49.33795" lon="0.91326">
        <ele>72.6</ele>
        <time>2020-08-18T08:30:27.000Z</time>
      </trkpt>
      <trkpt lat="49.3379" lon="0.91334">
        <ele>72.1</ele>
        <time>2020-08-18T08:30:32.000Z</time>
      </trkpt>
      <trkpt lat="49.33784" lon="0.91345">
        <ele>72.7</ele>
        <time>2020-08-18T08:30:37.000Z</time>
      </trkpt>
      <trkpt lat="49.33779" lon="0.91355">
        <ele>71.9</ele>
        <time>2020-08-18T08:30:42.000Z</time>
      </trkpt>
      <trkpt lat="49.33773" lon="0.91368">
        <ele>71.9</ele>
        <time>2020-08-18T08:30:47.000Z</time>
      </trkpt>
      <trkpt lat="49.33768" lon="0.91377">
        <ele>72.1</ele>
        <time>2020-08-18T08:30:52.000Z</time>
      </trkpt>
      <trkpt lat="49.33755" lon="0.91387">
        <ele>72.4</ele>
        <time>2020-08-18T08:30:57.000Z</time>
      </trkpt>
      <trkpt lat="49.33741" lon="0.91395">
        <ele>72.5</ele>
        <time>2020-08-18T08:31:02.000Z</time>
      </trkpt>
      <trkpt lat="49.33738" lon="0.91405">
        <ele>73.2</ele>
        <time>2020-08-18T08:31:07.000Z</time>
      </trkpt>
      <trkpt lat="49.33732" lon="0.91418">
        <ele>73.6</ele>
        <time>2020-08-18T08:31:12.000Z</time>
      </trkpt>
      <trkpt lat="49.33725" lon="0.9143">
        <ele>73.5</ele>
        <time>2020-08-18T08:31:17.000Z</time>
      </trkpt>
      <trkpt lat="49.33715" lon="0.91442">
        <ele>74.2</ele>
        <time>2020-08-18T08:31:22.000Z</time>
      </trkpt>
      <trkpt lat="49.33703" lon="0.91447">
        <ele>74.1</ele>
        <time>2020-08-18T08:31:27.000Z</time>
      </trkpt>
      <trkpt lat="49.33702" lon="0.91448">
        <ele>74.1</ele>
        <time>2020-08-18T08:31:31.000Z</time>
      </trkpt>
      <trkpt lat="49.33702" lon="0.91449">
        <ele>74.2</ele>
        <time>2020-08-18T08:31:32.000Z</time>
      </trkpt>
      <trkpt lat="49.33696" lon="0.91451">
        <ele>73.7</ele>
        <time>2020-08-18T08:31:37.000Z</time>
      </trkpt>
      <trkpt lat="49.33687" lon="0.91453">
        <ele>73.5</ele>
        <time>2020-08-18T08:31:42.000Z</time>
      </trkpt>
      <trkpt lat="49.33677" lon="0.91456">
        <ele>73</ele>
        <time>2020-08-18T08:31:47.000Z</time>
      </trkpt>
      <trkpt lat="49.33674" lon="0.9146">
        <ele>72.3</ele>
        <time>2020-08-18T08:31:52.000Z</time>
      </trkpt>
      <trkpt lat="49.33665" lon="0.91466">
        <ele>71.8</ele>
        <time>2020-08-18T08:31:57.000Z</time>
      </trkpt>
      <trkpt lat="49.33652" lon="0.91477">
        <ele>70.2</ele>
        <time>2020-08-18T08:32:02.000Z</time>
      </trkpt>
      <trkpt lat="49.33639" lon="0.91487">
        <ele>69.9</ele>
        <time>2020-08-18T08:32:07.000Z</time>
      </trkpt>
      <trkpt lat="49.33633" lon="0.91495">
        <ele>70</ele>
        <time>2020-08-18T08:32:12.000Z</time>
      </trkpt>
      <trkpt lat="49.33633" lon="0.91496">
        <ele>70</ele>
        <time>2020-08-18T08:32:14.000Z</time>
      </trkpt>
      <trkpt lat="49.33632" lon="0.91496">
        <ele>70.5</ele>
        <time>2020-08-18T08:32:20.000Z</time>
      </trkpt>
      <trkpt lat="49.33629" lon="0.91496">
        <ele>70.1</ele>
        <time>2020-08-18T08:32:25.000Z</time>
      </trkpt>
      <trkpt lat="49.33626" lon="0.91497">
        <ele>70.2</ele>
        <time>2020-08-18T08:32:30.000Z</time>
      </trkpt>
      <trkpt lat="49.33619" lon="0.91504">
        <ele>70</ele>
        <time>2020-08-18T08:32:35.000Z</time>
      </trkpt>
      <trkpt lat="49.33608" lon="0.91516">
        <ele>70.4</ele>
        <time>2020-08-18T08:32:40.000Z</time>
      </trkpt>
      <trkpt lat="49.33597" lon="0.9153">
        <ele>71</ele>
        <time>2020-08-18T08:32:45.000Z</time>
      </trkpt>
      <trkpt lat="49.33586" lon="0.91546">
        <ele>71.2</ele>
        <time>2020-08-18T08:32:50.000Z</time>
      </trkpt>
      <trkpt lat="49.33575" lon="0.91565">
        <ele>71.1</ele>
        <time>2020-08-18T08:32:55.000Z</time>
      </trkpt>
      <trkpt lat="49.33566" lon="0.91586">
        <ele>71.8</ele>
        <time>2020-08-18T08:33:00.000Z</time>
      </trkpt>
      <trkpt lat="49.3356" lon="0.91608">
        <ele>72.4</ele>
        <time>2020-08-18T08:33:05.000Z</time>
      </trkpt>
      <trkpt lat="49.33558" lon="0.91629">
        <ele>71.7</ele>
        <time>2020-08-18T08:33:10.000Z</time>
      </trkpt>
      <trkpt lat="49.33554" lon="0.91651">
        <ele>71.9</ele>
        <time>2020-08-18T08:33:15.000Z</time>
      </trkpt>
      <trkpt lat="49.33551" lon="0.9167">
        <ele>71.5</ele>
        <time>2020-08-18T08:33:20.000Z</time>
      </trkpt>
      <trkpt lat="49.33543" lon="0.91688">
        <ele>69.1</ele>
        <time>2020-08-18T08:33:25.000Z</time>
      </trkpt>
      <trkpt lat="49.33533" lon="0.91701">
        <ele>68.5</ele>
        <time>2020-08-18T08:33:30.000Z</time>
      </trkpt>
      <trkpt lat="49.33526" lon="0.91715">
        <ele>67.6</ele>
        <time>2020-08-18T08:33:35.000Z</time>
      </trkpt>
      <trkpt lat="49.33521" lon="0.91731">
        <ele>67.7</ele>
        <time>2020-08-18T08:33:40.000Z</time>
      </trkpt>
      <trkpt lat="49.33525" lon="0.91752">
        <ele>68.1</ele>
        <time>2020-08-18T08:33:45.000Z</time>
      </trkpt>
      <trkpt lat="49.33526" lon="0.91772">
        <ele>68.1</ele>
        <time>2020-08-18T08:33:50.000Z</time>
      </trkpt>
      <trkpt lat="49.33527" lon="0.9179">
        <ele>68.3</ele>
        <time>2020-08-18T08:33:55.000Z</time>
      </trkpt>
      <trkpt lat="49.33529" lon="0.91809">
        <ele>68.2</ele>
        <time>2020-08-18T08:34:00.000Z</time>
      </trkpt>
      <trkpt lat="49.33533" lon="0.91828">
        <ele>68</ele>
        <time>2020-08-18T08:34:05.000Z</time>
      </trkpt>
      <trkpt lat="49.33533" lon="0.9185">
        <ele>69.1</ele>
        <time>2020-08-18T08:34:10.000Z</time>
      </trkpt>
      <trkpt lat="49.33532" lon="0.91874">
        <ele>68.9</ele>
        <time>2020-08-18T08:34:15.000Z</time>
      </trkpt>
      <trkpt lat="49.33532" lon="0.91898">
        <ele>68.8</ele>
        <time>2020-08-18T08:34:20.000Z</time>
      </trkpt>
      <trkpt lat="49.33531" lon="0.91914">
        <ele>68.3</ele>
        <time>2020-08-18T08:34:25.000Z</time>
      </trkpt>
      <trkpt lat="49.3353" lon="0.91918">
        <ele>67.7</ele>
        <time>2020-08-18T08:34:29.000Z</time>
      </trkpt>
      <trkpt lat="49.3353" lon="0.91919">
        <ele>67.7</ele>
        <time>2020-08-18T08:34:30.000Z</time>
      </trkpt>
      <trkpt lat="49.33527" lon="0.91938">
        <ele>67.1</ele>
        <time>2020-08-18T08:34:35.000Z</time>
      </trkpt>
      <trkpt lat="49.33525" lon="0.91957">
        <ele>67.7</ele>
        <time>2020-08-18T08:34:40.000Z</time>
      </trkpt>
      <trkpt lat="49.33521" lon="0.91983">
        <ele>68.2</ele>
        <time>2020-08-18T08:34:45.000Z</time>
      </trkpt>
      <trkpt lat="49.33511" lon="0.92006">
        <ele>67.6</ele>
        <time>2020-08-18T08:34:50.000Z</time>
      </trkpt>
      <trkpt lat="49.33501" lon="0.92006">
        <ele>67.5</ele>
        <time>2020-08-18T08:34:55.000Z</time>
      </trkpt>
      <trkpt lat="49.33487" lon="0.91994">
        <ele>67</ele>
        <time>2020-08-18T08:35:00.000Z</time>
      </trkpt>
      <trkpt lat="49.33479" lon="0.92003">
        <ele>66.4</ele>
        <time>2020-08-18T08:35:05.000Z</time>
      </trkpt>
      <trkpt lat="49.33473" lon="0.92037">
        <ele>65</ele>
        <time>2020-08-18T08:35:10.000Z</time>
      </trkpt>
      <trkpt lat="49.33465" lon="0.92076">
        <ele>64.2</ele>
        <time>2020-08-18T08:35:15.000Z</time>
      </trkpt>
      <trkpt lat="49.33463" lon="0.92106">
        <ele>64.1</ele>
        <time>2020-08-18T08:35:20.000Z</time>
      </trkpt>
      <trkpt lat="49.33466" lon="0.92129">
        <ele>64.2</ele>
        <time>2020-08-18T08:35:25.000Z</time>
      </trkpt>
      <trkpt lat="49.33466" lon="0.92153">
        <ele>63.6</ele>
        <time>2020-08-18T08:35:30.000Z</time>
      </trkpt>
      <trkpt lat="49.33468" lon="0.92171">
        <ele>63</ele>
        <time>2020-08-18T08:35:35.000Z</time>
      </trkpt>
      <trkpt lat="49.33461" lon="0.92185">
        <ele>62.7</ele>
        <time>2020-08-18T08:35:40.000Z</time>
      </trkpt>
      <trkpt lat="49.33451" lon="0.92199">
        <ele>62.3</ele>
        <time>2020-08-18T08:35:45.000Z</time>
      </trkpt>
      <trkpt lat="49.33443" lon="0.92213">
        <ele>62</ele>
        <time>2020-08-18T08:35:50.000Z</time>
      </trkpt>
      <trkpt lat="49.33441" lon="0.92231">
        <ele>62.2</ele>
        <time>2020-08-18T08:35:55.000Z</time>
      </trkpt>
      <trkpt lat="49.3344" lon="0.92246">
        <ele>62.8</ele>
        <time>2020-08-18T08:36:00.000Z</time>
      </trkpt>
      <trkpt lat="49.33438" lon="0.92256">
        <ele>63</ele>
        <time>2020-08-18T08:36:05.000Z</time>
      </trkpt>
      <trkpt lat="49.33435" lon="0.92258">
        <ele>63.4</ele>
        <time>2020-08-18T08:36:10.000Z</time>
      </trkpt>
      <trkpt lat="49.33424" lon="0.92262">
        <ele>63.4</ele>
        <time>2020-08-18T08:36:15.000Z</time>
      </trkpt>
      <trkpt lat="49.33409" lon="0.92269">
        <ele>62.7</ele>
        <time>2020-08-18T08:36:20.000Z</time>
      </trkpt>
      <trkpt lat="49.33397" lon="0.92283">
        <ele>63</ele>
        <time>2020-08-18T08:36:25.000Z</time>
      </trkpt>
      <trkpt lat="49.33398" lon="0.92304">
        <ele>62.9</ele>
        <time>2020-08-18T08:36:30.000Z</time>
      </trkpt>
      <trkpt lat="49.33393" lon="0.92323">
        <ele>63</ele>
        <time>2020-08-18T08:36:35.000Z</time>
      </trkpt>
      <trkpt lat="49.33384" lon="0.92335">
        <ele>62.8</ele>
        <time>2020-08-18T08:36:40.000Z</time>
      </trkpt>
      <trkpt lat="49.33377" lon="0.92339">
        <ele>62.4</ele>
        <time>2020-08-18T08:36:45.000Z</time>
      </trkpt>
      <trkpt lat="49.33371" lon="0.9233">
        <ele>63.3</ele>
        <time>2020-08-18T08:36:50.000Z</time>
      </trkpt>
      <trkpt lat="49.33369" lon="0.92309">
        <ele>60.5</ele>
        <time>2020-08-18T08:36:55.000Z</time>
      </trkpt>
      <trkpt lat="49.33366" lon="0.92302">
        <ele>58.1</ele>
        <time>2020-08-18T08:37:00.000Z</time>
      </trkpt>
      <trkpt lat="49.33365" lon="0.92303">
        <ele>57.7</ele>
        <time>2020-08-18T08:37:02.000Z</time>
      </trkpt>
      <trkpt lat="49.33364" lon="0.92313">
        <ele>57.2</ele>
        <time>2020-08-18T08:37:08.000Z</time>
      </trkpt>
      <trkpt lat="49.33358" lon="0.9233">
        <ele>55.5</ele>
        <time>2020-08-18T08:37:13.000Z</time>
      </trkpt>
      <trkpt lat="49.33353" lon="0.92347">
        <ele>55.8</ele>
        <time>2020-08-18T08:37:18.000Z</time>
      </trkpt>
      <trkpt lat="49.33352" lon="0.92363">
        <ele>56.8</ele>
        <time>2020-08-18T08:37:23.000Z</time>
      </trkpt>
      <trkpt lat="49.3335" lon="0.92384">
        <ele>57.7</ele>
        <time>2020-08-18T08:37:28.000Z</time>
      </trkpt>
      <trkpt lat="49.33357" lon="0.92393">
        <ele>57.6</ele>
        <time>2020-08-18T08:37:33.000Z</time>
      </trkpt>
      <trkpt lat="49.33366" lon="0.92403">
        <ele>58.3</ele>
        <time>2020-08-18T08:37:38.000Z</time>
      </trkpt>
      <trkpt lat="49.33374" lon="0.92419">
        <ele>58.8</ele>
        <time>2020-08-18T08:37:43.000Z</time>
      </trkpt>
      <trkpt lat="49.33384" lon="0.92437">
        <ele>58.3</ele>
        <time>2020-08-18T08:37:48.000Z</time>
      </trkpt>
      <trkpt lat="49.33393" lon="0.92455">
        <ele>57.4</ele>
        <time>2020-08-18T08:37:53.000Z</time>
      </trkpt>
      <trkpt lat="49.33379" lon="0.9247">
        <ele>55.4</ele>
        <time>2020-08-18T08:37:58.000Z</time>
      </trkpt>
      <trkpt lat="49.33365" lon="0.92479">
        <ele>55.5</ele>
        <time>2020-08-18T08:38:03.000Z</time>
      </trkpt>
      <trkpt lat="49.33352" lon="0.92486">
        <ele>55.4</ele>
        <time>2020-08-18T08:38:08.000Z</time>
      </trkpt>
      <trkpt lat="49.33339" lon="0.92492">
        <ele>55.4</ele>
        <time>2020-08-18T08:38:13.000Z</time>
      </trkpt>
      <trkpt lat="49.33326" lon="0.92491">
        <ele>55</ele>
        <time>2020-08-18T08:38:18.000Z</time>
      </trkpt>
      <trkpt lat="49.33313" lon="0.92504">
        <ele>53.4</ele>
        <time>2020-08-18T08:38:23.000Z</time>
      </trkpt>
      <trkpt lat="49.33302" lon="0.9252">
        <ele>53.7</ele>
        <time>2020-08-18T08:38:28.000Z</time>
      </trkpt>
      <trkpt lat="49.33296" lon="0.92536">
        <ele>53.5</ele>
        <time>2020-08-18T08:38:33.000Z</time>
      </trkpt>
      <trkpt lat="49.33281" lon="0.9254">
        <ele>52.7</ele>
        <time>2020-08-18T08:38:38.000Z</time>
      </trkpt>
      <trkpt lat="49.33262" lon="0.92547">
        <ele>52.8</ele>
        <time>2020-08-18T08:38:43.000Z</time>
      </trkpt>
      <trkpt lat="49.33242" lon="0.92554">
        <ele>52.9</ele>
        <time>2020-08-18T08:38:48.000Z</time>
      </trkpt>
      <trkpt lat="49.33222" lon="0.9256">
        <ele>52.8</ele>
        <time>2020-08-18T08:38:53.000Z</time>
      </trkpt>
      <trkpt lat="49.33202" lon="0.92567">
        <ele>52.9</ele>
        <time>2020-08-18T08:38:58.000Z</time>
      </trkpt>
      <trkpt lat="49.33182" lon="0.92574">
        <ele>53.6</ele>
        <time>2020-08-18T08:39:03.000Z</time>
      </trkpt>
      <trkpt lat="49.33162" lon="0.92581">
        <ele>53.8</ele>
        <time>2020-08-18T08:39:08.000Z</time>
      </trkpt>
      <trkpt lat="49.33143" lon="0.92589">
        <ele>53.9</ele>
        <time>2020-08-18T08:39:13.000Z</time>
      </trkpt>
      <trkpt lat="49.33127" lon="0.92597">
        <ele>54</ele>
        <time>2020-08-18T08:39:18.000Z</time>
      </trkpt>
      <trkpt lat="49.3311" lon="0.92608">
        <ele>54</ele>
        <time>2020-08-18T08:39:23.000Z</time>
      </trkpt>
      <trkpt lat="49.33094" lon="0.92616">
        <ele>54.5</ele>
        <time>2020-08-18T08:39:28.000Z</time>
      </trkpt>
      <trkpt lat="49.3308" lon="0.92623">
        <ele>54.3</ele>
        <time>2020-08-18T08:39:33.000Z</time>
      </trkpt>
      <trkpt lat="49.33064" lon="0.92631">
        <ele>54.2</ele>
        <time>2020-08-18T08:39:38.000Z</time>
      </trkpt>
      <trkpt lat="49.33046" lon="0.9264">
        <ele>54.5</ele>
        <time>2020-08-18T08:39:43.000Z</time>
      </trkpt>
      <trkpt lat="49.33026" lon="0.9265">
        <ele>54.9</ele>
        <time>2020-08-18T08:39:48.000Z</time>
      </trkpt>
      <trkpt lat="49.33006" lon="0.92662">
        <ele>55.4</ele>
        <time>2020-08-18T08:39:53.000Z</time>
      </trkpt>
      <trkpt lat="49.32986" lon="0.92673">
        <ele>56</ele>
        <time>2020-08-18T08:39:58.000Z</time>
      </trkpt>
      <trkpt lat="49.32966" lon="0.92685">
        <ele>56.5</ele>
        <time>2020-08-18T08:40:03.000Z</time>
      </trkpt>
      <trkpt lat="49.32947" lon="0.92696">
        <ele>56.8</ele>
        <time>2020-08-18T08:40:08.000Z</time>
      </trkpt>
      <trkpt lat="49.32929" lon="0.92707">
        <ele>56.9</ele>
        <time>2020-08-18T08:40:13.000Z</time>
      </trkpt>
      <trkpt lat="49.3291" lon="0.92716">
        <ele>57</ele>
        <time>2020-08-18T08:40:18.000Z</time>
      </trkpt>
      <trkpt lat="49.32892" lon="0.92724">
        <ele>57.2</ele>
        <time>2020-08-18T08:40:23.000Z</time>
      </trkpt>
      <trkpt lat="49.32871" lon="0.92724">
        <ele>58.3</ele>
        <time>2020-08-18T08:40:28.000Z</time>
      </trkpt>
      <trkpt lat="49.32848" lon="0.92715">
        <ele>58.3</ele>
        <time>2020-08-18T08:40:33.000Z</time>
      </trkpt>
      <trkpt lat="49.32824" lon="0.92705">
        <ele>58.9</ele>
        <time>2020-08-18T08:40:38.000Z</time>
      </trkpt>
      <trkpt lat="49.32805" lon="0.92697">
        <ele>59.9</ele>
        <time>2020-08-18T08:40:43.000Z</time>
      </trkpt>
      <trkpt lat="49.32785" lon="0.92688">
        <ele>61.3</ele>
        <time>2020-08-18T08:40:48.000Z</time>
      </trkpt>
      <trkpt lat="49.32765" lon="0.92679">
        <ele>62</ele>
        <time>2020-08-18T08:40:53.000Z</time>
      </trkpt>
      <trkpt lat="49.32744" lon="0.92671">
        <ele>62.6</ele>
        <time>2020-08-18T08:40:58.000Z</time>
      </trkpt>
      <trkpt lat="49.32724" lon="0.92661">
        <ele>62.6</ele>
        <time>2020-08-18T08:41:03.000Z</time>
      </trkpt>
      <trkpt lat="49.32703" lon="0.92652">
        <ele>62.9</ele>
        <time>2020-08-18T08:41:08.000Z</time>
      </trkpt>
      <trkpt lat="49.32683" lon="0.92643">
        <ele>63</ele>
        <time>2020-08-18T08:41:13.000Z</time>
      </trkpt>
      <trkpt lat="49.32661" lon="0.92637">
        <ele>63.4</ele>
        <time>2020-08-18T08:41:18.000Z</time>
      </trkpt>
      <trkpt lat="49.3264" lon="0.92633">
        <ele>63.9</ele>
        <time>2020-08-18T08:41:23.000Z</time>
      </trkpt>
      <trkpt lat="49.32618" lon="0.92634">
        <ele>64.3</ele>
        <time>2020-08-18T08:41:28.000Z</time>
      </trkpt>
      <trkpt lat="49.32596" lon="0.92642">
        <ele>64.9</ele>
        <time>2020-08-18T08:41:33.000Z</time>
      </trkpt>
      <trkpt lat="49.32576" lon="0.92654">
        <ele>64.8</ele>
        <time>2020-08-18T08:41:38.000Z</time>
      </trkpt>
      <trkpt lat="49.32554" lon="0.92665">
        <ele>65.1</ele>
        <time>2020-08-18T08:41:43.000Z</time>
      </trkpt>
      <trkpt lat="49.32532" lon="0.92671">
        <ele>66.1</ele>
        <time>2020-08-18T08:41:48.000Z</time>
      </trkpt>
      <trkpt lat="49.32511" lon="0.92677">
        <ele>66.8</ele>
        <time>2020-08-18T08:41:53.000Z</time>
      </trkpt>
      <trkpt lat="49.32496" lon="0.92694">
        <ele>67.3</ele>
        <time>2020-08-18T08:41:58.000Z</time>
      </trkpt>
      <trkpt lat="49.32493" lon="0.92721">
        <ele>68.3</ele>
        <time>2020-08-18T08:42:03.000Z</time>
      </trkpt>
      <trkpt lat="49.32509" lon="0.92749">
        <ele>67.6</ele>
        <time>2020-08-18T08:42:08.000Z</time>
      </trkpt>
      <trkpt lat="49.32522" lon="0.92777">
        <ele>69.1</ele>
        <time>2020-08-18T08:42:13.000Z</time>
      </trkpt>
      <trkpt lat="49.32533" lon="0.92804">
        <ele>70.1</ele>
        <time>2020-08-18T08:42:18.000Z</time>
      </trkpt>
      <trkpt lat="49.32543" lon="0.92831">
        <ele>71.6</ele>
        <time>2020-08-18T08:42:23.000Z</time>
      </trkpt>
      <trkpt lat="49.32552" lon="0.92855">
        <ele>73.1</ele>
        <time>2020-08-18T08:42:28.000Z</time>
      </trkpt>
      <trkpt lat="49.3256" lon="0.92879">
        <ele>74.9</ele>
        <time>2020-08-18T08:42:33.000Z</time>
      </trkpt>
      <trkpt lat="49.32563" lon="0.92906">
        <ele>75.8</ele>
        <time>2020-08-18T08:42:38.000Z</time>
      </trkpt>
      <trkpt lat="49.32563" lon="0.92933">
        <ele>76.8</ele>
        <time>2020-08-18T08:42:43.000Z</time>
      </trkpt>
      <trkpt lat="49.3256" lon="0.92959">
        <ele>77.9</ele>
        <time>2020-08-18T08:42:48.000Z</time>
      </trkpt>
      <trkpt lat="49.32556" lon="0.92984">
        <ele>79.3</ele>
        <time>2020-08-18T08:42:53.000Z</time>
      </trkpt>
      <trkpt lat="49.32551" lon="0.93008">
        <ele>80.4</ele>
        <time>2020-08-18T08:42:58.000Z</time>
      </trkpt>
      <trkpt lat="49.32546" lon="0.93032">
        <ele>81.6</ele>
        <time>2020-08-18T08:43:03.000Z</time>
      </trkpt>
      <trkpt lat="49.32541" lon="0.93058">
        <ele>83</ele>
        <time>2020-08-18T08:43:08.000Z</time>
      </trkpt>
      <trkpt lat="49.32534" lon="0.93082">
        <ele>84.3</ele>
        <time>2020-08-18T08:43:13.000Z</time>
      </trkpt>
      <trkpt lat="49.32526" lon="0.93105">
        <ele>85.2</ele>
        <time>2020-08-18T08:43:18.000Z</time>
      </trkpt>
      <trkpt lat="49.32517" lon="0.93127">
        <ele>87.6</ele>
        <time>2020-08-18T08:43:23.000Z</time>
      </trkpt>
      <trkpt lat="49.32508" lon="0.93149">
        <ele>88.9</ele>
        <time>2020-08-18T08:43:28.000Z</time>
      </trkpt>
      <trkpt lat="49.32499" lon="0.93173">
        <ele>90</ele>
        <time>2020-08-18T08:43:33.000Z</time>
      </trkpt>
      <trkpt lat="49.3249" lon="0.93196">
        <ele>91.5</ele>
        <time>2020-08-18T08:43:38.000Z</time>
      </trkpt>
      <trkpt lat="49.3248" lon="0.93221">
        <ele>94.1</ele>
        <time>2020-08-18T08:43:43.000Z</time>
      </trkpt>
      <trkpt lat="49.3247" lon="0.93247">
        <ele>95.5</ele>
        <time>2020-08-18T08:43:48.000Z</time>
      </trkpt>
      <trkpt lat="49.32459" lon="0.93275">
        <ele>96.6</ele>
        <time>2020-08-18T08:43:53.000Z</time>
      </trkpt>
      <trkpt lat="49.32445" lon="0.93305">
        <ele>97.6</ele>
        <time>2020-08-18T08:43:58.000Z</time>
      </trkpt>
      <trkpt lat="49.32431" lon="0.93337">
        <ele>97.8</ele>
        <time>2020-08-18T08:44:03.000Z</time>
      </trkpt>
      <trkpt lat="49.32417" lon="0.9337">
        <ele>98</ele>
        <time>2020-08-18T08:44:08.000Z</time>
      </trkpt>
      <trkpt lat="49.32403" lon="0.93402">
        <ele>98.7</ele>
        <time>2020-08-18T08:44:13.000Z</time>
      </trkpt>
      <trkpt lat="49.32389" lon="0.93435">
        <ele>99.8</ele>
        <time>2020-08-18T08:44:18.000Z</time>
      </trkpt>
      <trkpt lat="49.32374" lon="0.93468">
        <ele>100.4</ele>
        <time>2020-08-18T08:44:23.000Z</time>
      </trkpt>
      <trkpt lat="49.32361" lon="0.93503">
        <ele>101.6</ele>
        <time>2020-08-18T08:44:28.000Z</time>
      </trkpt>
      <trkpt lat="49.32349" lon="0.93537">
        <ele>102.3</ele>
        <time>2020-08-18T08:44:33.000Z</time>
      </trkpt>
      <trkpt lat="49.32342" lon="0.93573">
        <ele>103.5</ele>
        <time>2020-08-18T08:44:38.000Z</time>
      </trkpt>
      <trkpt lat="49.32335" lon="0.93614">
        <ele>104.6</ele>
        <time>2020-08-18T08:44:43.000Z</time>
      </trkpt>
      <trkpt lat="49.3233" lon="0.9366">
        <ele>105.7</ele>
        <time>2020-08-18T08:44:48.000Z</time>
      </trkpt>
      <trkpt lat="49.32323" lon="0.93711">
        <ele>106.5</ele>
        <time>2020-08-18T08:44:53.000Z</time>
      </trkpt>
      <trkpt lat="49.32318" lon="0.93763">
        <ele>106.3</ele>
        <time>2020-08-18T08:44:58.000Z</time>
      </trkpt>
      <trkpt lat="49.32324" lon="0.93808">
        <ele>105.6</ele>
        <time>2020-08-18T08:45:03.000Z</time>
      </trkpt>
      <trkpt lat="49.32334" lon="0.93837">
        <ele>104.6</ele>
        <time>2020-08-18T08:45:08.000Z</time>
      </trkpt>
      <trkpt lat="49.32335" lon="0.93858">
        <ele>104.9</ele>
        <time>2020-08-18T08:45:13.000Z</time>
      </trkpt>
      <trkpt lat="49.32333" lon="0.93878">
        <ele>105.2</ele>
        <time>2020-08-18T08:45:18.000Z</time>
      </trkpt>
      <trkpt lat="49.32333" lon="0.93898">
        <ele>105.8</ele>
        <time>2020-08-18T08:45:23.000Z</time>
      </trkpt>
      <trkpt lat="49.32329" lon="0.93927">
        <ele>104.9</ele>
        <time>2020-08-18T08:45:28.000Z</time>
      </trkpt>
      <trkpt lat="49.32326" lon="0.93954">
        <ele>105.5</ele>
        <time>2020-08-18T08:45:33.000Z</time>
      </trkpt>
      <trkpt lat="49.3233" lon="0.9398">
        <ele>105.7</ele>
        <time>2020-08-18T08:45:38.000Z</time>
      </trkpt>
      <trkpt lat="49.32339" lon="0.94002">
        <ele>105.5</ele>
        <time>2020-08-18T08:45:43.000Z</time>
      </trkpt>
      <trkpt lat="49.32352" lon="0.94018">
        <ele>105.2</ele>
        <time>2020-08-18T08:45:48.000Z</time>
      </trkpt>
      <trkpt lat="49.3237" lon="0.9403">
        <ele>105</ele>
        <time>2020-08-18T08:45:53.000Z</time>
      </trkpt>
      <trkpt lat="49.32382" lon="0.94041">
        <ele>105.4</ele>
        <time>2020-08-18T08:45:58.000Z</time>
      </trkpt>
      <trkpt lat="49.32394" lon="0.94053">
        <ele>105.7</ele>
        <time>2020-08-18T08:46:03.000Z</time>
      </trkpt>
      <trkpt lat="49.32406" lon="0.94065">
        <ele>105.7</ele>
        <time>2020-08-18T08:46:08.000Z</time>
      </trkpt>
      <trkpt lat="49.3242" lon="0.94076">
        <ele>106.5</ele>
        <time>2020-08-18T08:46:13.000Z</time>
      </trkpt>
      <trkpt lat="49.32432" lon="0.94089">
        <ele>106.4</ele>
        <time>2020-08-18T08:46:18.000Z</time>
      </trkpt>
      <trkpt lat="49.32443" lon="0.941">
        <ele>106.4</ele>
        <time>2020-08-18T08:46:23.000Z</time>
      </trkpt>
      <trkpt lat="49.32454" lon="0.94111">
        <ele>106</ele>
        <time>2020-08-18T08:46:28.000Z</time>
      </trkpt>
      <trkpt lat="49.32465" lon="0.94125">
        <ele>106.6</ele>
        <time>2020-08-18T08:46:33.000Z</time>
      </trkpt>
      <trkpt lat="49.32478" lon="0.94131">
        <ele>108</ele>
        <time>2020-08-18T08:46:38.000Z</time>
      </trkpt>
      <trkpt lat="49.3249" lon="0.94136">
        <ele>109.1</ele>
        <time>2020-08-18T08:46:43.000Z</time>
      </trkpt>
      <trkpt lat="49.32501" lon="0.94143">
        <ele>109.8</ele>
        <time>2020-08-18T08:46:48.000Z</time>
      </trkpt>
      <trkpt lat="49.32508" lon="0.94157">
        <ele>109.3</ele>
        <time>2020-08-18T08:46:53.000Z</time>
      </trkpt>
      <trkpt lat="49.32519" lon="0.94165">
        <ele>109.8</ele>
        <time>2020-08-18T08:46:58.000Z</time>
      </trkpt>
      <trkpt lat="49.32531" lon="0.94176">
        <ele>110</ele>
        <time>2020-08-18T08:47:03.000Z</time>
      </trkpt>
      <trkpt lat="49.32541" lon="0.94189">
        <ele>110.3</ele>
        <time>2020-08-18T08:47:08.000Z</time>
      </trkpt>
      <trkpt lat="49.32552" lon="0.94203">
        <ele>109.4</ele>
        <time>2020-08-18T08:47:13.000Z</time>
      </trkpt>
      <trkpt lat="49.32563" lon="0.94219">
        <ele>108.8</ele>
        <time>2020-08-18T08:47:18.000Z</time>
      </trkpt>
      <trkpt lat="49.3257" lon="0.94241">
        <ele>108.9</ele>
        <time>2020-08-18T08:47:23.000Z</time>
      </trkpt>
      <trkpt lat="49.32574" lon="0.94258">
        <ele>109.7</ele>
        <time>2020-08-18T08:47:28.000Z</time>
      </trkpt>
      <trkpt lat="49.3258" lon="0.94277">
        <ele>109.4</ele>
        <time>2020-08-18T08:47:33.000Z</time>
      </trkpt>
      <trkpt lat="49.32585" lon="0.94295">
        <ele>108.8</ele>
        <time>2020-08-18T08:47:38.000Z</time>
      </trkpt>
      <trkpt lat="49.32592" lon="0.94312">
        <ele>109.1</ele>
        <time>2020-08-18T08:47:43.000Z</time>
      </trkpt>
      <trkpt lat="49.32602" lon="0.94322">
        <ele>109.1</ele>
        <time>2020-08-18T08:47:48.000Z</time>
      </trkpt>
      <trkpt lat="49.32603" lon="0.94338">
        <ele>107.6</ele>
        <time>2020-08-18T08:47:53.000Z</time>
      </trkpt>
      <trkpt lat="49.32606" lon="0.94358">
        <ele>106.8</ele>
        <time>2020-08-18T08:47:58.000Z</time>
      </trkpt>
      <trkpt lat="49.32612" lon="0.94381">
        <ele>106.6</ele>
        <time>2020-08-18T08:48:03.000Z</time>
      </trkpt>
      <trkpt lat="49.32616" lon="0.94406">
        <ele>107.6</ele>
        <time>2020-08-18T08:48:08.000Z</time>
      </trkpt>
      <trkpt lat="49.3262" lon="0.94427">
        <ele>107.8</ele>
        <time>2020-08-18T08:48:13.000Z</time>
      </trkpt>
      <trkpt lat="49.32627" lon="0.94445">
        <ele>107.5</ele>
        <time>2020-08-18T08:48:18.000Z</time>
      </trkpt>
      <trkpt lat="49.32629" lon="0.94469">
        <ele>107.9</ele>
        <time>2020-08-18T08:48:23.000Z</time>
      </trkpt>
      <trkpt lat="49.32627" lon="0.94502">
        <ele>109.3</ele>
        <time>2020-08-18T08:48:28.000Z</time>
      </trkpt>
      <trkpt lat="49.32624" lon="0.94534">
        <ele>110.1</ele>
        <time>2020-08-18T08:48:33.000Z</time>
      </trkpt>
      <trkpt lat="49.32623" lon="0.94559">
        <ele>110.2</ele>
        <time>2020-08-18T08:48:38.000Z</time>
      </trkpt>
      <trkpt lat="49.32626" lon="0.94585">
        <ele>110.4</ele>
        <time>2020-08-18T08:48:43.000Z</time>
      </trkpt>
      <trkpt lat="49.32629" lon="0.94611">
        <ele>111.7</ele>
        <time>2020-08-18T08:48:48.000Z</time>
      </trkpt>
      <trkpt lat="49.32634" lon="0.94637">
        <ele>110.7</ele>
        <time>2020-08-18T08:48:53.000Z</time>
      </trkpt>
      <trkpt lat="49.32639" lon="0.94657">
        <ele>109.8</ele>
        <time>2020-08-18T08:48:58.000Z</time>
      </trkpt>
      <trkpt lat="49.32647" lon="0.94671">
        <ele>109.9</ele>
        <time>2020-08-18T08:49:03.000Z</time>
      </trkpt>
      <trkpt lat="49.32655" lon="0.9469">
        <ele>110.6</ele>
        <time>2020-08-18T08:49:08.000Z</time>
      </trkpt>
      <trkpt lat="49.32662" lon="0.94704">
        <ele>110.4</ele>
        <time>2020-08-18T08:49:13.000Z</time>
      </trkpt>
      <trkpt lat="49.32664" lon="0.94724">
        <ele>110.7</ele>
        <time>2020-08-18T08:49:18.000Z</time>
      </trkpt>
      <trkpt lat="49.32671" lon="0.94745">
        <ele>107.9</ele>
        <time>2020-08-18T08:49:23.000Z</time>
      </trkpt>
      <trkpt lat="49.32683" lon="0.94756">
        <ele>107.6</ele>
        <time>2020-08-18T08:49:28.000Z</time>
      </trkpt>
      <trkpt lat="49.32695" lon="0.94768">
        <ele>108.4</ele>
        <time>2020-08-18T08:49:33.000Z</time>
      </trkpt>
      <trkpt lat="49.32706" lon="0.94782">
        <ele>108.9</ele>
        <time>2020-08-18T08:49:38.000Z</time>
      </trkpt>
      <trkpt lat="49.32718" lon="0.94794">
        <ele>109.8</ele>
        <time>2020-08-18T08:49:43.000Z</time>
      </trkpt>
      <trkpt lat="49.32724" lon="0.94817">
        <ele>111.2</ele>
        <time>2020-08-18T08:49:48.000Z</time>
      </trkpt>
      <trkpt lat="49.32714" lon="0.94848">
        <ele>112</ele>
        <time>2020-08-18T08:49:53.000Z</time>
      </trkpt>
      <trkpt lat="49.32703" lon="0.94878">
        <ele>112.9</ele>
        <time>2020-08-18T08:49:58.000Z</time>
      </trkpt>
      <trkpt lat="49.32694" lon="0.94905">
        <ele>112.8</ele>
        <time>2020-08-18T08:50:03.000Z</time>
      </trkpt>
      <trkpt lat="49.32685" lon="0.94931">
        <ele>112.7</ele>
        <time>2020-08-18T08:50:08.000Z</time>
      </trkpt>
      <trkpt lat="49.32678" lon="0.94957">
        <ele>112.3</ele>
        <time>2020-08-18T08:50:13.000Z</time>
      </trkpt>
      <trkpt lat="49.32675" lon="0.9498">
        <ele>112</ele>
        <time>2020-08-18T08:50:18.000Z</time>
      </trkpt>
      <trkpt lat="49.32678" lon="0.95001">
        <ele>111.7</ele>
        <time>2020-08-18T08:50:23.000Z</time>
      </trkpt>
      <trkpt lat="49.32684" lon="0.95021">
        <ele>111.5</ele>
        <time>2020-08-18T08:50:28.000Z</time>
      </trkpt>
      <trkpt lat="49.32691" lon="0.95044">
        <ele>111.5</ele>
        <time>2020-08-18T08:50:33.000Z</time>
      </trkpt>
      <trkpt lat="49.32699" lon="0.95064">
        <ele>112.1</ele>
        <time>2020-08-18T08:50:38.000Z</time>
      </trkpt>
      <trkpt lat="49.32707" lon="0.95084">
        <ele>112.7</ele>
        <time>2020-08-18T08:50:43.000Z</time>
      </trkpt>
      <trkpt lat="49.32714" lon="0.95096">
        <ele>112.9</ele>
        <time>2020-08-18T08:50:48.000Z</time>
      </trkpt>
      <trkpt lat="49.32725" lon="0.95091">
        <ele>112.4</ele>
        <time>2020-08-18T08:50:53.000Z</time>
      </trkpt>
      <trkpt lat="49.32736" lon="0.95074">
        <ele>112.2</ele>
        <time>2020-08-18T08:50:58.000Z</time>
      </trkpt>
      <trkpt lat="49.32747" lon="0.95064">
        <ele>112.6</ele>
        <time>2020-08-18T08:51:03.000Z</time>
      </trkpt>
      <trkpt lat="49.32758" lon="0.95067">
        <ele>112.8</ele>
        <time>2020-08-18T08:51:08.000Z</time>
      </trkpt>
      <trkpt lat="49.32769" lon="0.95061">
        <ele>112.5</ele>
        <time>2020-08-18T08:51:13.000Z</time>
      </trkpt>
      <trkpt lat="49.32783" lon="0.95049">
        <ele>113.4</ele>
        <time>2020-08-18T08:51:18.000Z</time>
      </trkpt>
      <trkpt lat="49.32793" lon="0.95045">
        <ele>112.9</ele>
        <time>2020-08-18T08:51:23.000Z</time>
      </trkpt>
      <trkpt lat="49.32805" lon="0.95052">
        <ele>112</ele>
        <time>2020-08-18T08:51:28.000Z</time>
      </trkpt>
      <trkpt lat="49.32823" lon="0.95064">
        <ele>111.7</ele>
        <time>2020-08-18T08:51:33.000Z</time>
      </trkpt>
      <trkpt lat="49.3283" lon="0.95087">
        <ele>111.8</ele>
        <time>2020-08-18T08:51:38.000Z</time>
      </trkpt>
      <trkpt lat="49.32832" lon="0.95109">
        <ele>112</ele>
        <time>2020-08-18T08:51:43.000Z</time>
      </trkpt>
      <trkpt lat="49.3284" lon="0.95129">
        <ele>112.1</ele>
        <time>2020-08-18T08:51:48.000Z</time>
      </trkpt>
      <trkpt lat="49.32851" lon="0.95134">
        <ele>112.7</ele>
        <time>2020-08-18T08:51:53.000Z</time>
      </trkpt>
      <trkpt lat="49.32864" lon="0.9513">
        <ele>112.5</ele>
        <time>2020-08-18T08:51:58.000Z</time>
      </trkpt>
      <trkpt lat="49.3288" lon="0.9512">
        <ele>112</ele>
        <time>2020-08-18T08:52:03.000Z</time>
      </trkpt>
      <trkpt lat="49.32895" lon="0.95117">
        <ele>112.3</ele>
        <time>2020-08-18T08:52:08.000Z</time>
      </trkpt>
      <trkpt lat="49.3291" lon="0.9511">
        <ele>111.3</ele>
        <time>2020-08-18T08:52:13.000Z</time>
      </trkpt>
      <trkpt lat="49.32926" lon="0.95108">
        <ele>113.1</ele>
        <time>2020-08-18T08:52:18.000Z</time>
      </trkpt>
      <trkpt lat="49.32939" lon="0.95113">
        <ele>113.3</ele>
        <time>2020-08-18T08:52:23.000Z</time>
      </trkpt>
      <trkpt lat="49.32937" lon="0.95113">
        <ele>113.2</ele>
        <time>2020-08-18T08:52:25.000Z</time>
      </trkpt>
      <trkpt lat="49.32938" lon="0.95113">
        <ele>113.4</ele>
        <time>2020-08-18T08:52:28.000Z</time>
      </trkpt>
      <trkpt lat="49.32941" lon="0.95114">
        <ele>113.5</ele>
        <time>2020-08-18T08:52:33.000Z</time>
      </trkpt>
      <trkpt lat="49.32954" lon="0.95121">
        <ele>113.2</ele>
        <time>2020-08-18T08:52:38.000Z</time>
      </trkpt>
      <trkpt lat="49.32968" lon="0.95138">
        <ele>111.6</ele>
        <time>2020-08-18T08:52:43.000Z</time>
      </trkpt>
      <trkpt lat="49.32979" lon="0.95151">
        <ele>110.1</ele>
        <time>2020-08-18T08:52:48.000Z</time>
      </trkpt>
      <trkpt lat="49.3299" lon="0.95145">
        <ele>109.1</ele>
        <time>2020-08-18T08:52:53.000Z</time>
      </trkpt>
      <trkpt lat="49.32998" lon="0.95133">
        <ele>109.1</ele>
        <time>2020-08-18T08:52:58.000Z</time>
      </trkpt>
      <trkpt lat="49.33003" lon="0.95101">
        <ele>108.7</ele>
        <time>2020-08-18T08:53:03.000Z</time>
      </trkpt>
      <trkpt lat="49.33002" lon="0.95074">
        <ele>108.7</ele>
        <time>2020-08-18T08:53:08.000Z</time>
      </trkpt>
      <trkpt lat="49.3301" lon="0.95059">
        <ele>109.8</ele>
        <time>2020-08-18T08:53:13.000Z</time>
      </trkpt>
      <trkpt lat="49.33022" lon="0.95068">
        <ele>110.2</ele>
        <time>2020-08-18T08:53:18.000Z</time>
      </trkpt>
      <trkpt lat="49.33037" lon="0.95074">
        <ele>110.3</ele>
        <time>2020-08-18T08:53:23.000Z</time>
      </trkpt>
      <trkpt lat="49.33051" lon="0.9508">
        <ele>110.1</ele>
        <time>2020-08-18T08:53:28.000Z</time>
      </trkpt>
      <trkpt lat="49.33061" lon="0.95075">
        <ele>108</ele>
        <time>2020-08-18T08:53:33.000Z</time>
      </trkpt>
      <trkpt lat="49.33069" lon="0.95071">
        <ele>108.2</ele>
        <time>2020-08-18T08:53:38.000Z</time>
      </trkpt>
      <trkpt lat="49.33087" lon="0.95077">
        <ele>108</ele>
        <time>2020-08-18T08:53:43.000Z</time>
      </trkpt>
      <trkpt lat="49.33107" lon="0.95086">
        <ele>107.4</ele>
        <time>2020-08-18T08:53:48.000Z</time>
      </trkpt>
      <trkpt lat="49.33124" lon="0.95092">
        <ele>107.4</ele>
        <time>2020-08-18T08:53:53.000Z</time>
      </trkpt>
      <trkpt lat="49.33138" lon="0.95096">
        <ele>108.1</ele>
        <time>2020-08-18T08:53:58.000Z</time>
      </trkpt>
      <trkpt lat="49.33146" lon="0.95111">
        <ele>109.1</ele>
        <time>2020-08-18T08:54:03.000Z</time>
      </trkpt>
      <trkpt lat="49.33152" lon="0.95139">
        <ele>109.1</ele>
        <time>2020-08-18T08:54:08.000Z</time>
      </trkpt>
      <trkpt lat="49.33157" lon="0.95167">
        <ele>109</ele>
        <time>2020-08-18T08:54:13.000Z</time>
      </trkpt>
      <trkpt lat="49.33168" lon="0.95185">
        <ele>107.4</ele>
        <time>2020-08-18T08:54:18.000Z</time>
      </trkpt>
      <trkpt lat="49.3318" lon="0.95204">
        <ele>105.9</ele>
        <time>2020-08-18T08:54:23.000Z</time>
      </trkpt>
      <trkpt lat="49.33193" lon="0.95214">
        <ele>104.9</ele>
        <time>2020-08-18T08:54:28.000Z</time>
      </trkpt>
      <trkpt lat="49.33206" lon="0.95213">
        <ele>104.1</ele>
        <time>2020-08-18T08:54:33.000Z</time>
      </trkpt>
      <trkpt lat="49.33222" lon="0.95218">
        <ele>103.6</ele>
        <time>2020-08-18T08:54:38.000Z</time>
      </trkpt>
      <trkpt lat="49.33236" lon="0.95225">
        <ele>103.2</ele>
        <time>2020-08-18T08:54:43.000Z</time>
      </trkpt>
      <trkpt lat="49.3325" lon="0.95236">
        <ele>102.7</ele>
        <time>2020-08-18T08:54:48.000Z</time>
      </trkpt>
      <trkpt lat="49.33261" lon="0.95246">
        <ele>102.5</ele>
        <time>2020-08-18T08:54:53.000Z</time>
      </trkpt>
      <trkpt lat="49.33272" lon="0.95262">
        <ele>101.6</ele>
        <time>2020-08-18T08:54:58.000Z</time>
      </trkpt>
      <trkpt lat="49.33283" lon="0.95276">
        <ele>100.6</ele>
        <time>2020-08-18T08:55:03.000Z</time>
      </trkpt>
      <trkpt lat="49.33295" lon="0.95291">
        <ele>99.3</ele>
        <time>2020-08-18T08:55:08.000Z</time>
      </trkpt>
      <trkpt lat="49.33312" lon="0.95304">
        <ele>98.6</ele>
        <time>2020-08-18T08:55:13.000Z</time>
      </trkpt>
      <trkpt lat="49.33325" lon="0.95322">
        <ele>96.2</ele>
        <time>2020-08-18T08:55:18.000Z</time>
      </trkpt>
      <trkpt lat="49.33339" lon="0.9534">
        <ele>94.5</ele>
        <time>2020-08-18T08:55:23.000Z</time>
      </trkpt>
      <trkpt lat="49.33346" lon="0.95355">
        <ele>91.8</ele>
        <time>2020-08-18T08:55:28.000Z</time>
      </trkpt>
      <trkpt lat="49.33349" lon="0.95372">
        <ele>90.2</ele>
        <time>2020-08-18T08:55:33.000Z</time>
      </trkpt>
      <trkpt lat="49.33357" lon="0.95396">
        <ele>87.2</ele>
        <time>2020-08-18T08:55:38.000Z</time>
      </trkpt>
      <trkpt lat="49.33359" lon="0.95422">
        <ele>83.5</ele>
        <time>2020-08-18T08:55:43.000Z</time>
      </trkpt>
      <trkpt lat="49.33351" lon="0.95445">
        <ele>80.8</ele>
        <time>2020-08-18T08:55:48.000Z</time>
      </trkpt>
      <trkpt lat="49.33341" lon="0.95453">
        <ele>78.1</ele>
        <time>2020-08-18T08:55:53.000Z</time>
      </trkpt>
      <trkpt lat="49.3333" lon="0.95451">
        <ele>76.5</ele>
        <time>2020-08-18T08:55:58.000Z</time>
      </trkpt>
      <trkpt lat="49.33323" lon="0.95452">
        <ele>75.3</ele>
        <time>2020-08-18T08:56:03.000Z</time>
      </trkpt>
      <trkpt lat="49.33325" lon="0.95474">
        <ele>74.7</ele>
        <time>2020-08-18T08:56:08.000Z</time>
      </trkpt>
      <trkpt lat="49.33333" lon="0.95506">
        <ele>71.5</ele>
        <time>2020-08-18T08:56:13.000Z</time>
      </trkpt>
      <trkpt lat="49.33337" lon="0.95538">
        <ele>69.4</ele>
        <time>2020-08-18T08:56:18.000Z</time>
      </trkpt>
      <trkpt lat="49.33331" lon="0.9555">
        <ele>67.1</ele>
        <time>2020-08-18T08:56:23.000Z</time>
      </trkpt>
      <trkpt lat="49.33324" lon="0.95569">
        <ele>66.5</ele>
        <time>2020-08-18T08:56:28.000Z</time>
      </trkpt>
      <trkpt lat="49.33322" lon="0.95601">
        <ele>64.3</ele>
        <time>2020-08-18T08:56:33.000Z</time>
      </trkpt>
      <trkpt lat="49.33304" lon="0.95615">
        <ele>57.2</ele>
        <time>2020-08-18T08:56:38.000Z</time>
      </trkpt>
      <trkpt lat="49.33284" lon="0.95614">
        <ele>53.6</ele>
        <time>2020-08-18T08:56:43.000Z</time>
      </trkpt>
      <trkpt lat="49.33268" lon="0.95623">
        <ele>51.8</ele>
        <time>2020-08-18T08:56:48.000Z</time>
      </trkpt>
      <trkpt lat="49.33255" lon="0.95631">
        <ele>51.3</ele>
        <time>2020-08-18T08:56:53.000Z</time>
      </trkpt>
      <trkpt lat="49.33243" lon="0.95646">
        <ele>51.2</ele>
        <time>2020-08-18T08:56:58.000Z</time>
      </trkpt>
      <trkpt lat="49.33232" lon="0.95663">
        <ele>51.1</ele>
        <time>2020-08-18T08:57:03.000Z</time>
      </trkpt>
      <trkpt lat="49.33221" lon="0.95679">
        <ele>51.7</ele>
        <time>2020-08-18T08:57:08.000Z</time>
      </trkpt>
      <trkpt lat="49.33211" lon="0.95694">
        <ele>52.1</ele>
        <time>2020-08-18T08:57:13.000Z</time>
      </trkpt>
      <trkpt lat="49.33201" lon="0.95712">
        <ele>52.2</ele>
        <time>2020-08-18T08:57:18.000Z</time>
      </trkpt>
      <trkpt lat="49.33193" lon="0.95733">
        <ele>52.7</ele>
        <time>2020-08-18T08:57:23.000Z</time>
      </trkpt>
      <trkpt lat="49.33185" lon="0.95754">
        <ele>53</ele>
        <time>2020-08-18T08:57:28.000Z</time>
      </trkpt>
      <trkpt lat="49.33177" lon="0.95782">
        <ele>53.6</ele>
        <time>2020-08-18T08:57:33.000Z</time>
      </trkpt>
      <trkpt lat="49.33171" lon="0.9581">
        <ele>53.8</ele>
        <time>2020-08-18T08:57:38.000Z</time>
      </trkpt>
      <trkpt lat="49.33166" lon="0.95832">
        <ele>54</ele>
        <time>2020-08-18T08:57:43.000Z</time>
      </trkpt>
      <trkpt lat="49.33161" lon="0.95851">
        <ele>53.7</ele>
        <time>2020-08-18T08:57:48.000Z</time>
      </trkpt>
      <trkpt lat="49.33154" lon="0.95871">
        <ele>53.6</ele>
        <time>2020-08-18T08:57:53.000Z</time>
      </trkpt>
      <trkpt lat="49.33148" lon="0.95892">
        <ele>53.4</ele>
        <time>2020-08-18T08:57:58.000Z</time>
      </trkpt>
      <trkpt lat="49.33142" lon="0.95915">
        <ele>53.3</ele>
        <time>2020-08-18T08:58:03.000Z</time>
      </trkpt>
      <trkpt lat="49.33137" lon="0.95936">
        <ele>53.5</ele>
        <time>2020-08-18T08:58:08.000Z</time>
      </trkpt>
      <trkpt lat="49.3313" lon="0.95952">
        <ele>53.7</ele>
        <time>2020-08-18T08:58:13.000Z</time>
      </trkpt>
      <trkpt lat="49.33126" lon="0.9597">
        <ele>54.5</ele>
        <time>2020-08-18T08:58:18.000Z</time>
      </trkpt>
      <trkpt lat="49.33122" lon="0.95986">
        <ele>55.1</ele>
        <time>2020-08-18T08:58:23.000Z</time>
      </trkpt>
      <trkpt lat="49.3312" lon="0.96001">
        <ele>55.9</ele>
        <time>2020-08-18T08:58:28.000Z</time>
      </trkpt>
      <trkpt lat="49.33121" lon="0.96016">
        <ele>56.7</ele>
        <time>2020-08-18T08:58:33.000Z</time>
      </trkpt>
      <trkpt lat="49.3312" lon="0.96033">
        <ele>57.8</ele>
        <time>2020-08-18T08:58:38.000Z</time>
      </trkpt>
      <trkpt lat="49.33119" lon="0.96049">
        <ele>59</ele>
        <time>2020-08-18T08:58:43.000Z</time>
      </trkpt>
      <trkpt lat="49.3312" lon="0.96063">
        <ele>60.1</ele>
        <time>2020-08-18T08:58:48.000Z</time>
      </trkpt>
      <trkpt lat="49.33121" lon="0.96076">
        <ele>61.7</ele>
        <time>2020-08-18T08:58:53.000Z</time>
      </trkpt>
      <trkpt lat="49.33121" lon="0.96089">
        <ele>63</ele>
        <time>2020-08-18T08:58:58.000Z</time>
      </trkpt>
      <trkpt lat="49.33122" lon="0.96103">
        <ele>64.1</ele>
        <time>2020-08-18T08:59:03.000Z</time>
      </trkpt>
      <trkpt lat="49.33122" lon="0.96117">
        <ele>65.3</ele>
        <time>2020-08-18T08:59:08.000Z</time>
      </trkpt>
      <trkpt lat="49.33121" lon="0.96123">
        <ele>66.1</ele>
        <time>2020-08-18T08:59:13.000Z</time>
      </trkpt>
      <trkpt lat="49.33122" lon="0.96124">
        <ele>66.5</ele>
        <time>2020-08-18T08:59:15.000Z</time>
      </trkpt>
      <trkpt lat="49.33123" lon="0.96124">
        <ele>67.2</ele>
        <time>2020-08-18T08:59:18.000Z</time>
      </trkpt>
      <trkpt lat="49.33123" lon="0.96125">
        <ele>67.2</ele>
        <time>2020-08-18T08:59:19.000Z</time>
      </trkpt>
      <trkpt lat="49.33126" lon="0.96131">
        <ele>67.2</ele>
        <time>2020-08-18T08:59:24.000Z</time>
      </trkpt>
      <trkpt lat="49.33133" lon="0.96152">
        <ele>66.4</ele>
        <time>2020-08-18T08:59:29.000Z</time>
      </trkpt>
      <trkpt lat="49.3314" lon="0.96182">
        <ele>66.8</ele>
        <time>2020-08-18T08:59:34.000Z</time>
      </trkpt>
      <trkpt lat="49.33145" lon="0.96209">
        <ele>66.8</ele>
        <time>2020-08-18T08:59:39.000Z</time>
      </trkpt>
      <trkpt lat="49.33145" lon="0.96241">
        <ele>67.1</ele>
        <time>2020-08-18T08:59:44.000Z</time>
      </trkpt>
      <trkpt lat="49.33136" lon="0.96267">
        <ele>67.2</ele>
        <time>2020-08-18T08:59:49.000Z</time>
      </trkpt>
      <trkpt lat="49.33121" lon="0.96295">
        <ele>66.5</ele>
        <time>2020-08-18T08:59:54.000Z</time>
      </trkpt>
      <trkpt lat="49.33102" lon="0.96323">
        <ele>65.9</ele>
        <time>2020-08-18T08:59:59.000Z</time>
      </trkpt>
      <trkpt lat="49.33097" lon="0.96341">
        <ele>65.9</ele>
        <time>2020-08-18T09:00:04.000Z</time>
      </trkpt>
      <trkpt lat="49.33104" lon="0.96353">
        <ele>66.1</ele>
        <time>2020-08-18T09:00:09.000Z</time>
      </trkpt>
      <trkpt lat="49.3311" lon="0.9637">
        <ele>66.4</ele>
        <time>2020-08-18T09:00:14.000Z</time>
      </trkpt>
      <trkpt lat="49.33118" lon="0.96387">
        <ele>67.1</ele>
        <time>2020-08-18T09:00:19.000Z</time>
      </trkpt>
      <trkpt lat="49.33127" lon="0.9641">
        <ele>67.5</ele>
        <time>2020-08-18T09:00:24.000Z</time>
      </trkpt>
      <trkpt lat="49.33135" lon="0.96432">
        <ele>67.6</ele>
        <time>2020-08-18T09:00:29.000Z</time>
      </trkpt>
      <trkpt lat="49.33144" lon="0.96458">
        <ele>67.8</ele>
        <time>2020-08-18T09:00:34.000Z</time>
      </trkpt>
      <trkpt lat="49.33153" lon="0.96482">
        <ele>68.3</ele>
        <time>2020-08-18T09:00:39.000Z</time>
      </trkpt>
      <trkpt lat="49.33166" lon="0.96519">
        <ele>69.7</ele>
        <time>2020-08-18T09:00:44.000Z</time>
      </trkpt>
      <trkpt lat="49.33174" lon="0.9655">
        <ele>68.8</ele>
        <time>2020-08-18T09:00:49.000Z</time>
      </trkpt>
      <trkpt lat="49.33184" lon="0.96577">
        <ele>71</ele>
        <time>2020-08-18T09:00:54.000Z</time>
      </trkpt>
      <trkpt lat="49.33194" lon="0.96604">
        <ele>72.2</ele>
        <time>2020-08-18T09:00:59.000Z</time>
      </trkpt>
      <trkpt lat="49.33206" lon="0.96639">
        <ele>72.4</ele>
        <time>2020-08-18T09:01:04.000Z</time>
      </trkpt>
      <trkpt lat="49.33213" lon="0.96674">
        <ele>72.7</ele>
        <time>2020-08-18T09:01:09.000Z</time>
      </trkpt>
      <trkpt lat="49.33214" lon="0.967">
        <ele>73.2</ele>
        <time>2020-08-18T09:01:14.000Z</time>
      </trkpt>
      <trkpt lat="49.33203" lon="0.96722">
        <ele>73.9</ele>
        <time>2020-08-18T09:01:19.000Z</time>
      </trkpt>
      <trkpt lat="49.33193" lon="0.9674">
        <ele>75.8</ele>
        <time>2020-08-18T09:01:24.000Z</time>
      </trkpt>
      <trkpt lat="49.33183" lon="0.96753">
        <ele>76.8</ele>
        <time>2020-08-18T09:01:29.000Z</time>
      </trkpt>
      <trkpt lat="49.33173" lon="0.9677">
        <ele>78</ele>
        <time>2020-08-18T09:01:34.000Z</time>
      </trkpt>
      <trkpt lat="49.33167" lon="0.96786">
        <ele>79.2</ele>
        <time>2020-08-18T09:01:39.000Z</time>
      </trkpt>
      <trkpt lat="49.33158" lon="0.96802">
        <ele>81</ele>
        <time>2020-08-18T09:01:44.000Z</time>
      </trkpt>
      <trkpt lat="49.3315" lon="0.96818">
        <ele>83.5</ele>
        <time>2020-08-18T09:01:49.000Z</time>
      </trkpt>
      <trkpt lat="49.33143" lon="0.96835">
        <ele>85.2</ele>
        <time>2020-08-18T09:01:54.000Z</time>
      </trkpt>
      <trkpt lat="49.33137" lon="0.96849">
        <ele>86.9</ele>
        <time>2020-08-18T09:01:59.000Z</time>
      </trkpt>
      <trkpt lat="49.33133" lon="0.96866">
        <ele>89.4</ele>
        <time>2020-08-18T09:02:04.000Z</time>
      </trkpt>
      <trkpt lat="49.33125" lon="0.96878">
        <ele>90</ele>
        <time>2020-08-18T09:02:09.000Z</time>
      </trkpt>
      <trkpt lat="49.33115" lon="0.96891">
        <ele>90.6</ele>
        <time>2020-08-18T09:02:14.000Z</time>
      </trkpt>
      <trkpt lat="49.33108" lon="0.96906">
        <ele>91.8</ele>
        <time>2020-08-18T09:02:19.000Z</time>
      </trkpt>
      <trkpt lat="49.33102" lon="0.9692">
        <ele>93.5</ele>
        <time>2020-08-18T09:02:24.000Z</time>
      </trkpt>
      <trkpt lat="49.33095" lon="0.96937">
        <ele>94.9</ele>
        <time>2020-08-18T09:02:29.000Z</time>
      </trkpt>
      <trkpt lat="49.33086" lon="0.96956">
        <ele>96.2</ele>
        <time>2020-08-18T09:02:34.000Z</time>
      </trkpt>
      <trkpt lat="49.33078" lon="0.96973">
        <ele>97.1</ele>
        <time>2020-08-18T09:02:39.000Z</time>
      </trkpt>
      <trkpt lat="49.3307" lon="0.9699">
        <ele>96.8</ele>
        <time>2020-08-18T09:02:44.000Z</time>
      </trkpt>
      <trkpt lat="49.33058" lon="0.97018">
        <ele>96.7</ele>
        <time>2020-08-18T09:02:49.000Z</time>
      </trkpt>
      <trkpt lat="49.33045" lon="0.97048">
        <ele>95.9</ele>
        <time>2020-08-18T09:02:54.000Z</time>
      </trkpt>
      <trkpt lat="49.33034" lon="0.97068">
        <ele>95.1</ele>
        <time>2020-08-18T09:02:59.000Z</time>
      </trkpt>
      <trkpt lat="49.33026" lon="0.97084">
        <ele>94.5</ele>
        <time>2020-08-18T09:03:04.000Z</time>
      </trkpt>
      <trkpt lat="49.33019" lon="0.97098">
        <ele>94.4</ele>
        <time>2020-08-18T09:03:09.000Z</time>
      </trkpt>
      <trkpt lat="49.33011" lon="0.97106">
        <ele>93.4</ele>
        <time>2020-08-18T09:03:14.000Z</time>
      </trkpt>
      <trkpt lat="49.32997" lon="0.97111">
        <ele>92.2</ele>
        <time>2020-08-18T09:03:19.000Z</time>
      </trkpt>
      <trkpt lat="49.32975" lon="0.9712">
        <ele>90.9</ele>
        <time>2020-08-18T09:03:24.000Z</time>
      </trkpt>
      <trkpt lat="49.32949" lon="0.97117">
        <ele>87.6</ele>
        <time>2020-08-18T09:03:29.000Z</time>
      </trkpt>
      <trkpt lat="49.32927" lon="0.97118">
        <ele>84.6</ele>
        <time>2020-08-18T09:03:34.000Z</time>
      </trkpt>
      <trkpt lat="49.3292" lon="0.97125">
        <ele>83.3</ele>
        <time>2020-08-18T09:03:39.000Z</time>
      </trkpt>
      <trkpt lat="49.32927" lon="0.97124">
        <ele>81</ele>
        <time>2020-08-18T09:03:44.000Z</time>
      </trkpt>
      <trkpt lat="49.32939" lon="0.97126">
        <ele>80.7</ele>
        <time>2020-08-18T09:03:49.000Z</time>
      </trkpt>
      <trkpt lat="49.32952" lon="0.97129">
        <ele>80.4</ele>
        <time>2020-08-18T09:03:54.000Z</time>
      </trkpt>
      <trkpt lat="49.3296" lon="0.97133">
        <ele>79.9</ele>
        <time>2020-08-18T09:03:59.000Z</time>
      </trkpt>
      <trkpt lat="49.32968" lon="0.97139">
        <ele>79.1</ele>
        <time>2020-08-18T09:04:04.000Z</time>
      </trkpt>
      <trkpt lat="49.32979" lon="0.97142">
        <ele>78.5</ele>
        <time>2020-08-18T09:04:09.000Z</time>
      </trkpt>
      <trkpt lat="49.32992" lon="0.97146">
        <ele>77.1</ele>
        <time>2020-08-18T09:04:14.000Z</time>
      </trkpt>
      <trkpt lat="49.33007" lon="0.97149">
        <ele>74.5</ele>
        <time>2020-08-18T09:04:19.000Z</time>
      </trkpt>
      <trkpt lat="49.33021" lon="0.97157">
        <ele>72.7</ele>
        <time>2020-08-18T09:04:24.000Z</time>
      </trkpt>
      <trkpt lat="49.33037" lon="0.97162">
        <ele>71.8</ele>
        <time>2020-08-18T09:04:29.000Z</time>
      </trkpt>
      <trkpt lat="49.33055" lon="0.97166">
        <ele>70.9</ele>
        <time>2020-08-18T09:04:34.000Z</time>
      </trkpt>
      <trkpt lat="49.33068" lon="0.97171">
        <ele>71.1</ele>
        <time>2020-08-18T09:04:39.000Z</time>
      </trkpt>
      <trkpt lat="49.33076" lon="0.97177">
        <ele>70.1</ele>
        <time>2020-08-18T09:04:44.000Z</time>
      </trkpt>
      <trkpt lat="49.33081" lon="0.97179">
        <ele>69.1</ele>
        <time>2020-08-18T09:04:49.000Z</time>
      </trkpt>
      <trkpt lat="49.3309" lon="0.9718">
        <ele>67.9</ele>
        <time>2020-08-18T09:04:56.000Z</time>
      </trkpt>
      <trkpt lat="49.33099" lon="0.97182">
        <ele>67.5</ele>
        <time>2020-08-18T09:05:01.000Z</time>
      </trkpt>
      <trkpt lat="49.331" lon="0.97191">
        <ele>66.9</ele>
        <time>2020-08-18T09:05:06.000Z</time>
      </trkpt>
      <trkpt lat="49.33091" lon="0.97206">
        <ele>66.9</ele>
        <time>2020-08-18T09:05:11.000Z</time>
      </trkpt>
      <trkpt lat="49.33079" lon="0.97216">
        <ele>66.4</ele>
        <time>2020-08-18T09:05:16.000Z</time>
      </trkpt>
      <trkpt lat="49.33067" lon="0.97219">
        <ele>65.1</ele>
        <time>2020-08-18T09:05:21.000Z</time>
      </trkpt>
      <trkpt lat="49.33063" lon="0.97234">
        <ele>64</ele>
        <time>2020-08-18T09:05:26.000Z</time>
      </trkpt>
      <trkpt lat="49.3307" lon="0.97239">
        <ele>63.2</ele>
        <time>2020-08-18T09:05:31.000Z</time>
      </trkpt>
      <trkpt lat="49.33079" lon="0.9724">
        <ele>62.3</ele>
        <time>2020-08-18T09:05:36.000Z</time>
      </trkpt>
      <trkpt lat="49.33092" lon="0.9724">
        <ele>61.7</ele>
        <time>2020-08-18T09:05:41.000Z</time>
      </trkpt>
      <trkpt lat="49.33106" lon="0.97236">
        <ele>61.4</ele>
        <time>2020-08-18T09:05:46.000Z</time>
      </trkpt>
      <trkpt lat="49.33119" lon="0.97228">
        <ele>60.9</ele>
        <time>2020-08-18T09:05:51.000Z</time>
      </trkpt>
      <trkpt lat="49.33132" lon="0.97219">
        <ele>60.3</ele>
        <time>2020-08-18T09:05:56.000Z</time>
      </trkpt>
      <trkpt lat="49.3314" lon="0.97212">
        <ele>59.9</ele>
        <time>2020-08-18T09:06:01.000Z</time>
      </trkpt>
      <trkpt lat="49.33143" lon="0.97211">
        <ele>59.5</ele>
        <time>2020-08-18T09:06:06.000Z</time>
      </trkpt>
      <trkpt lat="49.33144" lon="0.97214">
        <ele>58.4</ele>
        <time>2020-08-18T09:06:11.000Z</time>
      </trkpt>
      <trkpt lat="49.33142" lon="0.97217">
        <ele>58</ele>
        <time>2020-08-18T09:06:16.000Z</time>
      </trkpt>
      <trkpt lat="49.33142" lon="0.97218">
        <ele>57.4</ele>
        <time>2020-08-18T09:06:39.000Z</time>
      </trkpt>
      <trkpt lat="49.33142" lon="0.97219">
        <ele>57.5</ele>
        <time>2020-08-18T09:06:40.000Z</time>
      </trkpt>
      <trkpt lat="49.33138" lon="0.97232">
        <ele>57.2</ele>
        <time>2020-08-18T09:06:47.000Z</time>
      </trkpt>
      <trkpt lat="49.33132" lon="0.97247">
        <ele>57.2</ele>
        <time>2020-08-18T09:06:52.000Z</time>
      </trkpt>
      <trkpt lat="49.33131" lon="0.97249">
        <ele>57.4</ele>
        <time>2020-08-18T09:06:57.000Z</time>
      </trkpt>
      <trkpt lat="49.33127" lon="0.97249">
        <ele>56.9</ele>
        <time>2020-08-18T09:07:02.000Z</time>
      </trkpt>
      <trkpt lat="49.33126" lon="0.97247">
        <ele>53.8</ele>
        <time>2020-08-18T09:07:17.000Z</time>
      </trkpt>
      <trkpt lat="49.33127" lon="0.97247">
        <ele>53.2</ele>
        <time>2020-08-18T09:07:19.000Z</time>
      </trkpt>
      <trkpt lat="49.33127" lon="0.97246">
        <ele>52.9</ele>
        <time>2020-08-18T09:07:23.000Z</time>
      </trkpt>
      <trkpt lat="49.3313" lon="0.97246">
        <ele>52</ele>
        <time>2020-08-18T09:07:28.000Z</time>
      </trkpt>
      <trkpt lat="49.33132" lon="0.97246">
        <ele>51.7</ele>
        <time>2020-08-18T09:07:33.000Z</time>
      </trkpt>
      <trkpt lat="49.33135" lon="0.97246">
        <ele>51.5</ele>
        <time>2020-08-18T09:07:38.000Z</time>
      </trkpt>
      <trkpt lat="49.33136" lon="0.97245">
        <ele>51.1</ele>
        <time>2020-08-18T09:07:46.000Z</time>
      </trkpt>
      <trkpt lat="49.33137" lon="0.97244">
        <ele>51</ele>
        <time>2020-08-18T09:07:51.000Z</time>
      </trkpt>
      <trkpt lat="49.33139" lon="0.97243">
        <ele>51.3</ele>
        <time>2020-08-18T09:07:58.000Z</time>
      </trkpt>
      <trkpt lat="49.3314" lon="0.97246">
        <ele>51.3</ele>
        <time>2020-08-18T09:08:03.000Z</time>
      </trkpt>
      <trkpt lat="49.33141" lon="0.97249">
        <ele>51.7</ele>
        <time>2020-08-18T09:08:08.000Z</time>
      </trkpt>
      <trkpt lat="49.33141" lon="0.9725">
        <ele>51.9</ele>
        <time>2020-08-18T09:08:10.000Z</time>
      </trkpt>
      <trkpt lat="49.33141" lon="0.97252">
        <ele>52.6</ele>
        <time>2020-08-18T09:08:15.000Z</time>
      </trkpt>
      <trkpt lat="49.33141" lon="0.97253">
        <ele>53.6</ele>
        <time>2020-08-18T09:08:20.000Z</time>
      </trkpt>
      <trkpt lat="49.3314" lon="0.97251">
        <ele>54.3</ele>
        <time>2020-08-18T09:08:25.000Z</time>
      </trkpt>
      <trkpt lat="49.3314" lon="0.9725">
        <ele>54.4</ele>
        <time>2020-08-18T09:08:27.000Z</time>
      </trkpt>
      <trkpt lat="49.33139" lon="0.97248">
        <ele>54.4</ele>
        <time>2020-08-18T09:08:33.000Z</time>
      </trkpt>
      <trkpt lat="49.33137" lon="0.97247">
        <ele>54.3</ele>
        <time>2020-08-18T09:08:38.000Z</time>
      </trkpt>
      <trkpt lat="49.33134" lon="0.97244">
        <ele>54.9</ele>
        <time>2020-08-18T09:08:42.000Z</time>
      </trkpt>
      <trkpt lat="49.33133" lon="0.97244">
        <ele>55</ele>
        <time>2020-08-18T09:09:15.000Z</time>
      </trkpt>
      <trkpt lat="49.33132" lon="0.97245">
        <ele>54.6</ele>
        <time>2020-08-18T09:10:11.000Z</time>
      </trkpt>
      <trkpt lat="49.33124" lon="0.97254">
        <ele>50.3</ele>
        <time>2020-08-18T09:10:16.000Z</time>
      </trkpt>
      <trkpt lat="49.33125" lon="0.97254">
        <ele>50.4</ele>
        <time>2020-08-18T09:10:24.000Z</time>
      </trkpt>
      <trkpt lat="49.33122" lon="0.97258">
        <ele>50.6</ele>
        <time>2020-08-18T09:10:29.000Z</time>
      </trkpt>
      <trkpt lat="49.33116" lon="0.97271">
        <ele>50.4</ele>
        <time>2020-08-18T09:10:34.000Z</time>
      </trkpt>
      <trkpt lat="49.33104" lon="0.973">
        <ele>50.1</ele>
        <time>2020-08-18T09:10:39.000Z</time>
      </trkpt>
      <trkpt lat="49.33088" lon="0.97321">
        <ele>49.4</ele>
        <time>2020-08-18T09:10:44.000Z</time>
      </trkpt>
      <trkpt lat="49.33071" lon="0.97335">
        <ele>48.6</ele>
        <time>2020-08-18T09:10:49.000Z</time>
      </trkpt>
      <trkpt lat="49.3306" lon="0.9735">
        <ele>48.1</ele>
        <time>2020-08-18T09:10:54.000Z</time>
      </trkpt>
      <trkpt lat="49.33062" lon="0.97377">
        <ele>45.7</ele>
        <time>2020-08-18T09:10:59.000Z</time>
      </trkpt>
      <trkpt lat="49.33069" lon="0.97395">
        <ele>43.8</ele>
        <time>2020-08-18T09:11:04.000Z</time>
      </trkpt>
      <trkpt lat="49.33068" lon="0.97417">
        <ele>43.5</ele>
        <time>2020-08-18T09:11:09.000Z</time>
      </trkpt>
      <trkpt lat="49.3306" lon="0.9743">
        <ele>43</ele>
        <time>2020-08-18T09:11:14.000Z</time>
      </trkpt>
      <trkpt lat="49.33051" lon="0.97443">
        <ele>42.8</ele>
        <time>2020-08-18T09:11:19.000Z</time>
      </trkpt>
      <trkpt lat="49.33049" lon="0.97458">
        <ele>42.1</ele>
        <time>2020-08-18T09:11:24.000Z</time>
      </trkpt>
      <trkpt lat="49.33053" lon="0.97469">
        <ele>39.3</ele>
        <time>2020-08-18T09:11:29.000Z</time>
      </trkpt>
      <trkpt lat="49.33063" lon="0.97479">
        <ele>38.3</ele>
        <time>2020-08-18T09:11:34.000Z</time>
      </trkpt>
      <trkpt lat="49.33079" lon="0.97482">
        <ele>36.9</ele>
        <time>2020-08-18T09:11:39.000Z</time>
      </trkpt>
      <trkpt lat="49.33094" lon="0.97479">
        <ele>36.6</ele>
        <time>2020-08-18T09:11:44.000Z</time>
      </trkpt>
      <trkpt lat="49.33105" lon="0.97474">
        <ele>36.3</ele>
        <time>2020-08-18T09:11:49.000Z</time>
      </trkpt>
      <trkpt lat="49.3312" lon="0.97471">
        <ele>36.4</ele>
        <time>2020-08-18T09:11:54.000Z</time>
      </trkpt>
      <trkpt lat="49.33134" lon="0.97463">
        <ele>36.4</ele>
        <time>2020-08-18T09:11:59.000Z</time>
      </trkpt>
      <trkpt lat="49.33148" lon="0.97454">
        <ele>36.4</ele>
        <time>2020-08-18T09:12:04.000Z</time>
      </trkpt>
      <trkpt lat="49.33162" lon="0.97441">
        <ele>36</ele>
        <time>2020-08-18T09:12:09.000Z</time>
      </trkpt>
      <trkpt lat="49.33174" lon="0.97424">
        <ele>35.3</ele>
        <time>2020-08-18T09:12:14.000Z</time>
      </trkpt>
      <trkpt lat="49.33183" lon="0.97418">
        <ele>35.3</ele>
        <time>2020-08-18T09:12:19.000Z</time>
      </trkpt>
      <trkpt lat="49.33195" lon="0.97411">
        <ele>36.1</ele>
        <time>2020-08-18T09:12:24.000Z</time>
      </trkpt>
      <trkpt lat="49.33208" lon="0.97405">
        <ele>36.4</ele>
        <time>2020-08-18T09:12:29.000Z</time>
      </trkpt>
      <trkpt lat="49.3322" lon="0.97401">
        <ele>36.3</ele>
        <time>2020-08-18T09:12:34.000Z</time>
      </trkpt>
      <trkpt lat="49.33234" lon="0.97393">
        <ele>36.9</ele>
        <time>2020-08-18T09:12:39.000Z</time>
      </trkpt>
      <trkpt lat="49.33249" lon="0.97382">
        <ele>37.4</ele>
        <time>2020-08-18T09:12:44.000Z</time>
      </trkpt>
      <trkpt lat="49.33264" lon="0.97374">
        <ele>37.7</ele>
        <time>2020-08-18T09:12:49.000Z</time>
      </trkpt>
      <trkpt lat="49.33279" lon="0.97371">
        <ele>39.2</ele>
        <time>2020-08-18T09:12:54.000Z</time>
      </trkpt>
      <trkpt lat="49.33291" lon="0.97373">
        <ele>39.1</ele>
        <time>2020-08-18T09:12:59.000Z</time>
      </trkpt>
      <trkpt lat="49.33299" lon="0.9737">
        <ele>39</ele>
        <time>2020-08-18T09:13:04.000Z</time>
      </trkpt>
      <trkpt lat="49.33308" lon="0.97359">
        <ele>39.8</ele>
        <time>2020-08-18T09:13:09.000Z</time>
      </trkpt>
      <trkpt lat="49.33321" lon="0.97357">
        <ele>40.8</ele>
        <time>2020-08-18T09:13:14.000Z</time>
      </trkpt>
      <trkpt lat="49.33335" lon="0.9736">
        <ele>42.6</ele>
        <time>2020-08-18T09:13:19.000Z</time>
      </trkpt>
      <trkpt lat="49.33343" lon="0.97371">
        <ele>43.2</ele>
        <time>2020-08-18T09:13:24.000Z</time>
      </trkpt>
      <trkpt lat="49.33351" lon="0.97381">
        <ele>44</ele>
        <time>2020-08-18T09:13:29.000Z</time>
      </trkpt>
      <trkpt lat="49.3336" lon="0.9739">
        <ele>45.6</ele>
        <time>2020-08-18T09:13:34.000Z</time>
      </trkpt>
      <trkpt lat="49.33366" lon="0.9741">
        <ele>46.2</ele>
        <time>2020-08-18T09:13:39.000Z</time>
      </trkpt>
      <trkpt lat="49.33377" lon="0.97416">
        <ele>47.7</ele>
        <time>2020-08-18T09:13:44.000Z</time>
      </trkpt>
      <trkpt lat="49.33387" lon="0.97418">
        <ele>48.3</ele>
        <time>2020-08-18T09:13:49.000Z</time>
      </trkpt>
      <trkpt lat="49.33393" lon="0.97412">
        <ele>47.7</ele>
        <time>2020-08-18T09:13:54.000Z</time>
      </trkpt>
      <trkpt lat="49.33395" lon="0.97398">
        <ele>48.6</ele>
        <time>2020-08-18T09:13:59.000Z</time>
      </trkpt>
      <trkpt lat="49.33399" lon="0.97379">
        <ele>49.3</ele>
        <time>2020-08-18T09:14:04.000Z</time>
      </trkpt>
      <trkpt lat="49.33401" lon="0.97361">
        <ele>51</ele>
        <time>2020-08-18T09:14:09.000Z</time>
      </trkpt>
      <trkpt lat="49.33403" lon="0.97348">
        <ele>51.6</ele>
        <time>2020-08-18T09:14:14.000Z</time>
      </trkpt>
      <trkpt lat="49.33407" lon="0.97341">
        <ele>52.5</ele>
        <time>2020-08-18T09:14:19.000Z</time>
      </trkpt>
      <trkpt lat="49.33409" lon="0.97329">
        <ele>52.7</ele>
        <time>2020-08-18T09:14:24.000Z</time>
      </trkpt>
      <trkpt lat="49.33418" lon="0.97321">
        <ele>53.3</ele>
        <time>2020-08-18T09:14:29.000Z</time>
      </trkpt>
      <trkpt lat="49.33427" lon="0.97307">
        <ele>54.2</ele>
        <time>2020-08-18T09:14:34.000Z</time>
      </trkpt>
      <trkpt lat="49.33437" lon="0.97299">
        <ele>54.7</ele>
        <time>2020-08-18T09:14:39.000Z</time>
      </trkpt>
      <trkpt lat="49.33446" lon="0.97304">
        <ele>56</ele>
        <time>2020-08-18T09:14:44.000Z</time>
      </trkpt>
      <trkpt lat="49.33455" lon="0.97317">
        <ele>55.6</ele>
        <time>2020-08-18T09:14:49.000Z</time>
      </trkpt>
      <trkpt lat="49.33456" lon="0.97332">
        <ele>55.9</ele>
        <time>2020-08-18T09:14:54.000Z</time>
      </trkpt>
      <trkpt lat="49.33461" lon="0.97347">
        <ele>56.2</ele>
        <time>2020-08-18T09:14:59.000Z</time>
      </trkpt>
      <trkpt lat="49.33468" lon="0.97355">
        <ele>56.5</ele>
        <time>2020-08-18T09:15:04.000Z</time>
      </trkpt>
      <trkpt lat="49.33475" lon="0.97364">
        <ele>58.4</ele>
        <time>2020-08-18T09:15:09.000Z</time>
      </trkpt>
      <trkpt lat="49.33481" lon="0.97371">
        <ele>59.3</ele>
        <time>2020-08-18T09:15:14.000Z</time>
      </trkpt>
      <trkpt lat="49.33487" lon="0.97371">
        <ele>60.2</ele>
        <time>2020-08-18T09:15:19.000Z</time>
      </trkpt>
      <trkpt lat="49.33495" lon="0.97373">
        <ele>60.9</ele>
        <time>2020-08-18T09:15:24.000Z</time>
      </trkpt>
      <trkpt lat="49.33501" lon="0.97386">
        <ele>62.2</ele>
        <time>2020-08-18T09:15:29.000Z</time>
      </trkpt>
      <trkpt lat="49.33505" lon="0.97397">
        <ele>63</ele>
        <time>2020-08-18T09:15:34.000Z</time>
      </trkpt>
      <trkpt lat="49.33516" lon="0.97408">
        <ele>63.3</ele>
        <time>2020-08-18T09:15:39.000Z</time>
      </trkpt>
      <trkpt lat="49.33534" lon="0.97421">
        <ele>64.2</ele>
        <time>2020-08-18T09:15:44.000Z</time>
      </trkpt>
      <trkpt lat="49.33549" lon="0.97434">
        <ele>65.5</ele>
        <time>2020-08-18T09:15:49.000Z</time>
      </trkpt>
      <trkpt lat="49.33558" lon="0.97439">
        <ele>66.8</ele>
        <time>2020-08-18T09:15:54.000Z</time>
      </trkpt>
      <trkpt lat="49.33567" lon="0.97444">
        <ele>67.7</ele>
        <time>2020-08-18T09:15:59.000Z</time>
      </trkpt>
      <trkpt lat="49.33574" lon="0.97448">
        <ele>68.2</ele>
        <time>2020-08-18T09:16:04.000Z</time>
      </trkpt>
      <trkpt lat="49.33582" lon="0.97454">
        <ele>68.7</ele>
        <time>2020-08-18T09:16:09.000Z</time>
      </trkpt>
      <trkpt lat="49.33589" lon="0.97456">
        <ele>69.4</ele>
        <time>2020-08-18T09:16:14.000Z</time>
      </trkpt>
      <trkpt lat="49.33595" lon="0.97459">
        <ele>69.9</ele>
        <time>2020-08-18T09:16:19.000Z</time>
      </trkpt>
      <trkpt lat="49.33597" lon="0.9746">
        <ele>69</ele>
        <time>2020-08-18T09:16:24.000Z</time>
      </trkpt>
      <trkpt lat="49.336" lon="0.97461">
        <ele>68.7</ele>
        <time>2020-08-18T09:16:29.000Z</time>
      </trkpt>
      <trkpt lat="49.33605" lon="0.97467">
        <ele>68.8</ele>
        <time>2020-08-18T09:16:34.000Z</time>
      </trkpt>
      <trkpt lat="49.33609" lon="0.97478">
        <ele>69.2</ele>
        <time>2020-08-18T09:16:39.000Z</time>
      </trkpt>
      <trkpt lat="49.33614" lon="0.9749">
        <ele>69.8</ele>
        <time>2020-08-18T09:16:44.000Z</time>
      </trkpt>
      <trkpt lat="49.33617" lon="0.97503">
        <ele>70</ele>
        <time>2020-08-18T09:16:49.000Z</time>
      </trkpt>
      <trkpt lat="49.33615" lon="0.9752">
        <ele>70.7</ele>
        <time>2020-08-18T09:16:54.000Z</time>
      </trkpt>
      <trkpt lat="49.33614" lon="0.97536">
        <ele>70.7</ele>
        <time>2020-08-18T09:16:59.000Z</time>
      </trkpt>
      <trkpt lat="49.33619" lon="0.97545">
        <ele>71.5</ele>
        <time>2020-08-18T09:17:04.000Z</time>
      </trkpt>
      <trkpt lat="49.33623" lon="0.97558">
        <ele>72.3</ele>
        <time>2020-08-18T09:17:09.000Z</time>
      </trkpt>
      <trkpt lat="49.3362" lon="0.97575">
        <ele>71.8</ele>
        <time>2020-08-18T09:17:14.000Z</time>
      </trkpt>
      <trkpt lat="49.33608" lon="0.97582">
        <ele>72.5</ele>
        <time>2020-08-18T09:17:19.000Z</time>
      </trkpt>
      <trkpt lat="49.33595" lon="0.97578">
        <ele>72.2</ele>
        <time>2020-08-18T09:17:24.000Z</time>
      </trkpt>
      <trkpt lat="49.33583" lon="0.97573">
        <ele>72</ele>
        <time>2020-08-18T09:17:29.000Z</time>
      </trkpt>
      <trkpt lat="49.3357" lon="0.97563">
        <ele>71.9</ele>
        <time>2020-08-18T09:17:34.000Z</time>
      </trkpt>
      <trkpt lat="49.33557" lon="0.97563">
        <ele>72.6</ele>
        <time>2020-08-18T09:17:39.000Z</time>
      </trkpt>
      <trkpt lat="49.33542" lon="0.97561">
        <ele>72.7</ele>
        <time>2020-08-18T09:17:44.000Z</time>
      </trkpt>
      <trkpt lat="49.33527" lon="0.9756">
        <ele>72.6</ele>
        <time>2020-08-18T09:17:49.000Z</time>
      </trkpt>
      <trkpt lat="49.33517" lon="0.97551">
        <ele>72.1</ele>
        <time>2020-08-18T09:17:54.000Z</time>
      </trkpt>
      <trkpt lat="49.33499" lon="0.97542">
        <ele>72</ele>
        <time>2020-08-18T09:17:59.000Z</time>
      </trkpt>
      <trkpt lat="49.3348" lon="0.97541">
        <ele>71.6</ele>
        <time>2020-08-18T09:18:04.000Z</time>
      </trkpt>
      <trkpt lat="49.33463" lon="0.97553">
        <ele>70.7</ele>
        <time>2020-08-18T09:18:09.000Z</time>
      </trkpt>
      <trkpt lat="49.33443" lon="0.97573">
        <ele>70.1</ele>
        <time>2020-08-18T09:18:14.000Z</time>
      </trkpt>
      <trkpt lat="49.33419" lon="0.97595">
        <ele>69.8</ele>
        <time>2020-08-18T09:18:19.000Z</time>
      </trkpt>
      <trkpt lat="49.334" lon="0.97617">
        <ele>69.7</ele>
        <time>2020-08-18T09:18:24.000Z</time>
      </trkpt>
      <trkpt lat="49.33398" lon="0.9764">
        <ele>69.2</ele>
        <time>2020-08-18T09:18:29.000Z</time>
      </trkpt>
      <trkpt lat="49.33406" lon="0.97652">
        <ele>68.8</ele>
        <time>2020-08-18T09:18:34.000Z</time>
      </trkpt>
      <trkpt lat="49.33412" lon="0.97663">
        <ele>68.9</ele>
        <time>2020-08-18T09:18:39.000Z</time>
      </trkpt>
      <trkpt lat="49.33417" lon="0.97676">
        <ele>68.8</ele>
        <time>2020-08-18T09:18:44.000Z</time>
      </trkpt>
      <trkpt lat="49.33421" lon="0.97695">
        <ele>69.6</ele>
        <time>2020-08-18T09:18:49.000Z</time>
      </trkpt>
      <trkpt lat="49.33426" lon="0.97712">
        <ele>69.8</ele>
        <time>2020-08-18T09:18:54.000Z</time>
      </trkpt>
      <trkpt lat="49.33427" lon="0.97731">
        <ele>70.6</ele>
        <time>2020-08-18T09:18:59.000Z</time>
      </trkpt>
      <trkpt lat="49.33427" lon="0.97754">
        <ele>73</ele>
        <time>2020-08-18T09:19:04.000Z</time>
      </trkpt>
      <trkpt lat="49.33427" lon="0.97775">
        <ele>75.6</ele>
        <time>2020-08-18T09:19:09.000Z</time>
      </trkpt>
      <trkpt lat="49.33425" lon="0.97803">
        <ele>77.1</ele>
        <time>2020-08-18T09:19:14.000Z</time>
      </trkpt>
      <trkpt lat="49.33425" lon="0.97829">
        <ele>77.4</ele>
        <time>2020-08-18T09:19:19.000Z</time>
      </trkpt>
      <trkpt lat="49.3342" lon="0.97849">
        <ele>78.4</ele>
        <time>2020-08-18T09:19:24.000Z</time>
      </trkpt>
      <trkpt lat="49.33416" lon="0.9787">
        <ele>80</ele>
        <time>2020-08-18T09:19:29.000Z</time>
      </trkpt>
      <trkpt lat="49.33405" lon="0.97893">
        <ele>79.9</ele>
        <time>2020-08-18T09:19:34.000Z</time>
      </trkpt>
      <trkpt lat="49.3339" lon="0.97912">
        <ele>78.6</ele>
        <time>2020-08-18T09:19:39.000Z</time>
      </trkpt>
      <trkpt lat="49.33384" lon="0.97926">
        <ele>80.3</ele>
        <time>2020-08-18T09:19:44.000Z</time>
      </trkpt>
      <trkpt lat="49.33372" lon="0.97941">
        <ele>79.2</ele>
        <time>2020-08-18T09:19:49.000Z</time>
      </trkpt>
      <trkpt lat="49.33363" lon="0.97962">
        <ele>79.3</ele>
        <time>2020-08-18T09:19:54.000Z</time>
      </trkpt>
      <trkpt lat="49.33357" lon="0.97981">
        <ele>79.7</ele>
        <time>2020-08-18T09:19:59.000Z</time>
      </trkpt>
      <trkpt lat="49.33357" lon="0.97999">
        <ele>79.5</ele>
        <time>2020-08-18T09:20:04.000Z</time>
      </trkpt>
      <trkpt lat="49.33354" lon="0.98016">
        <ele>79.3</ele>
        <time>2020-08-18T09:20:09.000Z</time>
      </trkpt>
      <trkpt lat="49.33358" lon="0.98033">
        <ele>78.1</ele>
        <time>2020-08-18T09:20:14.000Z</time>
      </trkpt>
      <trkpt lat="49.33361" lon="0.98045">
        <ele>77.2</ele>
        <time>2020-08-18T09:20:19.000Z</time>
      </trkpt>
      <trkpt lat="49.33362" lon="0.98053">
        <ele>77.1</ele>
        <time>2020-08-18T09:20:24.000Z</time>
      </trkpt>
      <trkpt lat="49.33363" lon="0.98067">
        <ele>77.4</ele>
        <time>2020-08-18T09:20:29.000Z</time>
      </trkpt>
      <trkpt lat="49.33362" lon="0.98084">
        <ele>77.6</ele>
        <time>2020-08-18T09:20:34.000Z</time>
      </trkpt>
      <trkpt lat="49.33361" lon="0.98101">
        <ele>77.5</ele>
        <time>2020-08-18T09:20:39.000Z</time>
      </trkpt>
      <trkpt lat="49.33357" lon="0.98122">
        <ele>78</ele>
        <time>2020-08-18T09:20:44.000Z</time>
      </trkpt>
      <trkpt lat="49.33357" lon="0.98144">
        <ele>77.6</ele>
        <time>2020-08-18T09:20:49.000Z</time>
      </trkpt>
      <trkpt lat="49.3336" lon="0.98159">
        <ele>78.8</ele>
        <time>2020-08-18T09:20:54.000Z</time>
      </trkpt>
      <trkpt lat="49.3336" lon="0.98177">
        <ele>79.9</ele>
        <time>2020-08-18T09:20:59.000Z</time>
      </trkpt>
      <trkpt lat="49.33359" lon="0.98195">
        <ele>80.4</ele>
        <time>2020-08-18T09:21:04.000Z</time>
      </trkpt>
      <trkpt lat="49.33352" lon="0.98206">
        <ele>80.4</ele>
        <time>2020-08-18T09:21:09.000Z</time>
      </trkpt>
      <trkpt lat="49.33346" lon="0.98196">
        <ele>80.1</ele>
        <time>2020-08-18T09:21:14.000Z</time>
      </trkpt>
      <trkpt lat="49.33343" lon="0.98177">
        <ele>79.4</ele>
        <time>2020-08-18T09:21:19.000Z</time>
      </trkpt>
      <trkpt lat="49.33338" lon="0.98147">
        <ele>78.8</ele>
        <time>2020-08-18T09:21:24.000Z</time>
      </trkpt>
      <trkpt lat="49.33331" lon="0.98111">
        <ele>78.3</ele>
        <time>2020-08-18T09:21:29.000Z</time>
      </trkpt>
      <trkpt lat="49.33319" lon="0.98081">
        <ele>78.2</ele>
        <time>2020-08-18T09:21:34.000Z</time>
      </trkpt>
      <trkpt lat="49.33305" lon="0.98063">
        <ele>78.4</ele>
        <time>2020-08-18T09:21:39.000Z</time>
      </trkpt>
      <trkpt lat="49.33294" lon="0.98052">
        <ele>77.9</ele>
        <time>2020-08-18T09:21:44.000Z</time>
      </trkpt>
      <trkpt lat="49.33289" lon="0.98036">
        <ele>77.6</ele>
        <time>2020-08-18T09:21:49.000Z</time>
      </trkpt>
      <trkpt lat="49.3328" lon="0.98015">
        <ele>77.9</ele>
        <time>2020-08-18T09:21:54.000Z</time>
      </trkpt>
      <trkpt lat="49.33269" lon="0.97989">
        <ele>78</ele>
        <time>2020-08-18T09:21:59.000Z</time>
      </trkpt>
      <trkpt lat="49.33255" lon="0.97967">
        <ele>77.8</ele>
        <time>2020-08-18T09:22:04.000Z</time>
      </trkpt>
      <trkpt lat="49.33245" lon="0.97949">
        <ele>77.8</ele>
        <time>2020-08-18T09:22:09.000Z</time>
      </trkpt>
      <trkpt lat="49.33232" lon="0.9793">
        <ele>77</ele>
        <time>2020-08-18T09:22:14.000Z</time>
      </trkpt>
      <trkpt lat="49.33217" lon="0.97909">
        <ele>77.1</ele>
        <time>2020-08-18T09:22:19.000Z</time>
      </trkpt>
      <trkpt lat="49.33203" lon="0.97888">
        <ele>76.5</ele>
        <time>2020-08-18T09:22:24.000Z</time>
      </trkpt>
      <trkpt lat="49.33188" lon="0.97873">
        <ele>75.5</ele>
        <time>2020-08-18T09:22:29.000Z</time>
      </trkpt>
      <trkpt lat="49.33177" lon="0.97861">
        <ele>75.4</ele>
        <time>2020-08-18T09:22:34.000Z</time>
      </trkpt>
      <trkpt lat="49.33178" lon="0.97861">
        <ele>74.8</ele>
        <time>2020-08-18T09:22:39.000Z</time>
      </trkpt>
      <trkpt lat="49.33173" lon="0.97854">
        <ele>74.5</ele>
        <time>2020-08-18T09:22:44.000Z</time>
      </trkpt>
      <trkpt lat="49.33165" lon="0.97846">
        <ele>73.9</ele>
        <time>2020-08-18T09:22:49.000Z</time>
      </trkpt>
      <trkpt lat="49.33154" lon="0.97839">
        <ele>73.2</ele>
        <time>2020-08-18T09:22:54.000Z</time>
      </trkpt>
      <trkpt lat="49.33146" lon="0.9784">
        <ele>72.7</ele>
        <time>2020-08-18T09:22:59.000Z</time>
      </trkpt>
      <trkpt lat="49.33134" lon="0.97837">
        <ele>71.9</ele>
        <time>2020-08-18T09:23:04.000Z</time>
      </trkpt>
      <trkpt lat="49.33123" lon="0.97842">
        <ele>71.1</ele>
        <time>2020-08-18T09:23:09.000Z</time>
      </trkpt>
      <trkpt lat="49.33113" lon="0.97842">
        <ele>70.8</ele>
        <time>2020-08-18T09:23:14.000Z</time>
      </trkpt>
      <trkpt lat="49.33101" lon="0.97838">
        <ele>70.5</ele>
        <time>2020-08-18T09:23:19.000Z</time>
      </trkpt>
      <trkpt lat="49.33097" lon="0.97837">
        <ele>70.3</ele>
        <time>2020-08-18T09:23:24.000Z</time>
      </trkpt>
      <trkpt lat="49.33096" lon="0.97837">
        <ele>70.4</ele>
        <time>2020-08-18T09:23:41.000Z</time>
      </trkpt>
      <trkpt lat="49.33089" lon="0.97839">
        <ele>69.8</ele>
        <time>2020-08-18T09:23:46.000Z</time>
      </trkpt>
      <trkpt lat="49.33081" lon="0.97848">
        <ele>69</ele>
        <time>2020-08-18T09:23:51.000Z</time>
      </trkpt>
      <trkpt lat="49.33069" lon="0.97856">
        <ele>68.9</ele>
        <time>2020-08-18T09:23:56.000Z</time>
      </trkpt>
      <trkpt lat="49.33055" lon="0.97867">
        <ele>67.9</ele>
        <time>2020-08-18T09:24:01.000Z</time>
      </trkpt>
      <trkpt lat="49.33047" lon="0.97891">
        <ele>66.9</ele>
        <time>2020-08-18T09:24:06.000Z</time>
      </trkpt>
      <trkpt lat="49.33039" lon="0.97912">
        <ele>66.1</ele>
        <time>2020-08-18T09:24:11.000Z</time>
      </trkpt>
      <trkpt lat="49.33026" lon="0.97929">
        <ele>64.8</ele>
        <time>2020-08-18T09:24:16.000Z</time>
      </trkpt>
      <trkpt lat="49.33018" lon="0.97947">
        <ele>62.6</ele>
        <time>2020-08-18T09:24:21.000Z</time>
      </trkpt>
      <trkpt lat="49.33016" lon="0.97966">
        <ele>62.7</ele>
        <time>2020-08-18T09:24:26.000Z</time>
      </trkpt>
      <trkpt lat="49.33016" lon="0.97984">
        <ele>63.3</ele>
        <time>2020-08-18T09:24:31.000Z</time>
      </trkpt>
      <trkpt lat="49.33015" lon="0.98005">
        <ele>63.4</ele>
        <time>2020-08-18T09:24:36.000Z</time>
      </trkpt>
      <trkpt lat="49.33011" lon="0.98025">
        <ele>64.2</ele>
        <time>2020-08-18T09:24:41.000Z</time>
      </trkpt>
      <trkpt lat="49.33006" lon="0.98041">
        <ele>65</ele>
        <time>2020-08-18T09:24:46.000Z</time>
      </trkpt>
      <trkpt lat="49.33001" lon="0.98056">
        <ele>65.3</ele>
        <time>2020-08-18T09:24:51.000Z</time>
      </trkpt>
      <trkpt lat="49.32997" lon="0.98071">
        <ele>66.5</ele>
        <time>2020-08-18T09:24:56.000Z</time>
      </trkpt>
      <trkpt lat="49.32992" lon="0.98086">
        <ele>67.9</ele>
        <time>2020-08-18T09:25:01.000Z</time>
      </trkpt>
      <trkpt lat="49.32986" lon="0.98103">
        <ele>68.8</ele>
        <time>2020-08-18T09:25:06.000Z</time>
      </trkpt>
      <trkpt lat="49.32983" lon="0.98116">
        <ele>70</ele>
        <time>2020-08-18T09:25:11.000Z</time>
      </trkpt>
      <trkpt lat="49.32979" lon="0.98128">
        <ele>69.9</ele>
        <time>2020-08-18T09:25:16.000Z</time>
      </trkpt>
      <trkpt lat="49.32975" lon="0.98143">
        <ele>70.5</ele>
        <time>2020-08-18T09:25:21.000Z</time>
      </trkpt>
      <trkpt lat="49.3297" lon="0.98158">
        <ele>71.1</ele>
        <time>2020-08-18T09:25:26.000Z</time>
      </trkpt>
      <trkpt lat="49.3297" lon="0.98162">
        <ele>71.5</ele>
        <time>2020-08-18T09:25:31.000Z</time>
      </trkpt>
      <trkpt lat="49.3297" lon="0.98163">
        <ele>72.1</ele>
        <time>2020-08-18T09:25:33.000Z</time>
      </trkpt>
      <trkpt lat="49.3297" lon="0.98168">
        <ele>72.4</ele>
        <time>2020-08-18T09:25:38.000Z</time>
      </trkpt>
      <trkpt lat="49.32965" lon="0.98187">
        <ele>71.9</ele>
        <time>2020-08-18T09:25:43.000Z</time>
      </trkpt>
      <trkpt lat="49.32964" lon="0.9819">
        <ele>72.2</ele>
        <time>2020-08-18T09:25:47.000Z</time>
      </trkpt>
      <trkpt lat="49.32964" lon="0.98191">
        <ele>72.1</ele>
        <time>2020-08-18T09:25:57.000Z</time>
      </trkpt>
      <trkpt lat="49.3296" lon="0.98194">
        <ele>72.3</ele>
        <time>2020-08-18T09:26:02.000Z</time>
      </trkpt>
      <trkpt lat="49.32951" lon="0.98189">
        <ele>71.9</ele>
        <time>2020-08-18T09:26:07.000Z</time>
      </trkpt>
      <trkpt lat="49.32942" lon="0.98174">
        <ele>71.4</ele>
        <time>2020-08-18T09:26:12.000Z</time>
      </trkpt>
      <trkpt lat="49.32939" lon="0.98154">
        <ele>71.2</ele>
        <time>2020-08-18T09:26:17.000Z</time>
      </trkpt>
      <trkpt lat="49.32939" lon="0.9814">
        <ele>70.8</ele>
        <time>2020-08-18T09:26:22.000Z</time>
      </trkpt>
      <trkpt lat="49.32935" lon="0.98126">
        <ele>71.2</ele>
        <time>2020-08-18T09:26:27.000Z</time>
      </trkpt>
      <trkpt lat="49.32937" lon="0.98106">
        <ele>71.3</ele>
        <time>2020-08-18T09:26:32.000Z</time>
      </trkpt>
      <trkpt lat="49.32941" lon="0.98084">
        <ele>70.6</ele>
        <time>2020-08-18T09:26:37.000Z</time>
      </trkpt>
      <trkpt lat="49.32939" lon="0.98068">
        <ele>70.1</ele>
        <time>2020-08-18T09:26:42.000Z</time>
      </trkpt>
      <trkpt lat="49.32934" lon="0.98056">
        <ele>69.8</ele>
        <time>2020-08-18T09:26:47.000Z</time>
      </trkpt>
      <trkpt lat="49.32935" lon="0.98045">
        <ele>69.7</ele>
        <time>2020-08-18T09:26:52.000Z</time>
      </trkpt>
      <trkpt lat="49.32937" lon="0.98028">
        <ele>69.8</ele>
        <time>2020-08-18T09:26:57.000Z</time>
      </trkpt>
      <trkpt lat="49.32932" lon="0.98016">
        <ele>70</ele>
        <time>2020-08-18T09:27:02.000Z</time>
      </trkpt>
      <trkpt lat="49.3293" lon="0.98002">
        <ele>70.6</ele>
        <time>2020-08-18T09:27:07.000Z</time>
      </trkpt>
      <trkpt lat="49.32928" lon="0.97987">
        <ele>70.8</ele>
        <time>2020-08-18T09:27:12.000Z</time>
      </trkpt>
      <trkpt lat="49.32926" lon="0.9797">
        <ele>71.7</ele>
        <time>2020-08-18T09:27:17.000Z</time>
      </trkpt>
      <trkpt lat="49.32926" lon="0.9796">
        <ele>72.1</ele>
        <time>2020-08-18T09:27:22.000Z</time>
      </trkpt>
      <trkpt lat="49.32922" lon="0.97961">
        <ele>71.7</ele>
        <time>2020-08-18T09:27:27.000Z</time>
      </trkpt>
      <trkpt lat="49.32917" lon="0.97961">
        <ele>72.1</ele>
        <time>2020-08-18T09:27:32.000Z</time>
      </trkpt>
      <trkpt lat="49.32915" lon="0.9796">
        <ele>72.5</ele>
        <time>2020-08-18T09:27:37.000Z</time>
      </trkpt>
      <trkpt lat="49.32914" lon="0.9796">
        <ele>72.6</ele>
        <time>2020-08-18T09:27:40.000Z</time>
      </trkpt>
      <trkpt lat="49.32914" lon="0.97959">
        <ele>72.7</ele>
        <time>2020-08-18T09:27:41.000Z</time>
      </trkpt>
      <trkpt lat="49.32909" lon="0.97959">
        <ele>72.5</ele>
        <time>2020-08-18T09:27:46.000Z</time>
      </trkpt>
      <trkpt lat="49.32901" lon="0.97958">
        <ele>72.6</ele>
        <time>2020-08-18T09:27:51.000Z</time>
      </trkpt>
      <trkpt lat="49.32897" lon="0.97959">
        <ele>72.6</ele>
        <time>2020-08-18T09:27:56.000Z</time>
      </trkpt>
      <trkpt lat="49.32897" lon="0.9796">
        <ele>72.7</ele>
        <time>2020-08-18T09:27:59.000Z</time>
      </trkpt>
      <trkpt lat="49.32897" lon="0.97957">
        <ele>72.8</ele>
        <time>2020-08-18T09:28:06.000Z</time>
      </trkpt>
      <trkpt lat="49.32898" lon="0.97954">
        <ele>72.5</ele>
        <time>2020-08-18T09:28:11.000Z</time>
      </trkpt>
      <trkpt lat="49.32902" lon="0.97948">
        <ele>71.8</ele>
        <time>2020-08-18T09:28:16.000Z</time>
      </trkpt>
      <trkpt lat="49.32904" lon="0.97939">
        <ele>71.3</ele>
        <time>2020-08-18T09:28:21.000Z</time>
      </trkpt>
      <trkpt lat="49.32905" lon="0.97938">
        <ele>71.4</ele>
        <time>2020-08-18T09:28:25.000Z</time>
      </trkpt>
      <trkpt lat="49.32905" lon="0.97937">
        <ele>71.3</ele>
        <time>2020-08-18T09:28:26.000Z</time>
      </trkpt>
      <trkpt lat="49.32904" lon="0.97936">
        <ele>71.4</ele>
        <time>2020-08-18T09:28:29.000Z</time>
      </trkpt>
      <trkpt lat="49.32904" lon="0.97935">
        <ele>71.5</ele>
        <time>2020-08-18T09:28:35.000Z</time>
      </trkpt>
      <trkpt lat="49.32906" lon="0.97934">
        <ele>72.3</ele>
        <time>2020-08-18T09:28:40.000Z</time>
      </trkpt>
      <trkpt lat="49.32906" lon="0.97933">
        <ele>72.8</ele>
        <time>2020-08-18T09:28:43.000Z</time>
      </trkpt>
      <trkpt lat="49.32907" lon="0.97932">
        <ele>73</ele>
        <time>2020-08-18T09:28:44.000Z</time>
      </trkpt>
      <trkpt lat="49.32908" lon="0.97931">
        <ele>73.4</ele>
        <time>2020-08-18T09:28:49.000Z</time>
      </trkpt>
      <trkpt lat="49.3291" lon="0.9793">
        <ele>73.8</ele>
        <time>2020-08-18T09:28:54.000Z</time>
      </trkpt>
      <trkpt lat="49.3291" lon="0.97929">
        <ele>75.1</ele>
        <time>2020-08-18T09:28:55.000Z</time>
      </trkpt>
      <trkpt lat="49.3291" lon="0.97922">
        <ele>76.2</ele>
        <time>2020-08-18T09:29:00.000Z</time>
      </trkpt>
      <trkpt lat="49.3291" lon="0.97913">
        <ele>75.9</ele>
        <time>2020-08-18T09:29:05.000Z</time>
      </trkpt>
      <trkpt lat="49.32908" lon="0.979">
        <ele>75.4</ele>
        <time>2020-08-18T09:29:10.000Z</time>
      </trkpt>
      <trkpt lat="49.32913" lon="0.97885">
        <ele>74.6</ele>
        <time>2020-08-18T09:29:15.000Z</time>
      </trkpt>
      <trkpt lat="49.32915" lon="0.9787">
        <ele>73.8</ele>
        <time>2020-08-18T09:29:20.000Z</time>
      </trkpt>
      <trkpt lat="49.32912" lon="0.97856">
        <ele>73.2</ele>
        <time>2020-08-18T09:29:25.000Z</time>
      </trkpt>
      <trkpt lat="49.32909" lon="0.97836">
        <ele>72.1</ele>
        <time>2020-08-18T09:29:30.000Z</time>
      </trkpt>
      <trkpt lat="49.32909" lon="0.97808">
        <ele>70.6</ele>
        <time>2020-08-18T09:29:35.000Z</time>
      </trkpt>
      <trkpt lat="49.32904" lon="0.97789">
        <ele>68.9</ele>
        <time>2020-08-18T09:29:40.000Z</time>
      </trkpt>
      <trkpt lat="49.32896" lon="0.97778">
        <ele>67.6</ele>
        <time>2020-08-18T09:29:45.000Z</time>
      </trkpt>
      <trkpt lat="49.32894" lon="0.97762">
        <ele>66.2</ele>
        <time>2020-08-18T09:29:50.000Z</time>
      </trkpt>
      <trkpt lat="49.32907" lon="0.97754">
        <ele>64.9</ele>
        <time>2020-08-18T09:29:55.000Z</time>
      </trkpt>
      <trkpt lat="49.32919" lon="0.97759">
        <ele>63.1</ele>
        <time>2020-08-18T09:30:00.000Z</time>
      </trkpt>
      <trkpt lat="49.32921" lon="0.97754">
        <ele>61.6</ele>
        <time>2020-08-18T09:30:05.000Z</time>
      </trkpt>
      <trkpt lat="49.32912" lon="0.97736">
        <ele>60</ele>
        <time>2020-08-18T09:30:10.000Z</time>
      </trkpt>
      <trkpt lat="49.32903" lon="0.97715">
        <ele>58.5</ele>
        <time>2020-08-18T09:30:15.000Z</time>
      </trkpt>
      <trkpt lat="49.32891" lon="0.9769">
        <ele>57.1</ele>
        <time>2020-08-18T09:30:20.000Z</time>
      </trkpt>
      <trkpt lat="49.32882" lon="0.97673">
        <ele>55.5</ele>
        <time>2020-08-18T09:30:25.000Z</time>
      </trkpt>
      <trkpt lat="49.32873" lon="0.97659">
        <ele>54.9</ele>
        <time>2020-08-18T09:30:30.000Z</time>
      </trkpt>
      <trkpt lat="49.32862" lon="0.97648">
        <ele>54</ele>
        <time>2020-08-18T09:30:35.000Z</time>
      </trkpt>
      <trkpt lat="49.3286" lon="0.97645">
        <ele>54.3</ele>
        <time>2020-08-18T09:30:39.000Z</time>
      </trkpt>
      <trkpt lat="49.3286" lon="0.97644">
        <ele>54.4</ele>
        <time>2020-08-18T09:31:04.000Z</time>
      </trkpt>
      <trkpt lat="49.32858" lon="0.97637">
        <ele>54.5</ele>
        <time>2020-08-18T09:31:09.000Z</time>
      </trkpt>
      <trkpt lat="49.32853" lon="0.97621">
        <ele>54.2</ele>
        <time>2020-08-18T09:31:14.000Z</time>
      </trkpt>
      <trkpt lat="49.32845" lon="0.976">
        <ele>53.5</ele>
        <time>2020-08-18T09:31:19.000Z</time>
      </trkpt>
      <trkpt lat="49.32836" lon="0.97572">
        <ele>53.2</ele>
        <time>2020-08-18T09:31:24.000Z</time>
      </trkpt>
      <trkpt lat="49.32829" lon="0.97542">
        <ele>52.4</ele>
        <time>2020-08-18T09:31:29.000Z</time>
      </trkpt>
      <trkpt lat="49.3282" lon="0.97517">
        <ele>52.1</ele>
        <time>2020-08-18T09:31:34.000Z</time>
      </trkpt>
      <trkpt lat="49.32813" lon="0.97507">
        <ele>51.5</ele>
        <time>2020-08-18T09:31:39.000Z</time>
      </trkpt>
      <trkpt lat="49.32806" lon="0.97497">
        <ele>50.9</ele>
        <time>2020-08-18T09:31:44.000Z</time>
      </trkpt>
      <trkpt lat="49.328" lon="0.97475">
        <ele>50</ele>
        <time>2020-08-18T09:31:49.000Z</time>
      </trkpt>
      <trkpt lat="49.32792" lon="0.97456">
        <ele>49.8</ele>
        <time>2020-08-18T09:31:54.000Z</time>
      </trkpt>
      <trkpt lat="49.32789" lon="0.97453">
        <ele>48.9</ele>
        <time>2020-08-18T09:31:59.000Z</time>
      </trkpt>
      <trkpt lat="49.32783" lon="0.97446">
        <ele>48.4</ele>
        <time>2020-08-18T09:32:08.000Z</time>
      </trkpt>
      <trkpt lat="49.32773" lon="0.97445">
        <ele>48.3</ele>
        <time>2020-08-18T09:32:13.000Z</time>
      </trkpt>
      <trkpt lat="49.32767" lon="0.97456">
        <ele>47.9</ele>
        <time>2020-08-18T09:32:18.000Z</time>
      </trkpt>
      <trkpt lat="49.32763" lon="0.97465">
        <ele>47.5</ele>
        <time>2020-08-18T09:32:23.000Z</time>
      </trkpt>
      <trkpt lat="49.32756" lon="0.97472">
        <ele>47</ele>
        <time>2020-08-18T09:32:28.000Z</time>
      </trkpt>
      <trkpt lat="49.32756" lon="0.97476">
        <ele>46.8</ele>
        <time>2020-08-18T09:32:33.000Z</time>
      </trkpt>
      <trkpt lat="49.32757" lon="0.97478">
        <ele>46.8</ele>
        <time>2020-08-18T09:32:38.000Z</time>
      </trkpt>
      <trkpt lat="49.32758" lon="0.97482">
        <ele>46.6</ele>
        <time>2020-08-18T09:32:43.000Z</time>
      </trkpt>
      <trkpt lat="49.32758" lon="0.97483">
        <ele>46.7</ele>
        <time>2020-08-18T09:32:50.000Z</time>
      </trkpt>
      <trkpt lat="49.32757" lon="0.97489">
        <ele>46.2</ele>
        <time>2020-08-18T09:32:55.000Z</time>
      </trkpt>
      <trkpt lat="49.32758" lon="0.97501">
        <ele>46.1</ele>
        <time>2020-08-18T09:33:00.000Z</time>
      </trkpt>
      <trkpt lat="49.32756" lon="0.9752">
        <ele>46.2</ele>
        <time>2020-08-18T09:33:05.000Z</time>
      </trkpt>
      <trkpt lat="49.32759" lon="0.97535">
        <ele>46</ele>
        <time>2020-08-18T09:33:10.000Z</time>
      </trkpt>
      <trkpt lat="49.32761" lon="0.97552">
        <ele>45.3</ele>
        <time>2020-08-18T09:33:15.000Z</time>
      </trkpt>
      <trkpt lat="49.32762" lon="0.97567">
        <ele>44.9</ele>
        <time>2020-08-18T09:33:20.000Z</time>
      </trkpt>
      <trkpt lat="49.32763" lon="0.97581">
        <ele>44.9</ele>
        <time>2020-08-18T09:33:25.000Z</time>
      </trkpt>
      <trkpt lat="49.32766" lon="0.97599">
        <ele>44.2</ele>
        <time>2020-08-18T09:33:30.000Z</time>
      </trkpt>
      <trkpt lat="49.32772" lon="0.97613">
        <ele>44.5</ele>
        <time>2020-08-18T09:33:35.000Z</time>
      </trkpt>
      <trkpt lat="49.32775" lon="0.97631">
        <ele>42.2</ele>
        <time>2020-08-18T09:33:40.000Z</time>
      </trkpt>
      <trkpt lat="49.32784" lon="0.97646">
        <ele>42.4</ele>
        <time>2020-08-18T09:33:45.000Z</time>
      </trkpt>
      <trkpt lat="49.32792" lon="0.97662">
        <ele>41.8</ele>
        <time>2020-08-18T09:33:50.000Z</time>
      </trkpt>
      <trkpt lat="49.328" lon="0.97676">
        <ele>42.7</ele>
        <time>2020-08-18T09:33:55.000Z</time>
      </trkpt>
      <trkpt lat="49.32807" lon="0.97686">
        <ele>43</ele>
        <time>2020-08-18T09:34:00.000Z</time>
      </trkpt>
      <trkpt lat="49.32815" lon="0.97698">
        <ele>43.6</ele>
        <time>2020-08-18T09:34:05.000Z</time>
      </trkpt>
      <trkpt lat="49.32821" lon="0.9771">
        <ele>43.8</ele>
        <time>2020-08-18T09:34:10.000Z</time>
      </trkpt>
      <trkpt lat="49.32824" lon="0.97723">
        <ele>43.7</ele>
        <time>2020-08-18T09:34:15.000Z</time>
      </trkpt>
      <trkpt lat="49.32827" lon="0.97733">
        <ele>43.9</ele>
        <time>2020-08-18T09:34:20.000Z</time>
      </trkpt>
      <trkpt lat="49.3283" lon="0.97735">
        <ele>44.3</ele>
        <time>2020-08-18T09:34:25.000Z</time>
      </trkpt>
      <trkpt lat="49.3283" lon="0.97734">
        <ele>44.8</ele>
        <time>2020-08-18T09:34:36.000Z</time>
      </trkpt>
      <trkpt lat="49.3283" lon="0.97732">
        <ele>45.1</ele>
        <time>2020-08-18T09:34:41.000Z</time>
      </trkpt>
      <trkpt lat="49.32829" lon="0.97726">
        <ele>45.9</ele>
        <time>2020-08-18T09:34:46.000Z</time>
      </trkpt>
      <trkpt lat="49.32833" lon="0.97719">
        <ele>46.5</ele>
        <time>2020-08-18T09:34:51.000Z</time>
      </trkpt>
      <trkpt lat="49.32838" lon="0.97712">
        <ele>47.1</ele>
        <time>2020-08-18T09:34:56.000Z</time>
      </trkpt>
      <trkpt lat="49.32844" lon="0.97709">
        <ele>47.6</ele>
        <time>2020-08-18T09:35:01.000Z</time>
      </trkpt>
      <trkpt lat="49.32847" lon="0.9771">
        <ele>47.8</ele>
        <time>2020-08-18T09:35:06.000Z</time>
      </trkpt>
      <trkpt lat="49.32851" lon="0.9772">
        <ele>47.6</ele>
        <time>2020-08-18T09:35:11.000Z</time>
      </trkpt>
      <trkpt lat="49.32859" lon="0.97735">
        <ele>47.2</ele>
        <time>2020-08-18T09:35:16.000Z</time>
      </trkpt>
      <trkpt lat="49.32866" lon="0.97755">
        <ele>47.6</ele>
        <time>2020-08-18T09:35:21.000Z</time>
      </trkpt>
      <trkpt lat="49.32869" lon="0.97773">
        <ele>48.7</ele>
        <time>2020-08-18T09:35:26.000Z</time>
      </trkpt>
      <trkpt lat="49.32872" lon="0.97791">
        <ele>50.3</ele>
        <time>2020-08-18T09:35:31.000Z</time>
      </trkpt>
      <trkpt lat="49.32873" lon="0.97809">
        <ele>51.7</ele>
        <time>2020-08-18T09:35:36.000Z</time>
      </trkpt>
      <trkpt lat="49.32871" lon="0.97828">
        <ele>52.7</ele>
        <time>2020-08-18T09:35:41.000Z</time>
      </trkpt>
      <trkpt lat="49.32867" lon="0.97845">
        <ele>53.4</ele>
        <time>2020-08-18T09:35:46.000Z</time>
      </trkpt>
      <trkpt lat="49.32867" lon="0.97861">
        <ele>54.3</ele>
        <time>2020-08-18T09:35:51.000Z</time>
      </trkpt>
      <trkpt lat="49.32869" lon="0.97878">
        <ele>55.4</ele>
        <time>2020-08-18T09:35:56.000Z</time>
      </trkpt>
      <trkpt lat="49.32865" lon="0.97893">
        <ele>55.8</ele>
        <time>2020-08-18T09:36:01.000Z</time>
      </trkpt>
      <trkpt lat="49.32861" lon="0.97912">
        <ele>56.2</ele>
        <time>2020-08-18T09:36:06.000Z</time>
      </trkpt>
      <trkpt lat="49.32857" lon="0.97928">
        <ele>56.6</ele>
        <time>2020-08-18T09:36:11.000Z</time>
      </trkpt>
      <trkpt lat="49.32855" lon="0.97941">
        <ele>57.2</ele>
        <time>2020-08-18T09:36:16.000Z</time>
      </trkpt>
      <trkpt lat="49.32851" lon="0.97959">
        <ele>58.1</ele>
        <time>2020-08-18T09:36:21.000Z</time>
      </trkpt>
      <trkpt lat="49.32849" lon="0.9798">
        <ele>58.1</ele>
        <time>2020-08-18T09:36:26.000Z</time>
      </trkpt>
      <trkpt lat="49.32842" lon="0.97996">
        <ele>58.4</ele>
        <time>2020-08-18T09:36:31.000Z</time>
      </trkpt>
      <trkpt lat="49.3283" lon="0.98014">
        <ele>58.6</ele>
        <time>2020-08-18T09:36:36.000Z</time>
      </trkpt>
      <trkpt lat="49.32819" lon="0.98031">
        <ele>58.9</ele>
        <time>2020-08-18T09:36:41.000Z</time>
      </trkpt>
      <trkpt lat="49.32808" lon="0.98046">
        <ele>59.1</ele>
        <time>2020-08-18T09:36:46.000Z</time>
      </trkpt>
      <trkpt lat="49.32794" lon="0.98055">
        <ele>59.2</ele>
        <time>2020-08-18T09:36:51.000Z</time>
      </trkpt>
      <trkpt lat="49.32779" lon="0.98065">
        <ele>58.7</ele>
        <time>2020-08-18T09:36:56.000Z</time>
      </trkpt>
      <trkpt lat="49.3277" lon="0.98082">
        <ele>56.8</ele>
        <time>2020-08-18T09:37:01.000Z</time>
      </trkpt>
      <trkpt lat="49.32756" lon="0.98098">
        <ele>55.6</ele>
        <time>2020-08-18T09:37:06.000Z</time>
      </trkpt>
      <trkpt lat="49.32743" lon="0.98116">
        <ele>53.7</ele>
        <time>2020-08-18T09:37:11.000Z</time>
      </trkpt>
      <trkpt lat="49.32729" lon="0.98133">
        <ele>52.8</ele>
        <time>2020-08-18T09:37:16.000Z</time>
      </trkpt>
      <trkpt lat="49.32717" lon="0.98144">
        <ele>53.2</ele>
        <time>2020-08-18T09:37:21.000Z</time>
      </trkpt>
      <trkpt lat="49.3271" lon="0.98158">
        <ele>53.1</ele>
        <time>2020-08-18T09:37:26.000Z</time>
      </trkpt>
      <trkpt lat="49.32704" lon="0.98177">
        <ele>53.4</ele>
        <time>2020-08-18T09:37:31.000Z</time>
      </trkpt>
      <trkpt lat="49.32695" lon="0.98197">
        <ele>53.3</ele>
        <time>2020-08-18T09:37:36.000Z</time>
      </trkpt>
      <trkpt lat="49.32685" lon="0.9821">
        <ele>54.1</ele>
        <time>2020-08-18T09:37:41.000Z</time>
      </trkpt>
      <trkpt lat="49.32671" lon="0.98214">
        <ele>54</ele>
        <time>2020-08-18T09:37:46.000Z</time>
      </trkpt>
      <trkpt lat="49.32662" lon="0.98223">
        <ele>53</ele>
        <time>2020-08-18T09:37:51.000Z</time>
      </trkpt>
      <trkpt lat="49.32654" lon="0.9823">
        <ele>53.1</ele>
        <time>2020-08-18T09:37:56.000Z</time>
      </trkpt>
      <trkpt lat="49.3265" lon="0.98233">
        <ele>53.1</ele>
        <time>2020-08-18T09:38:01.000Z</time>
      </trkpt>
      <trkpt lat="49.32645" lon="0.98231">
        <ele>53.3</ele>
        <time>2020-08-18T09:38:15.000Z</time>
      </trkpt>
      <trkpt lat="49.32644" lon="0.98231">
        <ele>53.3</ele>
        <time>2020-08-18T09:38:18.000Z</time>
      </trkpt>
      <trkpt lat="49.32641" lon="0.98231">
        <ele>52.7</ele>
        <time>2020-08-18T09:38:25.000Z</time>
      </trkpt>
      <trkpt lat="49.3264" lon="0.98231">
        <ele>52.6</ele>
        <time>2020-08-18T09:38:27.000Z</time>
      </trkpt>
      <trkpt lat="49.32638" lon="0.98226">
        <ele>52.6</ele>
        <time>2020-08-18T09:38:38.000Z</time>
      </trkpt>
      <trkpt lat="49.32639" lon="0.98223">
        <ele>52.3</ele>
        <time>2020-08-18T09:38:43.000Z</time>
      </trkpt>
      <trkpt lat="49.32639" lon="0.9822">
        <ele>51.9</ele>
        <time>2020-08-18T09:38:47.000Z</time>
      </trkpt>
      <trkpt lat="49.3264" lon="0.9822">
        <ele>51.8</ele>
        <time>2020-08-18T09:38:49.000Z</time>
      </trkpt>
      <trkpt lat="49.3264" lon="0.98218">
        <ele>51.4</ele>
        <time>2020-08-18T09:38:54.000Z</time>
      </trkpt>
      <trkpt lat="49.3264" lon="0.98217">
        <ele>51.2</ele>
        <time>2020-08-18T09:38:58.000Z</time>
      </trkpt>
      <trkpt lat="49.32639" lon="0.98216">
        <ele>51.3</ele>
        <time>2020-08-18T09:39:03.000Z</time>
      </trkpt>
      <trkpt lat="49.32639" lon="0.98215">
        <ele>51.2</ele>
        <time>2020-08-18T09:39:10.000Z</time>
      </trkpt>
      <trkpt lat="49.3264" lon="0.98215">
        <ele>51.6</ele>
        <time>2020-08-18T09:39:28.000Z</time>
      </trkpt>
      <trkpt lat="49.32638" lon="0.98213">
        <ele>51.2</ele>
        <time>2020-08-18T09:39:33.000Z</time>
      </trkpt>
      <trkpt lat="49.32636" lon="0.98212">
        <ele>51.1</ele>
        <time>2020-08-18T09:39:38.000Z</time>
      </trkpt>
      <trkpt lat="49.32633" lon="0.98212">
        <ele>50.5</ele>
        <time>2020-08-18T09:39:43.000Z</time>
      </trkpt>
      <trkpt lat="49.32632" lon="0.98212">
        <ele>50.5</ele>
        <time>2020-08-18T09:39:46.000Z</time>
      </trkpt>
      <trkpt lat="49.32633" lon="0.98212">
        <ele>50.4</ele>
        <time>2020-08-18T09:39:47.000Z</time>
      </trkpt>
      <trkpt lat="49.32634" lon="0.98213">
        <ele>50.4</ele>
        <time>2020-08-18T09:39:52.000Z</time>
      </trkpt>
      <trkpt lat="49.32634" lon="0.98214">
        <ele>50.4</ele>
        <time>2020-08-18T09:39:53.000Z</time>
      </trkpt>
      <trkpt lat="49.3263" lon="0.98224">
        <ele>49.5</ele>
        <time>2020-08-18T09:39:58.000Z</time>
      </trkpt>
      <trkpt lat="49.32618" lon="0.98236">
        <ele>48.5</ele>
        <time>2020-08-18T09:40:03.000Z</time>
      </trkpt>
      <trkpt lat="49.32612" lon="0.98243">
        <ele>48.3</ele>
        <time>2020-08-18T09:40:08.000Z</time>
      </trkpt>
      <trkpt lat="49.32612" lon="0.98242">
        <ele>48.3</ele>
        <time>2020-08-18T09:40:09.000Z</time>
      </trkpt>
      <trkpt lat="49.32612" lon="0.98243">
        <ele>48.3</ele>
        <time>2020-08-18T09:40:14.000Z</time>
      </trkpt>
      <trkpt lat="49.32611" lon="0.98243">
        <ele>48.3</ele>
        <time>2020-08-18T09:40:17.000Z</time>
      </trkpt>
      <trkpt lat="49.32604" lon="0.98247">
        <ele>47.8</ele>
        <time>2020-08-18T09:40:22.000Z</time>
      </trkpt>
      <trkpt lat="49.32595" lon="0.98255">
        <ele>47.5</ele>
        <time>2020-08-18T09:40:27.000Z</time>
      </trkpt>
      <trkpt lat="49.32585" lon="0.98263">
        <ele>47.3</ele>
        <time>2020-08-18T09:40:32.000Z</time>
      </trkpt>
      <trkpt lat="49.32576" lon="0.9827">
        <ele>47.4</ele>
        <time>2020-08-18T09:40:37.000Z</time>
      </trkpt>
      <trkpt lat="49.32562" lon="0.98275">
        <ele>47.6</ele>
        <time>2020-08-18T09:40:42.000Z</time>
      </trkpt>
      <trkpt lat="49.32548" lon="0.98279">
        <ele>47.7</ele>
        <time>2020-08-18T09:40:47.000Z</time>
      </trkpt>
      <trkpt lat="49.32535" lon="0.98285">
        <ele>48.6</ele>
        <time>2020-08-18T09:40:52.000Z</time>
      </trkpt>
      <trkpt lat="49.32522" lon="0.98292">
        <ele>48.6</ele>
        <time>2020-08-18T09:40:57.000Z</time>
      </trkpt>
      <trkpt lat="49.32508" lon="0.98294">
        <ele>49.3</ele>
        <time>2020-08-18T09:41:02.000Z</time>
      </trkpt>
      <trkpt lat="49.32495" lon="0.98299">
        <ele>50</ele>
        <time>2020-08-18T09:41:07.000Z</time>
      </trkpt>
      <trkpt lat="49.32481" lon="0.98303">
        <ele>49.4</ele>
        <time>2020-08-18T09:41:12.000Z</time>
      </trkpt>
      <trkpt lat="49.32466" lon="0.98306">
        <ele>49.4</ele>
        <time>2020-08-18T09:41:17.000Z</time>
      </trkpt>
      <trkpt lat="49.32452" lon="0.98308">
        <ele>49.1</ele>
        <time>2020-08-18T09:41:22.000Z</time>
      </trkpt>
      <trkpt lat="49.32438" lon="0.98308">
        <ele>49.7</ele>
        <time>2020-08-18T09:41:27.000Z</time>
      </trkpt>
      <trkpt lat="49.32424" lon="0.98309">
        <ele>49.6</ele>
        <time>2020-08-18T09:41:32.000Z</time>
      </trkpt>
      <trkpt lat="49.32411" lon="0.98308">
        <ele>50.1</ele>
        <time>2020-08-18T09:41:37.000Z</time>
      </trkpt>
      <trkpt lat="49.32397" lon="0.98307">
        <ele>51.4</ele>
        <time>2020-08-18T09:41:42.000Z</time>
      </trkpt>
      <trkpt lat="49.32387" lon="0.98298">
        <ele>52.8</ele>
        <time>2020-08-18T09:41:47.000Z</time>
      </trkpt>
      <trkpt lat="49.32371" lon="0.98283">
        <ele>52.6</ele>
        <time>2020-08-18T09:41:52.000Z</time>
      </trkpt>
      <trkpt lat="49.32348" lon="0.98262">
        <ele>52.4</ele>
        <time>2020-08-18T09:41:57.000Z</time>
      </trkpt>
      <trkpt lat="49.32328" lon="0.98246">
        <ele>51.7</ele>
        <time>2020-08-18T09:42:02.000Z</time>
      </trkpt>
      <trkpt lat="49.32309" lon="0.98242">
        <ele>50.7</ele>
        <time>2020-08-18T09:42:07.000Z</time>
      </trkpt>
      <trkpt lat="49.323" lon="0.98253">
        <ele>50.3</ele>
        <time>2020-08-18T09:42:12.000Z</time>
      </trkpt>
      <trkpt lat="49.32299" lon="0.98271">
        <ele>49.7</ele>
        <time>2020-08-18T09:42:17.000Z</time>
      </trkpt>
      <trkpt lat="49.32292" lon="0.98286">
        <ele>50.2</ele>
        <time>2020-08-18T09:42:22.000Z</time>
      </trkpt>
      <trkpt lat="49.32279" lon="0.98297">
        <ele>49.8</ele>
        <time>2020-08-18T09:42:27.000Z</time>
      </trkpt>
      <trkpt lat="49.3227" lon="0.9832">
        <ele>50.8</ele>
        <time>2020-08-18T09:42:32.000Z</time>
      </trkpt>
      <trkpt lat="49.32263" lon="0.98347">
        <ele>51.5</ele>
        <time>2020-08-18T09:42:37.000Z</time>
      </trkpt>
      <trkpt lat="49.32257" lon="0.98374">
        <ele>52.9</ele>
        <time>2020-08-18T09:42:42.000Z</time>
      </trkpt>
      <trkpt lat="49.3225" lon="0.98397">
        <ele>53.5</ele>
        <time>2020-08-18T09:42:47.000Z</time>
      </trkpt>
      <trkpt lat="49.32245" lon="0.98421">
        <ele>54</ele>
        <time>2020-08-18T09:42:52.000Z</time>
      </trkpt>
      <trkpt lat="49.3224" lon="0.98437">
        <ele>55.3</ele>
        <time>2020-08-18T09:42:57.000Z</time>
      </trkpt>
      <trkpt lat="49.32231" lon="0.9845">
        <ele>56.3</ele>
        <time>2020-08-18T09:43:02.000Z</time>
      </trkpt>
      <trkpt lat="49.32229" lon="0.98453">
        <ele>55.9</ele>
        <time>2020-08-18T09:43:07.000Z</time>
      </trkpt>
      <trkpt lat="49.32231" lon="0.98452">
        <ele>55.8</ele>
        <time>2020-08-18T09:43:10.000Z</time>
      </trkpt>
      <trkpt lat="49.32231" lon="0.98452">
        <ele>55.8</ele>
        <time>2020-08-18T09:45:35.000Z</time>
      </trkpt>
      <trkpt lat="49.32231" lon="0.98451">
        <ele>55.7</ele>
        <time>2020-08-18T09:46:20.000Z</time>
      </trkpt>
      <trkpt lat="49.32231" lon="0.98451">
        <ele>55.4</ele>
        <time>2020-08-18T09:48:02.000Z</time>
      </trkpt>
      <trkpt lat="49.32231" lon="0.98451">
        <ele>55.3</ele>
        <time>2020-08-18T09:50:28.000Z</time>
      </trkpt>
      <trkpt lat="49.32231" lon="0.98456">
        <ele>55.4</ele>
        <time>2020-08-18T09:52:45.000Z</time>
      </trkpt>
      <trkpt lat="49.32229" lon="0.98471">
        <ele>55.2</ele>
        <time>2020-08-18T09:52:50.000Z</time>
      </trkpt>
      <trkpt lat="49.32223" lon="0.98494">
        <ele>55.2</ele>
        <time>2020-08-18T09:52:55.000Z</time>
      </trkpt>
      <trkpt lat="49.32212" lon="0.9852">
        <ele>54.8</ele>
        <time>2020-08-18T09:53:00.000Z</time>
      </trkpt>
      <trkpt lat="49.32199" lon="0.98543">
        <ele>54.4</ele>
        <time>2020-08-18T09:53:05.000Z</time>
      </trkpt>
      <trkpt lat="49.32184" lon="0.98563">
        <ele>53.7</ele>
        <time>2020-08-18T09:53:10.000Z</time>
      </trkpt>
      <trkpt lat="49.32169" lon="0.98581">
        <ele>52.7</ele>
        <time>2020-08-18T09:53:15.000Z</time>
      </trkpt>
      <trkpt lat="49.32157" lon="0.98594">
        <ele>51.1</ele>
        <time>2020-08-18T09:53:20.000Z</time>
      </trkpt>
      <trkpt lat="49.32149" lon="0.98583">
        <ele>50.6</ele>
        <time>2020-08-18T09:53:25.000Z</time>
      </trkpt>
      <trkpt lat="49.32138" lon="0.98564">
        <ele>50.9</ele>
        <time>2020-08-18T09:53:30.000Z</time>
      </trkpt>
      <trkpt lat="49.3213" lon="0.98543">
        <ele>49.7</ele>
        <time>2020-08-18T09:53:35.000Z</time>
      </trkpt>
      <trkpt lat="49.32121" lon="0.98528">
        <ele>49.9</ele>
        <time>2020-08-18T09:53:40.000Z</time>
      </trkpt>
      <trkpt lat="49.32111" lon="0.98516">
        <ele>49.8</ele>
        <time>2020-08-18T09:53:45.000Z</time>
      </trkpt>
      <trkpt lat="49.32098" lon="0.985">
        <ele>49.4</ele>
        <time>2020-08-18T09:53:50.000Z</time>
      </trkpt>
      <trkpt lat="49.32085" lon="0.98492">
        <ele>49.5</ele>
        <time>2020-08-18T09:53:55.000Z</time>
      </trkpt>
      <trkpt lat="49.32074" lon="0.98478">
        <ele>49.6</ele>
        <time>2020-08-18T09:54:00.000Z</time>
      </trkpt>
      <trkpt lat="49.32064" lon="0.98462">
        <ele>49.8</ele>
        <time>2020-08-18T09:54:05.000Z</time>
      </trkpt>
      <trkpt lat="49.32051" lon="0.98457">
        <ele>49.9</ele>
        <time>2020-08-18T09:54:10.000Z</time>
      </trkpt>
      <trkpt lat="49.32037" lon="0.98458">
        <ele>50.3</ele>
        <time>2020-08-18T09:54:15.000Z</time>
      </trkpt>
      <trkpt lat="49.32024" lon="0.98459">
        <ele>50.5</ele>
        <time>2020-08-18T09:54:20.000Z</time>
      </trkpt>
      <trkpt lat="49.32014" lon="0.9846">
        <ele>50.1</ele>
        <time>2020-08-18T09:54:25.000Z</time>
      </trkpt>
      <trkpt lat="49.31996" lon="0.98463">
        <ele>49.4</ele>
        <time>2020-08-18T09:54:30.000Z</time>
      </trkpt>
      <trkpt lat="49.31979" lon="0.98466">
        <ele>49.1</ele>
        <time>2020-08-18T09:54:35.000Z</time>
      </trkpt>
      <trkpt lat="49.31966" lon="0.9847">
        <ele>48.7</ele>
        <time>2020-08-18T09:54:40.000Z</time>
      </trkpt>
      <trkpt lat="49.31951" lon="0.98472">
        <ele>47.7</ele>
        <time>2020-08-18T09:54:45.000Z</time>
      </trkpt>
      <trkpt lat="49.31933" lon="0.98479">
        <ele>46.7</ele>
        <time>2020-08-18T09:54:50.000Z</time>
      </trkpt>
      <trkpt lat="49.31915" lon="0.98484">
        <ele>45.8</ele>
        <time>2020-08-18T09:54:55.000Z</time>
      </trkpt>
      <trkpt lat="49.319" lon="0.98488">
        <ele>44.2</ele>
        <time>2020-08-18T09:55:00.000Z</time>
      </trkpt>
      <trkpt lat="49.31885" lon="0.98497">
        <ele>43.8</ele>
        <time>2020-08-18T09:55:05.000Z</time>
      </trkpt>
      <trkpt lat="49.31865" lon="0.98497">
        <ele>42.2</ele>
        <time>2020-08-18T09:55:10.000Z</time>
      </trkpt>
      <trkpt lat="49.31847" lon="0.98492">
        <ele>41.3</ele>
        <time>2020-08-18T09:55:15.000Z</time>
      </trkpt>
      <trkpt lat="49.31834" lon="0.98484">
        <ele>40.1</ele>
        <time>2020-08-18T09:55:20.000Z</time>
      </trkpt>
      <trkpt lat="49.31825" lon="0.98476">
        <ele>39</ele>
        <time>2020-08-18T09:55:25.000Z</time>
      </trkpt>
      <trkpt lat="49.31824" lon="0.98453">
        <ele>36.8</ele>
        <time>2020-08-18T09:55:30.000Z</time>
      </trkpt>
      <trkpt lat="49.31828" lon="0.98437">
        <ele>35.7</ele>
        <time>2020-08-18T09:55:35.000Z</time>
      </trkpt>
      <trkpt lat="49.31841" lon="0.98422">
        <ele>35.5</ele>
        <time>2020-08-18T09:55:40.000Z</time>
      </trkpt>
      <trkpt lat="49.31854" lon="0.98404">
        <ele>34.1</ele>
        <time>2020-08-18T09:55:45.000Z</time>
      </trkpt>
      <trkpt lat="49.31862" lon="0.98384">
        <ele>33.4</ele>
        <time>2020-08-18T09:55:50.000Z</time>
      </trkpt>
      <trkpt lat="49.31872" lon="0.98365">
        <ele>33.1</ele>
        <time>2020-08-18T09:55:55.000Z</time>
      </trkpt>
      <trkpt lat="49.31884" lon="0.98345">
        <ele>32.5</ele>
        <time>2020-08-18T09:56:00.000Z</time>
      </trkpt>
      <trkpt lat="49.31895" lon="0.98331">
        <ele>32.4</ele>
        <time>2020-08-18T09:56:05.000Z</time>
      </trkpt>
      <trkpt lat="49.31905" lon="0.98314">
        <ele>32.4</ele>
        <time>2020-08-18T09:56:10.000Z</time>
      </trkpt>
      <trkpt lat="49.31915" lon="0.98299">
        <ele>32.6</ele>
        <time>2020-08-18T09:56:15.000Z</time>
      </trkpt>
      <trkpt lat="49.31926" lon="0.98288">
        <ele>32.2</ele>
        <time>2020-08-18T09:56:20.000Z</time>
      </trkpt>
      <trkpt lat="49.3194" lon="0.98275">
        <ele>32.4</ele>
        <time>2020-08-18T09:56:25.000Z</time>
      </trkpt>
      <trkpt lat="49.31958" lon="0.98257">
        <ele>32.1</ele>
        <time>2020-08-18T09:56:30.000Z</time>
      </trkpt>
      <trkpt lat="49.31976" lon="0.98237">
        <ele>32</ele>
        <time>2020-08-18T09:56:35.000Z</time>
      </trkpt>
      <trkpt lat="49.31994" lon="0.98214">
        <ele>31.6</ele>
        <time>2020-08-18T09:56:40.000Z</time>
      </trkpt>
      <trkpt lat="49.32014" lon="0.98188">
        <ele>35.1</ele>
        <time>2020-08-18T09:56:45.000Z</time>
      </trkpt>
      <trkpt lat="49.32032" lon="0.98171">
        <ele>34.5</ele>
        <time>2020-08-18T09:56:50.000Z</time>
      </trkpt>
      <trkpt lat="49.32046" lon="0.98153">
        <ele>35.3</ele>
        <time>2020-08-18T09:56:55.000Z</time>
      </trkpt>
      <trkpt lat="49.32063" lon="0.98144">
        <ele>36.3</ele>
        <time>2020-08-18T09:57:00.000Z</time>
      </trkpt>
      <trkpt lat="49.32077" lon="0.98147">
        <ele>35.4</ele>
        <time>2020-08-18T09:57:05.000Z</time>
      </trkpt>
      <trkpt lat="49.32085" lon="0.98131">
        <ele>35</ele>
        <time>2020-08-18T09:57:10.000Z</time>
      </trkpt>
      <trkpt lat="49.32098" lon="0.98108">
        <ele>36.5</ele>
        <time>2020-08-18T09:57:15.000Z</time>
      </trkpt>
      <trkpt lat="49.32114" lon="0.98087">
        <ele>35.9</ele>
        <time>2020-08-18T09:57:20.000Z</time>
      </trkpt>
      <trkpt lat="49.32135" lon="0.98072">
        <ele>35.4</ele>
        <time>2020-08-18T09:57:25.000Z</time>
      </trkpt>
      <trkpt lat="49.32151" lon="0.98062">
        <ele>35.6</ele>
        <time>2020-08-18T09:57:30.000Z</time>
      </trkpt>
      <trkpt lat="49.32166" lon="0.98056">
        <ele>35.9</ele>
        <time>2020-08-18T09:57:35.000Z</time>
      </trkpt>
      <trkpt lat="49.32179" lon="0.9805">
        <ele>36.3</ele>
        <time>2020-08-18T09:57:40.000Z</time>
      </trkpt>
      <trkpt lat="49.32195" lon="0.98045">
        <ele>36.9</ele>
        <time>2020-08-18T09:57:45.000Z</time>
      </trkpt>
      <trkpt lat="49.32212" lon="0.98042">
        <ele>37</ele>
        <time>2020-08-18T09:57:50.000Z</time>
      </trkpt>
      <trkpt lat="49.32226" lon="0.98043">
        <ele>36.6</ele>
        <time>2020-08-18T09:57:55.000Z</time>
      </trkpt>
      <trkpt lat="49.32225" lon="0.98044">
        <ele>36.3</ele>
        <time>2020-08-18T09:58:00.000Z</time>
      </trkpt>
      <trkpt lat="49.32225" lon="0.98043">
        <ele>36.3</ele>
        <time>2020-08-18T09:58:10.000Z</time>
      </trkpt>
      <trkpt lat="49.32225" lon="0.98044">
        <ele>36.4</ele>
        <time>2020-08-18T09:58:20.000Z</time>
      </trkpt>
      <trkpt lat="49.32226" lon="0.98044">
        <ele>36.5</ele>
        <time>2020-08-18T09:58:24.000Z</time>
      </trkpt>
      <trkpt lat="49.32227" lon="0.98044">
        <ele>36.5</ele>
        <time>2020-08-18T09:58:27.000Z</time>
      </trkpt>
      <trkpt lat="49.32235" lon="0.98045">
        <ele>36.2</ele>
        <time>2020-08-18T09:58:32.000Z</time>
      </trkpt>
      <trkpt lat="49.32244" lon="0.98051">
        <ele>35.5</ele>
        <time>2020-08-18T09:58:37.000Z</time>
      </trkpt>
      <trkpt lat="49.32254" lon="0.98056">
        <ele>35.6</ele>
        <time>2020-08-18T09:58:42.000Z</time>
      </trkpt>
      <trkpt lat="49.32265" lon="0.98062">
        <ele>35.9</ele>
        <time>2020-08-18T09:58:47.000Z</time>
      </trkpt>
      <trkpt lat="49.32276" lon="0.98073">
        <ele>35.6</ele>
        <time>2020-08-18T09:58:52.000Z</time>
      </trkpt>
      <trkpt lat="49.32291" lon="0.98085">
        <ele>34</ele>
        <time>2020-08-18T09:58:57.000Z</time>
      </trkpt>
      <trkpt lat="49.3231" lon="0.98095">
        <ele>32.9</ele>
        <time>2020-08-18T09:59:02.000Z</time>
      </trkpt>
      <trkpt lat="49.32325" lon="0.98109">
        <ele>31.9</ele>
        <time>2020-08-18T09:59:07.000Z</time>
      </trkpt>
      <trkpt lat="49.32341" lon="0.98124">
        <ele>31</ele>
        <time>2020-08-18T09:59:12.000Z</time>
      </trkpt>
      <trkpt lat="49.32358" lon="0.98136">
        <ele>31.3</ele>
        <time>2020-08-18T09:59:17.000Z</time>
      </trkpt>
      <trkpt lat="49.32377" lon="0.98143">
        <ele>30.6</ele>
        <time>2020-08-18T09:59:22.000Z</time>
      </trkpt>
      <trkpt lat="49.32394" lon="0.98148">
        <ele>29.4</ele>
        <time>2020-08-18T09:59:27.000Z</time>
      </trkpt>
      <trkpt lat="49.32407" lon="0.98137">
        <ele>27.8</ele>
        <time>2020-08-18T09:59:32.000Z</time>
      </trkpt>
      <trkpt lat="49.32424" lon="0.98127">
        <ele>27.8</ele>
        <time>2020-08-18T09:59:37.000Z</time>
      </trkpt>
      <trkpt lat="49.32437" lon="0.98117">
        <ele>27.5</ele>
        <time>2020-08-18T09:59:42.000Z</time>
      </trkpt>
      <trkpt lat="49.32445" lon="0.98099">
        <ele>25.5</ele>
        <time>2020-08-18T09:59:47.000Z</time>
      </trkpt>
      <trkpt lat="49.32456" lon="0.98089">
        <ele>25.1</ele>
        <time>2020-08-18T09:59:52.000Z</time>
      </trkpt>
      <trkpt lat="49.32465" lon="0.98075">
        <ele>24.9</ele>
        <time>2020-08-18T09:59:57.000Z</time>
      </trkpt>
      <trkpt lat="49.32474" lon="0.98061">
        <ele>24.1</ele>
        <time>2020-08-18T10:00:02.000Z</time>
      </trkpt>
      <trkpt lat="49.32479" lon="0.98047">
        <ele>23.1</ele>
        <time>2020-08-18T10:00:07.000Z</time>
      </trkpt>
      <trkpt lat="49.32489" lon="0.98035">
        <ele>22.4</ele>
        <time>2020-08-18T10:00:12.000Z</time>
      </trkpt>
      <trkpt lat="49.325" lon="0.98022">
        <ele>22.1</ele>
        <time>2020-08-18T10:00:17.000Z</time>
      </trkpt>
      <trkpt lat="49.3251" lon="0.98007">
        <ele>21.7</ele>
        <time>2020-08-18T10:00:22.000Z</time>
      </trkpt>
      <trkpt lat="49.32519" lon="0.97991">
        <ele>22.2</ele>
        <time>2020-08-18T10:00:27.000Z</time>
      </trkpt>
      <trkpt lat="49.3253" lon="0.97981">
        <ele>22.9</ele>
        <time>2020-08-18T10:00:32.000Z</time>
      </trkpt>
      <trkpt lat="49.32538" lon="0.9797">
        <ele>23.8</ele>
        <time>2020-08-18T10:00:37.000Z</time>
      </trkpt>
      <trkpt lat="49.3255" lon="0.97961">
        <ele>23.5</ele>
        <time>2020-08-18T10:00:42.000Z</time>
      </trkpt>
      <trkpt lat="49.32559" lon="0.97946">
        <ele>24.4</ele>
        <time>2020-08-18T10:00:47.000Z</time>
      </trkpt>
      <trkpt lat="49.32572" lon="0.9793">
        <ele>26.2</ele>
        <time>2020-08-18T10:00:52.000Z</time>
      </trkpt>
      <trkpt lat="49.32582" lon="0.97924">
        <ele>28.4</ele>
        <time>2020-08-18T10:00:57.000Z</time>
      </trkpt>
      <trkpt lat="49.32592" lon="0.97914">
        <ele>29.8</ele>
        <time>2020-08-18T10:01:02.000Z</time>
      </trkpt>
      <trkpt lat="49.326" lon="0.97898">
        <ele>30.2</ele>
        <time>2020-08-18T10:01:07.000Z</time>
      </trkpt>
      <trkpt lat="49.32612" lon="0.97883">
        <ele>31.7</ele>
        <time>2020-08-18T10:01:12.000Z</time>
      </trkpt>
      <trkpt lat="49.32624" lon="0.97872">
        <ele>33.1</ele>
        <time>2020-08-18T10:01:17.000Z</time>
      </trkpt>
      <trkpt lat="49.32631" lon="0.97871">
        <ele>34.1</ele>
        <time>2020-08-18T10:01:22.000Z</time>
      </trkpt>
      <trkpt lat="49.32635" lon="0.97867">
        <ele>34.6</ele>
        <time>2020-08-18T10:01:27.000Z</time>
      </trkpt>
      <trkpt lat="49.32637" lon="0.97854">
        <ele>34.4</ele>
        <time>2020-08-18T10:01:32.000Z</time>
      </trkpt>
      <trkpt lat="49.32643" lon="0.97842">
        <ele>34.9</ele>
        <time>2020-08-18T10:01:37.000Z</time>
      </trkpt>
      <trkpt lat="49.32652" lon="0.97823">
        <ele>35.4</ele>
        <time>2020-08-18T10:01:42.000Z</time>
      </trkpt>
      <trkpt lat="49.32653" lon="0.97805">
        <ele>36</ele>
        <time>2020-08-18T10:01:47.000Z</time>
      </trkpt>
      <trkpt lat="49.32643" lon="0.97795">
        <ele>33.9</ele>
        <time>2020-08-18T10:01:52.000Z</time>
      </trkpt>
      <trkpt lat="49.32629" lon="0.9779">
        <ele>33.3</ele>
        <time>2020-08-18T10:01:57.000Z</time>
      </trkpt>
      <trkpt lat="49.32617" lon="0.97786">
        <ele>34.3</ele>
        <time>2020-08-18T10:02:02.000Z</time>
      </trkpt>
      <trkpt lat="49.32602" lon="0.97781">
        <ele>34.2</ele>
        <time>2020-08-18T10:02:07.000Z</time>
      </trkpt>
      <trkpt lat="49.32585" lon="0.97776">
        <ele>34.8</ele>
        <time>2020-08-18T10:02:12.000Z</time>
      </trkpt>
      <trkpt lat="49.32569" lon="0.97771">
        <ele>36.3</ele>
        <time>2020-08-18T10:02:17.000Z</time>
      </trkpt>
      <trkpt lat="49.32551" lon="0.97767">
        <ele>36.6</ele>
        <time>2020-08-18T10:02:22.000Z</time>
      </trkpt>
      <trkpt lat="49.32535" lon="0.97762">
        <ele>37.4</ele>
        <time>2020-08-18T10:02:27.000Z</time>
      </trkpt>
      <trkpt lat="49.32518" lon="0.97755">
        <ele>38.6</ele>
        <time>2020-08-18T10:02:32.000Z</time>
      </trkpt>
      <trkpt lat="49.32505" lon="0.97751">
        <ele>38.7</ele>
        <time>2020-08-18T10:02:37.000Z</time>
      </trkpt>
      <trkpt lat="49.32492" lon="0.97748">
        <ele>38.9</ele>
        <time>2020-08-18T10:02:42.000Z</time>
      </trkpt>
      <trkpt lat="49.3248" lon="0.97745">
        <ele>39.9</ele>
        <time>2020-08-18T10:02:47.000Z</time>
      </trkpt>
      <trkpt lat="49.32466" lon="0.97743">
        <ele>41</ele>
        <time>2020-08-18T10:02:52.000Z</time>
      </trkpt>
      <trkpt lat="49.32454" lon="0.9774">
        <ele>41.4</ele>
        <time>2020-08-18T10:02:57.000Z</time>
      </trkpt>
      <trkpt lat="49.3244" lon="0.97736">
        <ele>41.6</ele>
        <time>2020-08-18T10:03:02.000Z</time>
      </trkpt>
      <trkpt lat="49.3243" lon="0.97732">
        <ele>42.2</ele>
        <time>2020-08-18T10:03:07.000Z</time>
      </trkpt>
      <trkpt lat="49.32421" lon="0.97728">
        <ele>43</ele>
        <time>2020-08-18T10:03:12.000Z</time>
      </trkpt>
      <trkpt lat="49.32408" lon="0.97724">
        <ele>43.7</ele>
        <time>2020-08-18T10:03:17.000Z</time>
      </trkpt>
      <trkpt lat="49.32401" lon="0.97719">
        <ele>44.1</ele>
        <time>2020-08-18T10:03:22.000Z</time>
      </trkpt>
      <trkpt lat="49.32399" lon="0.97706">
        <ele>45</ele>
        <time>2020-08-18T10:03:27.000Z</time>
      </trkpt>
      <trkpt lat="49.32397" lon="0.9769">
        <ele>45.8</ele>
        <time>2020-08-18T10:03:32.000Z</time>
      </trkpt>
      <trkpt lat="49.32394" lon="0.97672">
        <ele>46.6</ele>
        <time>2020-08-18T10:03:37.000Z</time>
      </trkpt>
      <trkpt lat="49.32386" lon="0.97648">
        <ele>47.3</ele>
        <time>2020-08-18T10:03:42.000Z</time>
      </trkpt>
      <trkpt lat="49.32373" lon="0.9763">
        <ele>46.9</ele>
        <time>2020-08-18T10:03:47.000Z</time>
      </trkpt>
      <trkpt lat="49.32366" lon="0.97622">
        <ele>46.9</ele>
        <time>2020-08-18T10:03:52.000Z</time>
      </trkpt>
      <trkpt lat="49.32364" lon="0.97616">
        <ele>47.8</ele>
        <time>2020-08-18T10:03:56.000Z</time>
      </trkpt>
      <trkpt lat="49.32365" lon="0.97616">
        <ele>47.8</ele>
        <time>2020-08-18T10:03:57.000Z</time>
      </trkpt>
      <trkpt lat="49.32364" lon="0.97616">
        <ele>48.1</ele>
        <time>2020-08-18T10:04:00.000Z</time>
      </trkpt>
      <trkpt lat="49.32362" lon="0.97613">
        <ele>49.4</ele>
        <time>2020-08-18T10:04:12.000Z</time>
      </trkpt>
      <trkpt lat="49.32359" lon="0.9761">
        <ele>50.2</ele>
        <time>2020-08-18T10:04:17.000Z</time>
      </trkpt>
      <trkpt lat="49.32354" lon="0.97597">
        <ele>50.7</ele>
        <time>2020-08-18T10:04:22.000Z</time>
      </trkpt>
      <trkpt lat="49.32349" lon="0.97576">
        <ele>50.9</ele>
        <time>2020-08-18T10:04:27.000Z</time>
      </trkpt>
      <trkpt lat="49.32342" lon="0.97554">
        <ele>51.1</ele>
        <time>2020-08-18T10:04:32.000Z</time>
      </trkpt>
      <trkpt lat="49.32333" lon="0.97531">
        <ele>51.4</ele>
        <time>2020-08-18T10:04:37.000Z</time>
      </trkpt>
      <trkpt lat="49.32321" lon="0.97505">
        <ele>51.4</ele>
        <time>2020-08-18T10:04:42.000Z</time>
      </trkpt>
      <trkpt lat="49.3231" lon="0.9748">
        <ele>51.4</ele>
        <time>2020-08-18T10:04:47.000Z</time>
      </trkpt>
      <trkpt lat="49.32299" lon="0.97458">
        <ele>51.1</ele>
        <time>2020-08-18T10:04:52.000Z</time>
      </trkpt>
      <trkpt lat="49.32286" lon="0.97443">
        <ele>51.2</ele>
        <time>2020-08-18T10:04:57.000Z</time>
      </trkpt>
      <trkpt lat="49.32271" lon="0.97433">
        <ele>51.2</ele>
        <time>2020-08-18T10:05:02.000Z</time>
      </trkpt>
      <trkpt lat="49.32259" lon="0.97424">
        <ele>50.7</ele>
        <time>2020-08-18T10:05:07.000Z</time>
      </trkpt>
      <trkpt lat="49.32251" lon="0.97415">
        <ele>50.6</ele>
        <time>2020-08-18T10:05:12.000Z</time>
      </trkpt>
      <trkpt lat="49.32243" lon="0.97406">
        <ele>51.1</ele>
        <time>2020-08-18T10:05:17.000Z</time>
      </trkpt>
      <trkpt lat="49.32233" lon="0.97395">
        <ele>50.3</ele>
        <time>2020-08-18T10:05:22.000Z</time>
      </trkpt>
      <trkpt lat="49.32222" lon="0.9738">
        <ele>49.7</ele>
        <time>2020-08-18T10:05:27.000Z</time>
      </trkpt>
      <trkpt lat="49.32211" lon="0.97367">
        <ele>49.8</ele>
        <time>2020-08-18T10:05:32.000Z</time>
      </trkpt>
      <trkpt lat="49.32195" lon="0.97355">
        <ele>50.1</ele>
        <time>2020-08-18T10:05:37.000Z</time>
      </trkpt>
      <trkpt lat="49.32182" lon="0.97343">
        <ele>49.2</ele>
        <time>2020-08-18T10:05:42.000Z</time>
      </trkpt>
      <trkpt lat="49.32172" lon="0.97338">
        <ele>48.3</ele>
        <time>2020-08-18T10:05:47.000Z</time>
      </trkpt>
      <trkpt lat="49.32164" lon="0.97333">
        <ele>48.8</ele>
        <time>2020-08-18T10:05:52.000Z</time>
      </trkpt>
      <trkpt lat="49.32156" lon="0.97322">
        <ele>50.5</ele>
        <time>2020-08-18T10:05:57.000Z</time>
      </trkpt>
      <trkpt lat="49.32153" lon="0.97303">
        <ele>50</ele>
        <time>2020-08-18T10:06:02.000Z</time>
      </trkpt>
      <trkpt lat="49.32142" lon="0.9729">
        <ele>49</ele>
        <time>2020-08-18T10:06:07.000Z</time>
      </trkpt>
      <trkpt lat="49.32129" lon="0.97281">
        <ele>49</ele>
        <time>2020-08-18T10:06:12.000Z</time>
      </trkpt>
      <trkpt lat="49.32117" lon="0.97276">
        <ele>47.2</ele>
        <time>2020-08-18T10:06:17.000Z</time>
      </trkpt>
      <trkpt lat="49.32104" lon="0.97272">
        <ele>44.6</ele>
        <time>2020-08-18T10:06:22.000Z</time>
      </trkpt>
      <trkpt lat="49.3209" lon="0.9727">
        <ele>42.9</ele>
        <time>2020-08-18T10:06:27.000Z</time>
      </trkpt>
      <trkpt lat="49.32076" lon="0.97272">
        <ele>41.7</ele>
        <time>2020-08-18T10:06:32.000Z</time>
      </trkpt>
      <trkpt lat="49.3206" lon="0.97273">
        <ele>41.5</ele>
        <time>2020-08-18T10:06:37.000Z</time>
      </trkpt>
      <trkpt lat="49.32044" lon="0.97272">
        <ele>42</ele>
        <time>2020-08-18T10:06:42.000Z</time>
      </trkpt>
      <trkpt lat="49.32028" lon="0.9727">
        <ele>42.9</ele>
        <time>2020-08-18T10:06:47.000Z</time>
      </trkpt>
      <trkpt lat="49.32012" lon="0.97265">
        <ele>43.9</ele>
        <time>2020-08-18T10:06:52.000Z</time>
      </trkpt>
      <trkpt lat="49.31996" lon="0.97253">
        <ele>46.9</ele>
        <time>2020-08-18T10:06:57.000Z</time>
      </trkpt>
      <trkpt lat="49.3198" lon="0.97241">
        <ele>47.5</ele>
        <time>2020-08-18T10:07:02.000Z</time>
      </trkpt>
      <trkpt lat="49.31964" lon="0.97231">
        <ele>47.8</ele>
        <time>2020-08-18T10:07:07.000Z</time>
      </trkpt>
      <trkpt lat="49.31948" lon="0.97221">
        <ele>49.2</ele>
        <time>2020-08-18T10:07:12.000Z</time>
      </trkpt>
      <trkpt lat="49.31933" lon="0.97207">
        <ele>50.6</ele>
        <time>2020-08-18T10:07:17.000Z</time>
      </trkpt>
      <trkpt lat="49.31918" lon="0.97191">
        <ele>51.4</ele>
        <time>2020-08-18T10:07:22.000Z</time>
      </trkpt>
      <trkpt lat="49.31903" lon="0.97175">
        <ele>51.8</ele>
        <time>2020-08-18T10:07:27.000Z</time>
      </trkpt>
      <trkpt lat="49.31889" lon="0.97158">
        <ele>52.3</ele>
        <time>2020-08-18T10:07:32.000Z</time>
      </trkpt>
      <trkpt lat="49.31874" lon="0.97141">
        <ele>52.3</ele>
        <time>2020-08-18T10:07:37.000Z</time>
      </trkpt>
      <trkpt lat="49.31861" lon="0.97122">
        <ele>53.3</ele>
        <time>2020-08-18T10:07:42.000Z</time>
      </trkpt>
      <trkpt lat="49.31849" lon="0.971">
        <ele>54.5</ele>
        <time>2020-08-18T10:07:47.000Z</time>
      </trkpt>
      <trkpt lat="49.31838" lon="0.97079">
        <ele>55.1</ele>
        <time>2020-08-18T10:07:52.000Z</time>
      </trkpt>
      <trkpt lat="49.31828" lon="0.97058">
        <ele>55.7</ele>
        <time>2020-08-18T10:07:57.000Z</time>
      </trkpt>
      <trkpt lat="49.31819" lon="0.97037">
        <ele>56.3</ele>
        <time>2020-08-18T10:08:02.000Z</time>
      </trkpt>
      <trkpt lat="49.31809" lon="0.97015">
        <ele>56.6</ele>
        <time>2020-08-18T10:08:07.000Z</time>
      </trkpt>
      <trkpt lat="49.31799" lon="0.96992">
        <ele>56.9</ele>
        <time>2020-08-18T10:08:12.000Z</time>
      </trkpt>
      <trkpt lat="49.31789" lon="0.96971">
        <ele>57.4</ele>
        <time>2020-08-18T10:08:17.000Z</time>
      </trkpt>
      <trkpt lat="49.31779" lon="0.96949">
        <ele>58</ele>
        <time>2020-08-18T10:08:22.000Z</time>
      </trkpt>
      <trkpt lat="49.31768" lon="0.96929">
        <ele>59.3</ele>
        <time>2020-08-18T10:08:27.000Z</time>
      </trkpt>
      <trkpt lat="49.31756" lon="0.96911">
        <ele>60.9</ele>
        <time>2020-08-18T10:08:32.000Z</time>
      </trkpt>
      <trkpt lat="49.31741" lon="0.96896">
        <ele>61.4</ele>
        <time>2020-08-18T10:08:37.000Z</time>
      </trkpt>
      <trkpt lat="49.31727" lon="0.96879">
        <ele>63.2</ele>
        <time>2020-08-18T10:08:42.000Z</time>
      </trkpt>
      <trkpt lat="49.31714" lon="0.96861">
        <ele>64.5</ele>
        <time>2020-08-18T10:08:47.000Z</time>
      </trkpt>
      <trkpt lat="49.31703" lon="0.96841">
        <ele>65.7</ele>
        <time>2020-08-18T10:08:52.000Z</time>
      </trkpt>
      <trkpt lat="49.31691" lon="0.96821">
        <ele>66.5</ele>
        <time>2020-08-18T10:08:57.000Z</time>
      </trkpt>
      <trkpt lat="49.3168" lon="0.968">
        <ele>67.8</ele>
        <time>2020-08-18T10:09:02.000Z</time>
      </trkpt>
      <trkpt lat="49.31669" lon="0.96778">
        <ele>68.3</ele>
        <time>2020-08-18T10:09:07.000Z</time>
      </trkpt>
      <trkpt lat="49.31657" lon="0.96761">
        <ele>69.1</ele>
        <time>2020-08-18T10:09:12.000Z</time>
      </trkpt>
      <trkpt lat="49.31644" lon="0.96744">
        <ele>70.1</ele>
        <time>2020-08-18T10:09:17.000Z</time>
      </trkpt>
      <trkpt lat="49.31631" lon="0.96726">
        <ele>70.9</ele>
        <time>2020-08-18T10:09:22.000Z</time>
      </trkpt>
      <trkpt lat="49.31616" lon="0.96709">
        <ele>72.3</ele>
        <time>2020-08-18T10:09:27.000Z</time>
      </trkpt>
      <trkpt lat="49.31603" lon="0.96693">
        <ele>73.3</ele>
        <time>2020-08-18T10:09:32.000Z</time>
      </trkpt>
      <trkpt lat="49.31591" lon="0.96678">
        <ele>75.3</ele>
        <time>2020-08-18T10:09:37.000Z</time>
      </trkpt>
      <trkpt lat="49.31577" lon="0.96664">
        <ele>77</ele>
        <time>2020-08-18T10:09:42.000Z</time>
      </trkpt>
      <trkpt lat="49.31561" lon="0.96653">
        <ele>78.7</ele>
        <time>2020-08-18T10:09:47.000Z</time>
      </trkpt>
      <trkpt lat="49.31545" lon="0.96644">
        <ele>79.7</ele>
        <time>2020-08-18T10:09:52.000Z</time>
      </trkpt>
      <trkpt lat="49.31528" lon="0.96636">
        <ele>80.4</ele>
        <time>2020-08-18T10:09:57.000Z</time>
      </trkpt>
      <trkpt lat="49.3151" lon="0.96628">
        <ele>81.5</ele>
        <time>2020-08-18T10:10:02.000Z</time>
      </trkpt>
      <trkpt lat="49.31494" lon="0.9662">
        <ele>83.6</ele>
        <time>2020-08-18T10:10:07.000Z</time>
      </trkpt>
      <trkpt lat="49.31477" lon="0.96611">
        <ele>85.1</ele>
        <time>2020-08-18T10:10:12.000Z</time>
      </trkpt>
      <trkpt lat="49.31462" lon="0.96604">
        <ele>86</ele>
        <time>2020-08-18T10:10:17.000Z</time>
      </trkpt>
      <trkpt lat="49.31445" lon="0.96601">
        <ele>87.8</ele>
        <time>2020-08-18T10:10:22.000Z</time>
      </trkpt>
      <trkpt lat="49.31428" lon="0.96599">
        <ele>89.6</ele>
        <time>2020-08-18T10:10:27.000Z</time>
      </trkpt>
      <trkpt lat="49.31412" lon="0.96595">
        <ele>90.6</ele>
        <time>2020-08-18T10:10:32.000Z</time>
      </trkpt>
      <trkpt lat="49.31399" lon="0.96589">
        <ele>91.9</ele>
        <time>2020-08-18T10:10:37.000Z</time>
      </trkpt>
      <trkpt lat="49.31383" lon="0.96584">
        <ele>92.8</ele>
        <time>2020-08-18T10:10:42.000Z</time>
      </trkpt>
      <trkpt lat="49.31369" lon="0.96577">
        <ele>94.1</ele>
        <time>2020-08-18T10:10:47.000Z</time>
      </trkpt>
      <trkpt lat="49.31351" lon="0.9657">
        <ele>95.7</ele>
        <time>2020-08-18T10:10:52.000Z</time>
      </trkpt>
      <trkpt lat="49.31333" lon="0.96561">
        <ele>97.3</ele>
        <time>2020-08-18T10:10:57.000Z</time>
      </trkpt>
      <trkpt lat="49.31316" lon="0.96553">
        <ele>99.6</ele>
        <time>2020-08-18T10:11:02.000Z</time>
      </trkpt>
      <trkpt lat="49.31302" lon="0.96543">
        <ele>101.4</ele>
        <time>2020-08-18T10:11:07.000Z</time>
      </trkpt>
      <trkpt lat="49.31286" lon="0.96533">
        <ele>103.8</ele>
        <time>2020-08-18T10:11:12.000Z</time>
      </trkpt>
      <trkpt lat="49.31273" lon="0.96521">
        <ele>105.9</ele>
        <time>2020-08-18T10:11:17.000Z</time>
      </trkpt>
      <trkpt lat="49.31258" lon="0.96507">
        <ele>107.7</ele>
        <time>2020-08-18T10:11:22.000Z</time>
      </trkpt>
      <trkpt lat="49.31247" lon="0.96487">
        <ele>109.5</ele>
        <time>2020-08-18T10:11:27.000Z</time>
      </trkpt>
      <trkpt lat="49.31236" lon="0.96465">
        <ele>111</ele>
        <time>2020-08-18T10:11:32.000Z</time>
      </trkpt>
      <trkpt lat="49.31228" lon="0.96439">
        <ele>111.8</ele>
        <time>2020-08-18T10:11:37.000Z</time>
      </trkpt>
      <trkpt lat="49.3122" lon="0.96413">
        <ele>112.9</ele>
        <time>2020-08-18T10:11:42.000Z</time>
      </trkpt>
      <trkpt lat="49.3121" lon="0.96391">
        <ele>113.9</ele>
        <time>2020-08-18T10:11:47.000Z</time>
      </trkpt>
      <trkpt lat="49.31202" lon="0.96377">
        <ele>114.1</ele>
        <time>2020-08-18T10:11:52.000Z</time>
      </trkpt>
      <trkpt lat="49.31197" lon="0.96367">
        <ele>114.2</ele>
        <time>2020-08-18T10:11:57.000Z</time>
      </trkpt>
      <trkpt lat="49.31193" lon="0.96357">
        <ele>114.1</ele>
        <time>2020-08-18T10:12:02.000Z</time>
      </trkpt>
      <trkpt lat="49.31185" lon="0.96348">
        <ele>114.3</ele>
        <time>2020-08-18T10:12:07.000Z</time>
      </trkpt>
      <trkpt lat="49.31174" lon="0.96334">
        <ele>112.7</ele>
        <time>2020-08-18T10:12:12.000Z</time>
      </trkpt>
      <trkpt lat="49.31164" lon="0.9633">
        <ele>112.4</ele>
        <time>2020-08-18T10:12:17.000Z</time>
      </trkpt>
      <trkpt lat="49.31161" lon="0.96343">
        <ele>112</ele>
        <time>2020-08-18T10:12:22.000Z</time>
      </trkpt>
      <trkpt lat="49.31164" lon="0.96354">
        <ele>112</ele>
        <time>2020-08-18T10:12:27.000Z</time>
      </trkpt>
      <trkpt lat="49.31169" lon="0.9637">
        <ele>112.6</ele>
        <time>2020-08-18T10:12:32.000Z</time>
      </trkpt>
      <trkpt lat="49.31172" lon="0.96382">
        <ele>112.8</ele>
        <time>2020-08-18T10:12:37.000Z</time>
      </trkpt>
      <trkpt lat="49.31175" lon="0.96397">
        <ele>113</ele>
        <time>2020-08-18T10:12:42.000Z</time>
      </trkpt>
      <trkpt lat="49.31177" lon="0.9641">
        <ele>112.9</ele>
        <time>2020-08-18T10:12:47.000Z</time>
      </trkpt>
      <trkpt lat="49.31177" lon="0.96411">
        <ele>113</ele>
        <time>2020-08-18T10:12:50.000Z</time>
      </trkpt>
      <trkpt lat="49.31178" lon="0.96412">
        <ele>113.1</ele>
        <time>2020-08-18T10:13:17.000Z</time>
      </trkpt>
      <trkpt lat="49.3118" lon="0.96418">
        <ele>113</ele>
        <time>2020-08-18T10:13:22.000Z</time>
      </trkpt>
      <trkpt lat="49.31184" lon="0.96432">
        <ele>112.4</ele>
        <time>2020-08-18T10:13:27.000Z</time>
      </trkpt>
      <trkpt lat="49.31185" lon="0.96442">
        <ele>113</ele>
        <time>2020-08-18T10:13:32.000Z</time>
      </trkpt>
      <trkpt lat="49.31185" lon="0.96443">
        <ele>113</ele>
        <time>2020-08-18T10:13:40.000Z</time>
      </trkpt>
      <trkpt lat="49.31186" lon="0.96452">
        <ele>113.7</ele>
        <time>2020-08-18T10:13:45.000Z</time>
      </trkpt>
      <trkpt lat="49.31188" lon="0.96468">
        <ele>113.9</ele>
        <time>2020-08-18T10:13:50.000Z</time>
      </trkpt>
      <trkpt lat="49.31191" lon="0.96485">
        <ele>113.5</ele>
        <time>2020-08-18T10:13:55.000Z</time>
      </trkpt>
      <trkpt lat="49.31196" lon="0.96503">
        <ele>112.9</ele>
        <time>2020-08-18T10:14:00.000Z</time>
      </trkpt>
      <trkpt lat="49.31205" lon="0.96521">
        <ele>112.4</ele>
        <time>2020-08-18T10:14:05.000Z</time>
      </trkpt>
      <trkpt lat="49.31218" lon="0.96541">
        <ele>111.9</ele>
        <time>2020-08-18T10:14:10.000Z</time>
      </trkpt>
      <trkpt lat="49.31231" lon="0.96563">
        <ele>111.8</ele>
        <time>2020-08-18T10:14:15.000Z</time>
      </trkpt>
      <trkpt lat="49.31244" lon="0.96576">
        <ele>111.6</ele>
        <time>2020-08-18T10:14:20.000Z</time>
      </trkpt>
      <trkpt lat="49.31259" lon="0.96585">
        <ele>112.7</ele>
        <time>2020-08-18T10:14:25.000Z</time>
      </trkpt>
      <trkpt lat="49.31275" lon="0.96593">
        <ele>113</ele>
        <time>2020-08-18T10:14:30.000Z</time>
      </trkpt>
      <trkpt lat="49.31293" lon="0.96608">
        <ele>112.8</ele>
        <time>2020-08-18T10:14:35.000Z</time>
      </trkpt>
      <trkpt lat="49.31311" lon="0.96624">
        <ele>112.9</ele>
        <time>2020-08-18T10:14:40.000Z</time>
      </trkpt>
      <trkpt lat="49.31326" lon="0.96636">
        <ele>112.9</ele>
        <time>2020-08-18T10:14:45.000Z</time>
      </trkpt>
      <trkpt lat="49.31342" lon="0.96648">
        <ele>112.1</ele>
        <time>2020-08-18T10:14:50.000Z</time>
      </trkpt>
      <trkpt lat="49.31359" lon="0.9665">
        <ele>114.4</ele>
        <time>2020-08-18T10:14:55.000Z</time>
      </trkpt>
      <trkpt lat="49.31381" lon="0.9665">
        <ele>115.1</ele>
        <time>2020-08-18T10:15:00.000Z</time>
      </trkpt>
      <trkpt lat="49.31403" lon="0.96651">
        <ele>114.4</ele>
        <time>2020-08-18T10:15:05.000Z</time>
      </trkpt>
      <trkpt lat="49.31427" lon="0.96661">
        <ele>113.2</ele>
        <time>2020-08-18T10:15:10.000Z</time>
      </trkpt>
      <trkpt lat="49.31445" lon="0.96658">
        <ele>111.9</ele>
        <time>2020-08-18T10:15:15.000Z</time>
      </trkpt>
      <trkpt lat="49.31464" lon="0.96657">
        <ele>111.6</ele>
        <time>2020-08-18T10:15:20.000Z</time>
      </trkpt>
      <trkpt lat="49.31475" lon="0.96666">
        <ele>111</ele>
        <time>2020-08-18T10:15:25.000Z</time>
      </trkpt>
      <trkpt lat="49.31485" lon="0.96671">
        <ele>110.9</ele>
        <time>2020-08-18T10:15:30.000Z</time>
      </trkpt>
      <trkpt lat="49.315" lon="0.96676">
        <ele>109.2</ele>
        <time>2020-08-18T10:15:35.000Z</time>
      </trkpt>
      <trkpt lat="49.31514" lon="0.96685">
        <ele>109</ele>
        <time>2020-08-18T10:15:40.000Z</time>
      </trkpt>
      <trkpt lat="49.31529" lon="0.96699">
        <ele>106.9</ele>
        <time>2020-08-18T10:15:45.000Z</time>
      </trkpt>
      <trkpt lat="49.31545" lon="0.96706">
        <ele>106.8</ele>
        <time>2020-08-18T10:15:50.000Z</time>
      </trkpt>
      <trkpt lat="49.31545" lon="0.96707">
        <ele>107.1</ele>
        <time>2020-08-18T10:15:53.000Z</time>
      </trkpt>
      <trkpt lat="49.31546" lon="0.96707">
        <ele>107.2</ele>
        <time>2020-08-18T10:15:54.000Z</time>
      </trkpt>
      <trkpt lat="49.31547" lon="0.96708">
        <ele>106.1</ele>
        <time>2020-08-18T10:15:59.000Z</time>
      </trkpt>
      <trkpt lat="49.31547" lon="0.96709">
        <ele>105.8</ele>
        <time>2020-08-18T10:17:17.000Z</time>
      </trkpt>
      <trkpt lat="49.31548" lon="0.96709">
        <ele>105.6</ele>
        <time>2020-08-18T10:17:41.000Z</time>
      </trkpt>
      <trkpt lat="49.31548" lon="0.96709">
        <ele>105.3</ele>
        <time>2020-08-18T10:19:37.000Z</time>
      </trkpt>
      <trkpt lat="49.31547" lon="0.96709">
        <ele>105.3</ele>
        <time>2020-08-18T10:19:45.000Z</time>
      </trkpt>
      <trkpt lat="49.31547" lon="0.96709">
        <ele>105.3</ele>
        <time>2020-08-18T10:21:53.000Z</time>
      </trkpt>
      <trkpt lat="49.31546" lon="0.9671">
        <ele>105.3</ele>
        <time>2020-08-18T10:22:06.000Z</time>
      </trkpt>
      <trkpt lat="49.31545" lon="0.96713">
        <ele>105.3</ele>
        <time>2020-08-18T10:22:20.000Z</time>
      </trkpt>
      <trkpt lat="49.31548" lon="0.96725">
        <ele>103.9</ele>
        <time>2020-08-18T10:22:32.000Z</time>
      </trkpt>
      <trkpt lat="49.31552" lon="0.96735">
        <ele>103.6</ele>
        <time>2020-08-18T10:22:37.000Z</time>
      </trkpt>
      <trkpt lat="49.31554" lon="0.96747">
        <ele>103.7</ele>
        <time>2020-08-18T10:22:42.000Z</time>
      </trkpt>
      <trkpt lat="49.31556" lon="0.96757">
        <ele>103.4</ele>
        <time>2020-08-18T10:22:47.000Z</time>
      </trkpt>
      <trkpt lat="49.31556" lon="0.96758">
        <ele>103.1</ele>
        <time>2020-08-18T10:22:49.000Z</time>
      </trkpt>
      <trkpt lat="49.31556" lon="0.96759">
        <ele>103</ele>
        <time>2020-08-18T10:23:13.000Z</time>
      </trkpt>
      <trkpt lat="49.31555" lon="0.9676">
        <ele>102.5</ele>
        <time>2020-08-18T10:23:18.000Z</time>
      </trkpt>
      <trkpt lat="49.31553" lon="0.96762">
        <ele>102.4</ele>
        <time>2020-08-18T10:23:27.000Z</time>
      </trkpt>
      <trkpt lat="49.3155" lon="0.96764">
        <ele>102.8</ele>
        <time>2020-08-18T10:23:32.000Z</time>
      </trkpt>
      <trkpt lat="49.31548" lon="0.96767">
        <ele>103.2</ele>
        <time>2020-08-18T10:23:37.000Z</time>
      </trkpt>
      <trkpt lat="49.31546" lon="0.9677">
        <ele>103.9</ele>
        <time>2020-08-18T10:23:42.000Z</time>
      </trkpt>
      <trkpt lat="49.31544" lon="0.96772">
        <ele>104</ele>
        <time>2020-08-18T10:23:47.000Z</time>
      </trkpt>
      <trkpt lat="49.31543" lon="0.96775">
        <ele>104.2</ele>
        <time>2020-08-18T10:23:52.000Z</time>
      </trkpt>
      <trkpt lat="49.31543" lon="0.96777">
        <ele>104.4</ele>
        <time>2020-08-18T10:23:57.000Z</time>
      </trkpt>
      <trkpt lat="49.31542" lon="0.96777">
        <ele>104.4</ele>
        <time>2020-08-18T10:23:59.000Z</time>
      </trkpt>
      <trkpt lat="49.31542" lon="0.96778">
        <ele>104.6</ele>
        <time>2020-08-18T10:24:11.000Z</time>
      </trkpt>
      <trkpt lat="49.31539" lon="0.96784">
        <ele>104.6</ele>
        <time>2020-08-18T10:24:16.000Z</time>
      </trkpt>
      <trkpt lat="49.31534" lon="0.96789">
        <ele>105.1</ele>
        <time>2020-08-18T10:24:21.000Z</time>
      </trkpt>
      <trkpt lat="49.31527" lon="0.96798">
        <ele>106</ele>
        <time>2020-08-18T10:24:26.000Z</time>
      </trkpt>
      <trkpt lat="49.3152" lon="0.96807">
        <ele>106.2</ele>
        <time>2020-08-18T10:24:31.000Z</time>
      </trkpt>
      <trkpt lat="49.31512" lon="0.96818">
        <ele>106.1</ele>
        <time>2020-08-18T10:24:36.000Z</time>
      </trkpt>
      <trkpt lat="49.31505" lon="0.96827">
        <ele>106.2</ele>
        <time>2020-08-18T10:24:41.000Z</time>
      </trkpt>
      <trkpt lat="49.31497" lon="0.96838">
        <ele>107.1</ele>
        <time>2020-08-18T10:24:46.000Z</time>
      </trkpt>
      <trkpt lat="49.31489" lon="0.96849">
        <ele>108.4</ele>
        <time>2020-08-18T10:24:51.000Z</time>
      </trkpt>
      <trkpt lat="49.31481" lon="0.96861">
        <ele>109.7</ele>
        <time>2020-08-18T10:24:56.000Z</time>
      </trkpt>
      <trkpt lat="49.31473" lon="0.96873">
        <ele>110.9</ele>
        <time>2020-08-18T10:25:01.000Z</time>
      </trkpt>
      <trkpt lat="49.31465" lon="0.96885">
        <ele>111.7</ele>
        <time>2020-08-18T10:25:06.000Z</time>
      </trkpt>
      <trkpt lat="49.31455" lon="0.96898">
        <ele>113.4</ele>
        <time>2020-08-18T10:25:11.000Z</time>
      </trkpt>
      <trkpt lat="49.31446" lon="0.9691">
        <ele>114.1</ele>
        <time>2020-08-18T10:25:16.000Z</time>
      </trkpt>
      <trkpt lat="49.31451" lon="0.96922">
        <ele>113.8</ele>
        <time>2020-08-18T10:25:21.000Z</time>
      </trkpt>
      <trkpt lat="49.31464" lon="0.96939">
        <ele>112.5</ele>
        <time>2020-08-18T10:25:26.000Z</time>
      </trkpt>
      <trkpt lat="49.31481" lon="0.96959">
        <ele>111.8</ele>
        <time>2020-08-18T10:25:31.000Z</time>
      </trkpt>
      <trkpt lat="49.31501" lon="0.96978">
        <ele>111.3</ele>
        <time>2020-08-18T10:25:36.000Z</time>
      </trkpt>
      <trkpt lat="49.31516" lon="0.97005">
        <ele>110.7</ele>
        <time>2020-08-18T10:25:41.000Z</time>
      </trkpt>
      <trkpt lat="49.31533" lon="0.9703">
        <ele>110.2</ele>
        <time>2020-08-18T10:25:46.000Z</time>
      </trkpt>
      <trkpt lat="49.31552" lon="0.97054">
        <ele>109.7</ele>
        <time>2020-08-18T10:25:51.000Z</time>
      </trkpt>
      <trkpt lat="49.3157" lon="0.97082">
        <ele>109.2</ele>
        <time>2020-08-18T10:25:56.000Z</time>
      </trkpt>
      <trkpt lat="49.31584" lon="0.971">
        <ele>108.4</ele>
        <time>2020-08-18T10:26:01.000Z</time>
      </trkpt>
      <trkpt lat="49.31591" lon="0.97092">
        <ele>106.9</ele>
        <time>2020-08-18T10:26:06.000Z</time>
      </trkpt>
      <trkpt lat="49.31597" lon="0.97084">
        <ele>106.5</ele>
        <time>2020-08-18T10:26:11.000Z</time>
      </trkpt>
      <trkpt lat="49.31598" lon="0.97086">
        <ele>106.5</ele>
        <time>2020-08-18T10:26:20.000Z</time>
      </trkpt>
      <trkpt lat="49.31599" lon="0.97087">
        <ele>106.7</ele>
        <time>2020-08-18T10:26:24.000Z</time>
      </trkpt>
      <trkpt lat="49.31604" lon="0.97097">
        <ele>106</ele>
        <time>2020-08-18T10:26:29.000Z</time>
      </trkpt>
      <trkpt lat="49.31615" lon="0.97097">
        <ele>105.5</ele>
        <time>2020-08-18T10:26:34.000Z</time>
      </trkpt>
      <trkpt lat="49.31627" lon="0.97089">
        <ele>105.4</ele>
        <time>2020-08-18T10:26:39.000Z</time>
      </trkpt>
      <trkpt lat="49.31644" lon="0.97096">
        <ele>104.9</ele>
        <time>2020-08-18T10:26:44.000Z</time>
      </trkpt>
      <trkpt lat="49.31663" lon="0.97102">
        <ele>104.2</ele>
        <time>2020-08-18T10:26:49.000Z</time>
      </trkpt>
      <trkpt lat="49.31677" lon="0.97095">
        <ele>104.2</ele>
        <time>2020-08-18T10:26:54.000Z</time>
      </trkpt>
      <trkpt lat="49.31693" lon="0.97101">
        <ele>103.6</ele>
        <time>2020-08-18T10:26:59.000Z</time>
      </trkpt>
      <trkpt lat="49.31703" lon="0.97101">
        <ele>102.9</ele>
        <time>2020-08-18T10:27:04.000Z</time>
      </trkpt>
      <trkpt lat="49.31712" lon="0.97108">
        <ele>102.3</ele>
        <time>2020-08-18T10:27:09.000Z</time>
      </trkpt>
      <trkpt lat="49.31721" lon="0.97127">
        <ele>101.4</ele>
        <time>2020-08-18T10:27:14.000Z</time>
      </trkpt>
      <trkpt lat="49.31728" lon="0.97144">
        <ele>101.3</ele>
        <time>2020-08-18T10:27:19.000Z</time>
      </trkpt>
      <trkpt lat="49.31735" lon="0.97158">
        <ele>100.3</ele>
        <time>2020-08-18T10:27:24.000Z</time>
      </trkpt>
      <trkpt lat="49.31744" lon="0.97174">
        <ele>100.3</ele>
        <time>2020-08-18T10:27:29.000Z</time>
      </trkpt>
      <trkpt lat="49.31747" lon="0.97187">
        <ele>100.4</ele>
        <time>2020-08-18T10:27:34.000Z</time>
      </trkpt>
      <trkpt lat="49.31744" lon="0.97203">
        <ele>100.1</ele>
        <time>2020-08-18T10:27:39.000Z</time>
      </trkpt>
      <trkpt lat="49.31748" lon="0.97213">
        <ele>100.4</ele>
        <time>2020-08-18T10:27:44.000Z</time>
      </trkpt>
      <trkpt lat="49.31756" lon="0.9722">
        <ele>99.9</ele>
        <time>2020-08-18T10:27:49.000Z</time>
      </trkpt>
      <trkpt lat="49.31771" lon="0.97232">
        <ele>98.6</ele>
        <time>2020-08-18T10:27:54.000Z</time>
      </trkpt>
      <trkpt lat="49.31776" lon="0.97248">
        <ele>97.9</ele>
        <time>2020-08-18T10:27:59.000Z</time>
      </trkpt>
      <trkpt lat="49.31778" lon="0.97269">
        <ele>96</ele>
        <time>2020-08-18T10:28:04.000Z</time>
      </trkpt>
      <trkpt lat="49.31786" lon="0.97283">
        <ele>95.3</ele>
        <time>2020-08-18T10:28:09.000Z</time>
      </trkpt>
      <trkpt lat="49.31798" lon="0.973">
        <ele>95.7</ele>
        <time>2020-08-18T10:28:14.000Z</time>
      </trkpt>
      <trkpt lat="49.31809" lon="0.97313">
        <ele>95.6</ele>
        <time>2020-08-18T10:28:19.000Z</time>
      </trkpt>
      <trkpt lat="49.31823" lon="0.97326">
        <ele>95.3</ele>
        <time>2020-08-18T10:28:24.000Z</time>
      </trkpt>
      <trkpt lat="49.31836" lon="0.9734">
        <ele>95</ele>
        <time>2020-08-18T10:28:29.000Z</time>
      </trkpt>
      <trkpt lat="49.31849" lon="0.97353">
        <ele>94.6</ele>
        <time>2020-08-18T10:28:34.000Z</time>
      </trkpt>
      <trkpt lat="49.31861" lon="0.97367">
        <ele>95</ele>
        <time>2020-08-18T10:28:39.000Z</time>
      </trkpt>
      <trkpt lat="49.31873" lon="0.9738">
        <ele>95.5</ele>
        <time>2020-08-18T10:28:44.000Z</time>
      </trkpt>
      <trkpt lat="49.31886" lon="0.97394">
        <ele>96.1</ele>
        <time>2020-08-18T10:28:49.000Z</time>
      </trkpt>
      <trkpt lat="49.31898" lon="0.97411">
        <ele>96.9</ele>
        <time>2020-08-18T10:28:54.000Z</time>
      </trkpt>
      <trkpt lat="49.3191" lon="0.97424">
        <ele>97.6</ele>
        <time>2020-08-18T10:28:59.000Z</time>
      </trkpt>
      <trkpt lat="49.31924" lon="0.97429">
        <ele>97.6</ele>
        <time>2020-08-18T10:29:04.000Z</time>
      </trkpt>
      <trkpt lat="49.3194" lon="0.97442">
        <ele>98.1</ele>
        <time>2020-08-18T10:29:09.000Z</time>
      </trkpt>
      <trkpt lat="49.31947" lon="0.97461">
        <ele>97.7</ele>
        <time>2020-08-18T10:29:14.000Z</time>
      </trkpt>
      <trkpt lat="49.31956" lon="0.9747">
        <ele>98.5</ele>
        <time>2020-08-18T10:29:19.000Z</time>
      </trkpt>
      <trkpt lat="49.31965" lon="0.97477">
        <ele>99.2</ele>
        <time>2020-08-18T10:29:24.000Z</time>
      </trkpt>
      <trkpt lat="49.31975" lon="0.97487">
        <ele>99.1</ele>
        <time>2020-08-18T10:29:29.000Z</time>
      </trkpt>
      <trkpt lat="49.31981" lon="0.97504">
        <ele>99.3</ele>
        <time>2020-08-18T10:29:34.000Z</time>
      </trkpt>
      <trkpt lat="49.31989" lon="0.97513">
        <ele>99.2</ele>
        <time>2020-08-18T10:29:39.000Z</time>
      </trkpt>
      <trkpt lat="49.32004" lon="0.97516">
        <ele>99.1</ele>
        <time>2020-08-18T10:29:44.000Z</time>
      </trkpt>
      <trkpt lat="49.32025" lon="0.97516">
        <ele>98.3</ele>
        <time>2020-08-18T10:29:49.000Z</time>
      </trkpt>
      <trkpt lat="49.32046" lon="0.97524">
        <ele>96.8</ele>
        <time>2020-08-18T10:29:54.000Z</time>
      </trkpt>
      <trkpt lat="49.32066" lon="0.97525">
        <ele>96.9</ele>
        <time>2020-08-18T10:29:59.000Z</time>
      </trkpt>
      <trkpt lat="49.3209" lon="0.97531">
        <ele>96.1</ele>
        <time>2020-08-18T10:30:04.000Z</time>
      </trkpt>
      <trkpt lat="49.32115" lon="0.97534">
        <ele>94.9</ele>
        <time>2020-08-18T10:30:09.000Z</time>
      </trkpt>
      <trkpt lat="49.32136" lon="0.9753">
        <ele>94.5</ele>
        <time>2020-08-18T10:30:14.000Z</time>
      </trkpt>
      <trkpt lat="49.32156" lon="0.97528">
        <ele>93.7</ele>
        <time>2020-08-18T10:30:19.000Z</time>
      </trkpt>
      <trkpt lat="49.32174" lon="0.9753">
        <ele>93</ele>
        <time>2020-08-18T10:30:24.000Z</time>
      </trkpt>
      <trkpt lat="49.32193" lon="0.97542">
        <ele>91.3</ele>
        <time>2020-08-18T10:30:29.000Z</time>
      </trkpt>
      <trkpt lat="49.32205" lon="0.97557">
        <ele>90.2</ele>
        <time>2020-08-18T10:30:34.000Z</time>
      </trkpt>
      <trkpt lat="49.32211" lon="0.97576">
        <ele>89.1</ele>
        <time>2020-08-18T10:30:39.000Z</time>
      </trkpt>
      <trkpt lat="49.32218" lon="0.97586">
        <ele>87.5</ele>
        <time>2020-08-18T10:30:44.000Z</time>
      </trkpt>
      <trkpt lat="49.32223" lon="0.97601">
        <ele>85.2</ele>
        <time>2020-08-18T10:30:49.000Z</time>
      </trkpt>
      <trkpt lat="49.32229" lon="0.9762">
        <ele>83.4</ele>
        <time>2020-08-18T10:30:54.000Z</time>
      </trkpt>
      <trkpt lat="49.32237" lon="0.97636">
        <ele>81.4</ele>
        <time>2020-08-18T10:30:59.000Z</time>
      </trkpt>
      <trkpt lat="49.32249" lon="0.97642">
        <ele>80.7</ele>
        <time>2020-08-18T10:31:04.000Z</time>
      </trkpt>
      <trkpt lat="49.3226" lon="0.9765">
        <ele>79.4</ele>
        <time>2020-08-18T10:31:09.000Z</time>
      </trkpt>
      <trkpt lat="49.32263" lon="0.97664">
        <ele>76.5</ele>
        <time>2020-08-18T10:31:14.000Z</time>
      </trkpt>
      <trkpt lat="49.32263" lon="0.97668">
        <ele>76</ele>
        <time>2020-08-18T10:31:18.000Z</time>
      </trkpt>
      <trkpt lat="49.32264" lon="0.97669">
        <ele>76.2</ele>
        <time>2020-08-18T10:31:23.000Z</time>
      </trkpt>
      <trkpt lat="49.32266" lon="0.97676">
        <ele>75.3</ele>
        <time>2020-08-18T10:31:28.000Z</time>
      </trkpt>
      <trkpt lat="49.32266" lon="0.97677">
        <ele>75.5</ele>
        <time>2020-08-18T10:31:33.000Z</time>
      </trkpt>
      <trkpt lat="49.32271" lon="0.97684">
        <ele>74.3</ele>
        <time>2020-08-18T10:31:38.000Z</time>
      </trkpt>
      <trkpt lat="49.32279" lon="0.97678">
        <ele>73.5</ele>
        <time>2020-08-18T10:31:43.000Z</time>
      </trkpt>
      <trkpt lat="49.32285" lon="0.97668">
        <ele>72.8</ele>
        <time>2020-08-18T10:31:48.000Z</time>
      </trkpt>
      <trkpt lat="49.32289" lon="0.97659">
        <ele>72</ele>
        <time>2020-08-18T10:31:53.000Z</time>
      </trkpt>
      <trkpt lat="49.32295" lon="0.97652">
        <ele>70.7</ele>
        <time>2020-08-18T10:31:58.000Z</time>
      </trkpt>
      <trkpt lat="49.32302" lon="0.97646">
        <ele>69.8</ele>
        <time>2020-08-18T10:32:03.000Z</time>
      </trkpt>
      <trkpt lat="49.32308" lon="0.97639">
        <ele>69.8</ele>
        <time>2020-08-18T10:32:08.000Z</time>
      </trkpt>
      <trkpt lat="49.3231" lon="0.97624">
        <ele>67.9</ele>
        <time>2020-08-18T10:32:13.000Z</time>
      </trkpt>
      <trkpt lat="49.32305" lon="0.97612">
        <ele>66.7</ele>
        <time>2020-08-18T10:32:18.000Z</time>
      </trkpt>
      <trkpt lat="49.323" lon="0.97599">
        <ele>65.6</ele>
        <time>2020-08-18T10:32:23.000Z</time>
      </trkpt>
      <trkpt lat="49.32302" lon="0.97586">
        <ele>65.7</ele>
        <time>2020-08-18T10:32:28.000Z</time>
      </trkpt>
      <trkpt lat="49.32308" lon="0.97583">
        <ele>63.4</ele>
        <time>2020-08-18T10:32:33.000Z</time>
      </trkpt>
      <trkpt lat="49.32318" lon="0.97587">
        <ele>61</ele>
        <time>2020-08-18T10:32:38.000Z</time>
      </trkpt>
      <trkpt lat="49.32328" lon="0.97595">
        <ele>61.2</ele>
        <time>2020-08-18T10:32:43.000Z</time>
      </trkpt>
      <trkpt lat="49.3234" lon="0.97604">
        <ele>61.3</ele>
        <time>2020-08-18T10:32:48.000Z</time>
      </trkpt>
      <trkpt lat="49.3235" lon="0.97607">
        <ele>61.9</ele>
        <time>2020-08-18T10:32:53.000Z</time>
      </trkpt>
      <trkpt lat="49.32352" lon="0.97608">
        <ele>62.6</ele>
        <time>2020-08-18T10:32:58.000Z</time>
      </trkpt>
      <trkpt lat="49.32356" lon="0.97611">
        <ele>63.5</ele>
        <time>2020-08-18T10:33:03.000Z</time>
      </trkpt>
      <trkpt lat="49.32357" lon="0.97614">
        <ele>64.2</ele>
        <time>2020-08-18T10:33:08.000Z</time>
      </trkpt>
      <trkpt lat="49.32359" lon="0.9762">
        <ele>63.8</ele>
        <time>2020-08-18T10:33:21.000Z</time>
      </trkpt>
      <trkpt lat="49.32368" lon="0.97627">
        <ele>63.7</ele>
        <time>2020-08-18T10:33:26.000Z</time>
      </trkpt>
      <trkpt lat="49.32377" lon="0.9764">
        <ele>63.6</ele>
        <time>2020-08-18T10:33:31.000Z</time>
      </trkpt>
      <trkpt lat="49.32386" lon="0.97651">
        <ele>63.8</ele>
        <time>2020-08-18T10:33:36.000Z</time>
      </trkpt>
      <trkpt lat="49.32392" lon="0.97665">
        <ele>64</ele>
        <time>2020-08-18T10:33:41.000Z</time>
      </trkpt>
      <trkpt lat="49.32393" lon="0.97682">
        <ele>64.1</ele>
        <time>2020-08-18T10:33:46.000Z</time>
      </trkpt>
      <trkpt lat="49.32388" lon="0.97685">
        <ele>63.8</ele>
        <time>2020-08-18T10:33:51.000Z</time>
      </trkpt>
      <trkpt lat="49.3238" lon="0.97685">
        <ele>63.6</ele>
        <time>2020-08-18T10:33:56.000Z</time>
      </trkpt>
      <trkpt lat="49.32371" lon="0.97681">
        <ele>63.1</ele>
        <time>2020-08-18T10:34:01.000Z</time>
      </trkpt>
      <trkpt lat="49.32361" lon="0.97674">
        <ele>62.4</ele>
        <time>2020-08-18T10:34:06.000Z</time>
      </trkpt>
      <trkpt lat="49.32353" lon="0.97678">
        <ele>62.7</ele>
        <time>2020-08-18T10:34:11.000Z</time>
      </trkpt>
      <trkpt lat="49.32347" lon="0.97689">
        <ele>63.2</ele>
        <time>2020-08-18T10:34:16.000Z</time>
      </trkpt>
      <trkpt lat="49.32339" lon="0.97699">
        <ele>63.5</ele>
        <time>2020-08-18T10:34:21.000Z</time>
      </trkpt>
      <trkpt lat="49.32337" lon="0.97702">
        <ele>63.6</ele>
        <time>2020-08-18T10:34:25.000Z</time>
      </trkpt>
      <trkpt lat="49.32335" lon="0.97705">
        <ele>64</ele>
        <time>2020-08-18T10:34:33.000Z</time>
      </trkpt>
      <trkpt lat="49.32334" lon="0.97706">
        <ele>63.8</ele>
        <time>2020-08-18T10:34:37.000Z</time>
      </trkpt>
      <trkpt lat="49.32334" lon="0.97707">
        <ele>63.8</ele>
        <time>2020-08-18T10:34:38.000Z</time>
      </trkpt>
      <trkpt lat="49.3233" lon="0.97712">
        <ele>64</ele>
        <time>2020-08-18T10:34:43.000Z</time>
      </trkpt>
      <trkpt lat="49.32321" lon="0.97725">
        <ele>64</ele>
        <time>2020-08-18T10:34:48.000Z</time>
      </trkpt>
      <trkpt lat="49.3231" lon="0.97735">
        <ele>63.7</ele>
        <time>2020-08-18T10:34:53.000Z</time>
      </trkpt>
      <trkpt lat="49.32301" lon="0.97746">
        <ele>63.3</ele>
        <time>2020-08-18T10:34:58.000Z</time>
      </trkpt>
      <trkpt lat="49.32283" lon="0.97759">
        <ele>63</ele>
        <time>2020-08-18T10:35:03.000Z</time>
      </trkpt>
      <trkpt lat="49.32264" lon="0.9777">
        <ele>62.5</ele>
        <time>2020-08-18T10:35:08.000Z</time>
      </trkpt>
      <trkpt lat="49.32245" lon="0.97783">
        <ele>61.7</ele>
        <time>2020-08-18T10:35:13.000Z</time>
      </trkpt>
      <trkpt lat="49.32231" lon="0.97797">
        <ele>61.2</ele>
        <time>2020-08-18T10:35:18.000Z</time>
      </trkpt>
      <trkpt lat="49.32214" lon="0.97809">
        <ele>60.3</ele>
        <time>2020-08-18T10:35:23.000Z</time>
      </trkpt>
      <trkpt lat="49.32195" lon="0.97827">
        <ele>58.3</ele>
        <time>2020-08-18T10:35:28.000Z</time>
      </trkpt>
      <trkpt lat="49.32179" lon="0.97841">
        <ele>56.6</ele>
        <time>2020-08-18T10:35:33.000Z</time>
      </trkpt>
      <trkpt lat="49.32168" lon="0.97849">
        <ele>56</ele>
        <time>2020-08-18T10:35:38.000Z</time>
      </trkpt>
      <trkpt lat="49.3217" lon="0.97848">
        <ele>56.1</ele>
        <time>2020-08-18T10:35:40.000Z</time>
      </trkpt>
      <trkpt lat="49.3217" lon="0.97849">
        <ele>56.2</ele>
        <time>2020-08-18T10:35:57.000Z</time>
      </trkpt>
      <trkpt lat="49.32169" lon="0.97849">
        <ele>56.3</ele>
        <time>2020-08-18T10:35:59.000Z</time>
      </trkpt>
      <trkpt lat="49.32166" lon="0.97851">
        <ele>56.5</ele>
        <time>2020-08-18T10:36:06.000Z</time>
      </trkpt>
      <trkpt lat="49.32159" lon="0.97855">
        <ele>55.4</ele>
        <time>2020-08-18T10:36:11.000Z</time>
      </trkpt>
      <trkpt lat="49.32149" lon="0.9786">
        <ele>53.5</ele>
        <time>2020-08-18T10:36:16.000Z</time>
      </trkpt>
      <trkpt lat="49.32139" lon="0.97862">
        <ele>52.7</ele>
        <time>2020-08-18T10:36:21.000Z</time>
      </trkpt>
      <trkpt lat="49.3213" lon="0.97863">
        <ele>52.2</ele>
        <time>2020-08-18T10:36:26.000Z</time>
      </trkpt>
      <trkpt lat="49.3212" lon="0.97869">
        <ele>51.5</ele>
        <time>2020-08-18T10:36:31.000Z</time>
      </trkpt>
      <trkpt lat="49.32109" lon="0.97878">
        <ele>50.8</ele>
        <time>2020-08-18T10:36:36.000Z</time>
      </trkpt>
      <trkpt lat="49.32099" lon="0.97883">
        <ele>51.2</ele>
        <time>2020-08-18T10:36:41.000Z</time>
      </trkpt>
      <trkpt lat="49.32091" lon="0.97887">
        <ele>51.7</ele>
        <time>2020-08-18T10:36:46.000Z</time>
      </trkpt>
      <trkpt lat="49.3208" lon="0.97893">
        <ele>52.1</ele>
        <time>2020-08-18T10:36:51.000Z</time>
      </trkpt>
      <trkpt lat="49.32069" lon="0.97902">
        <ele>51.7</ele>
        <time>2020-08-18T10:36:56.000Z</time>
      </trkpt>
      <trkpt lat="49.32058" lon="0.97917">
        <ele>51.8</ele>
        <time>2020-08-18T10:37:01.000Z</time>
      </trkpt>
      <trkpt lat="49.32047" lon="0.97932">
        <ele>52.2</ele>
        <time>2020-08-18T10:37:06.000Z</time>
      </trkpt>
      <trkpt lat="49.32035" lon="0.97945">
        <ele>51.7</ele>
        <time>2020-08-18T10:37:11.000Z</time>
      </trkpt>
      <trkpt lat="49.32024" lon="0.97949">
        <ele>52</ele>
        <time>2020-08-18T10:37:16.000Z</time>
      </trkpt>
      <trkpt lat="49.32016" lon="0.97941">
        <ele>52.5</ele>
        <time>2020-08-18T10:37:21.000Z</time>
      </trkpt>
      <trkpt lat="49.32007" lon="0.97935">
        <ele>53.2</ele>
        <time>2020-08-18T10:37:26.000Z</time>
      </trkpt>
      <trkpt lat="49.31997" lon="0.97928">
        <ele>52.8</ele>
        <time>2020-08-18T10:37:31.000Z</time>
      </trkpt>
      <trkpt lat="49.31999" lon="0.97929">
        <ele>52.7</ele>
        <time>2020-08-18T10:37:33.000Z</time>
      </trkpt>
      <trkpt lat="49.31998" lon="0.97928">
        <ele>52.5</ele>
        <time>2020-08-18T10:38:07.000Z</time>
      </trkpt>
      <trkpt lat="49.31994" lon="0.97922">
        <ele>52.8</ele>
        <time>2020-08-18T10:38:12.000Z</time>
      </trkpt>
      <trkpt lat="49.31984" lon="0.97915">
        <ele>52.1</ele>
        <time>2020-08-18T10:38:17.000Z</time>
      </trkpt>
      <trkpt lat="49.31965" lon="0.97916">
        <ele>51.4</ele>
        <time>2020-08-18T10:38:22.000Z</time>
      </trkpt>
      <trkpt lat="49.31948" lon="0.97921">
        <ele>51.4</ele>
        <time>2020-08-18T10:38:27.000Z</time>
      </trkpt>
      <trkpt lat="49.31933" lon="0.97923">
        <ele>51.4</ele>
        <time>2020-08-18T10:38:32.000Z</time>
      </trkpt>
      <trkpt lat="49.31921" lon="0.97931">
        <ele>51.5</ele>
        <time>2020-08-18T10:38:37.000Z</time>
      </trkpt>
      <trkpt lat="49.3191" lon="0.97939">
        <ele>51.5</ele>
        <time>2020-08-18T10:38:42.000Z</time>
      </trkpt>
      <trkpt lat="49.31895" lon="0.97944">
        <ele>51.5</ele>
        <time>2020-08-18T10:38:47.000Z</time>
      </trkpt>
      <trkpt lat="49.3188" lon="0.97947">
        <ele>51.3</ele>
        <time>2020-08-18T10:38:52.000Z</time>
      </trkpt>
      <trkpt lat="49.31867" lon="0.97961">
        <ele>51.8</ele>
        <time>2020-08-18T10:38:57.000Z</time>
      </trkpt>
      <trkpt lat="49.31855" lon="0.97972">
        <ele>52</ele>
        <time>2020-08-18T10:39:02.000Z</time>
      </trkpt>
      <trkpt lat="49.31841" lon="0.97979">
        <ele>52.5</ele>
        <time>2020-08-18T10:39:07.000Z</time>
      </trkpt>
      <trkpt lat="49.31829" lon="0.97992">
        <ele>52.1</ele>
        <time>2020-08-18T10:39:12.000Z</time>
      </trkpt>
      <trkpt lat="49.31821" lon="0.98007">
        <ele>52</ele>
        <time>2020-08-18T10:39:17.000Z</time>
      </trkpt>
      <trkpt lat="49.31818" lon="0.9803">
        <ele>51.6</ele>
        <time>2020-08-18T10:39:22.000Z</time>
      </trkpt>
      <trkpt lat="49.31811" lon="0.98052">
        <ele>50.4</ele>
        <time>2020-08-18T10:39:27.000Z</time>
      </trkpt>
      <trkpt lat="49.318" lon="0.98067">
        <ele>50.6</ele>
        <time>2020-08-18T10:39:32.000Z</time>
      </trkpt>
      <trkpt lat="49.31789" lon="0.98075">
        <ele>50.7</ele>
        <time>2020-08-18T10:39:37.000Z</time>
      </trkpt>
      <trkpt lat="49.31779" lon="0.9808">
        <ele>50.5</ele>
        <time>2020-08-18T10:39:42.000Z</time>
      </trkpt>
      <trkpt lat="49.31771" lon="0.98086">
        <ele>50.9</ele>
        <time>2020-08-18T10:39:47.000Z</time>
      </trkpt>
      <trkpt lat="49.31763" lon="0.98091">
        <ele>49.7</ele>
        <time>2020-08-18T10:39:52.000Z</time>
      </trkpt>
      <trkpt lat="49.31754" lon="0.98098">
        <ele>50</ele>
        <time>2020-08-18T10:39:57.000Z</time>
      </trkpt>
      <trkpt lat="49.31746" lon="0.98113">
        <ele>51.2</ele>
        <time>2020-08-18T10:40:02.000Z</time>
      </trkpt>
      <trkpt lat="49.3174" lon="0.98131">
        <ele>52</ele>
        <time>2020-08-18T10:40:07.000Z</time>
      </trkpt>
      <trkpt lat="49.31733" lon="0.98146">
        <ele>52.9</ele>
        <time>2020-08-18T10:40:12.000Z</time>
      </trkpt>
      <trkpt lat="49.31724" lon="0.98161">
        <ele>53.4</ele>
        <time>2020-08-18T10:40:17.000Z</time>
      </trkpt>
      <trkpt lat="49.31713" lon="0.98175">
        <ele>53.7</ele>
        <time>2020-08-18T10:40:22.000Z</time>
      </trkpt>
      <trkpt lat="49.31707" lon="0.98187">
        <ele>54.2</ele>
        <time>2020-08-18T10:40:27.000Z</time>
      </trkpt>
      <trkpt lat="49.31702" lon="0.98203">
        <ele>55.5</ele>
        <time>2020-08-18T10:40:32.000Z</time>
      </trkpt>
      <trkpt lat="49.31696" lon="0.98215">
        <ele>56.3</ele>
        <time>2020-08-18T10:40:37.000Z</time>
      </trkpt>
      <trkpt lat="49.31689" lon="0.98224">
        <ele>55.9</ele>
        <time>2020-08-18T10:40:42.000Z</time>
      </trkpt>
      <trkpt lat="49.31681" lon="0.98233">
        <ele>56.3</ele>
        <time>2020-08-18T10:40:47.000Z</time>
      </trkpt>
      <trkpt lat="49.31678" lon="0.98247">
        <ele>56.3</ele>
        <time>2020-08-18T10:40:52.000Z</time>
      </trkpt>
      <trkpt lat="49.3167" lon="0.98262">
        <ele>56.5</ele>
        <time>2020-08-18T10:40:57.000Z</time>
      </trkpt>
      <trkpt lat="49.31666" lon="0.98275">
        <ele>56.5</ele>
        <time>2020-08-18T10:41:02.000Z</time>
      </trkpt>
      <trkpt lat="49.3166" lon="0.98288">
        <ele>57.8</ele>
        <time>2020-08-18T10:41:07.000Z</time>
      </trkpt>
      <trkpt lat="49.31648" lon="0.983">
        <ele>57.8</ele>
        <time>2020-08-18T10:41:12.000Z</time>
      </trkpt>
      <trkpt lat="49.3164" lon="0.98314">
        <ele>58.2</ele>
        <time>2020-08-18T10:41:17.000Z</time>
      </trkpt>
      <trkpt lat="49.31636" lon="0.98331">
        <ele>60.2</ele>
        <time>2020-08-18T10:41:22.000Z</time>
      </trkpt>
      <trkpt lat="49.31631" lon="0.98347">
        <ele>62.5</ele>
        <time>2020-08-18T10:41:27.000Z</time>
      </trkpt>
      <trkpt lat="49.31628" lon="0.98362">
        <ele>63.5</ele>
        <time>2020-08-18T10:41:32.000Z</time>
      </trkpt>
      <trkpt lat="49.31625" lon="0.9837">
        <ele>63.9</ele>
        <time>2020-08-18T10:41:37.000Z</time>
      </trkpt>
      <trkpt lat="49.31619" lon="0.98373">
        <ele>65.3</ele>
        <time>2020-08-18T10:41:42.000Z</time>
      </trkpt>
      <trkpt lat="49.31613" lon="0.98381">
        <ele>65.5</ele>
        <time>2020-08-18T10:41:47.000Z</time>
      </trkpt>
      <trkpt lat="49.31608" lon="0.98392">
        <ele>63.8</ele>
        <time>2020-08-18T10:41:52.000Z</time>
      </trkpt>
      <trkpt lat="49.31609" lon="0.98403">
        <ele>62.7</ele>
        <time>2020-08-18T10:41:57.000Z</time>
      </trkpt>
      <trkpt lat="49.31617" lon="0.98409">
        <ele>62.5</ele>
        <time>2020-08-18T10:42:02.000Z</time>
      </trkpt>
      <trkpt lat="49.31621" lon="0.98421">
        <ele>62.1</ele>
        <time>2020-08-18T10:42:07.000Z</time>
      </trkpt>
      <trkpt lat="49.31614" lon="0.98423">
        <ele>59.9</ele>
        <time>2020-08-18T10:42:12.000Z</time>
      </trkpt>
      <trkpt lat="49.31607" lon="0.98432">
        <ele>59.3</ele>
        <time>2020-08-18T10:42:17.000Z</time>
      </trkpt>
      <trkpt lat="49.31608" lon="0.98443">
        <ele>57.8</ele>
        <time>2020-08-18T10:42:22.000Z</time>
      </trkpt>
      <trkpt lat="49.31616" lon="0.98452">
        <ele>56.7</ele>
        <time>2020-08-18T10:42:27.000Z</time>
      </trkpt>
      <trkpt lat="49.31621" lon="0.98473">
        <ele>56.1</ele>
        <time>2020-08-18T10:42:32.000Z</time>
      </trkpt>
      <trkpt lat="49.31631" lon="0.98486">
        <ele>56</ele>
        <time>2020-08-18T10:42:37.000Z</time>
      </trkpt>
      <trkpt lat="49.31632" lon="0.98487">
        <ele>55.7</ele>
        <time>2020-08-18T10:42:40.000Z</time>
      </trkpt>
      <trkpt lat="49.31632" lon="0.98489">
        <ele>55.8</ele>
        <time>2020-08-18T10:42:48.000Z</time>
      </trkpt>
      <trkpt lat="49.31625" lon="0.98492">
        <ele>55.4</ele>
        <time>2020-08-18T10:42:53.000Z</time>
      </trkpt>
      <trkpt lat="49.31615" lon="0.98492">
        <ele>55</ele>
        <time>2020-08-18T10:42:58.000Z</time>
      </trkpt>
      <trkpt lat="49.31603" lon="0.98505">
        <ele>54.1</ele>
        <time>2020-08-18T10:43:03.000Z</time>
      </trkpt>
      <trkpt lat="49.31594" lon="0.98499">
        <ele>53.7</ele>
        <time>2020-08-18T10:43:08.000Z</time>
      </trkpt>
      <trkpt lat="49.31589" lon="0.98483">
        <ele>54.3</ele>
        <time>2020-08-18T10:43:13.000Z</time>
      </trkpt>
      <trkpt lat="49.31578" lon="0.98489">
        <ele>53.9</ele>
        <time>2020-08-18T10:43:18.000Z</time>
      </trkpt>
      <trkpt lat="49.31568" lon="0.98497">
        <ele>53.7</ele>
        <time>2020-08-18T10:43:23.000Z</time>
      </trkpt>
      <trkpt lat="49.31555" lon="0.98499">
        <ele>53.5</ele>
        <time>2020-08-18T10:43:28.000Z</time>
      </trkpt>
      <trkpt lat="49.31544" lon="0.98493">
        <ele>53</ele>
        <time>2020-08-18T10:43:33.000Z</time>
      </trkpt>
      <trkpt lat="49.31534" lon="0.98484">
        <ele>53.2</ele>
        <time>2020-08-18T10:43:38.000Z</time>
      </trkpt>
      <trkpt lat="49.31525" lon="0.98485">
        <ele>53.7</ele>
        <time>2020-08-18T10:43:43.000Z</time>
      </trkpt>
      <trkpt lat="49.31517" lon="0.98483">
        <ele>53.5</ele>
        <time>2020-08-18T10:43:48.000Z</time>
      </trkpt>
      <trkpt lat="49.31507" lon="0.98489">
        <ele>54.2</ele>
        <time>2020-08-18T10:43:53.000Z</time>
      </trkpt>
      <trkpt lat="49.31498" lon="0.98498">
        <ele>55</ele>
        <time>2020-08-18T10:43:58.000Z</time>
      </trkpt>
      <trkpt lat="49.31486" lon="0.98508">
        <ele>54.9</ele>
        <time>2020-08-18T10:44:03.000Z</time>
      </trkpt>
      <trkpt lat="49.31481" lon="0.98521">
        <ele>54.8</ele>
        <time>2020-08-18T10:44:08.000Z</time>
      </trkpt>
      <trkpt lat="49.31479" lon="0.98532">
        <ele>54.6</ele>
        <time>2020-08-18T10:44:13.000Z</time>
      </trkpt>
      <trkpt lat="49.31482" lon="0.98532">
        <ele>54.1</ele>
        <time>2020-08-18T10:44:18.000Z</time>
      </trkpt>
      <trkpt lat="49.31497" lon="0.9853">
        <ele>53</ele>
        <time>2020-08-18T10:44:23.000Z</time>
      </trkpt>
      <trkpt lat="49.31519" lon="0.9853">
        <ele>52.4</ele>
        <time>2020-08-18T10:44:28.000Z</time>
      </trkpt>
      <trkpt lat="49.31545" lon="0.98532">
        <ele>52.2</ele>
        <time>2020-08-18T10:44:33.000Z</time>
      </trkpt>
      <trkpt lat="49.3157" lon="0.98537">
        <ele>52</ele>
        <time>2020-08-18T10:44:38.000Z</time>
      </trkpt>
      <trkpt lat="49.31597" lon="0.98544">
        <ele>51.9</ele>
        <time>2020-08-18T10:44:43.000Z</time>
      </trkpt>
      <trkpt lat="49.31626" lon="0.98539">
        <ele>51.1</ele>
        <time>2020-08-18T10:44:48.000Z</time>
      </trkpt>
      <trkpt lat="49.31658" lon="0.98545">
        <ele>50.3</ele>
        <time>2020-08-18T10:44:53.000Z</time>
      </trkpt>
      <trkpt lat="49.31681" lon="0.98568">
        <ele>49.9</ele>
        <time>2020-08-18T10:44:58.000Z</time>
      </trkpt>
      <trkpt lat="49.31695" lon="0.986">
        <ele>49.4</ele>
        <time>2020-08-18T10:45:03.000Z</time>
      </trkpt>
      <trkpt lat="49.3171" lon="0.98636">
        <ele>49.2</ele>
        <time>2020-08-18T10:45:08.000Z</time>
      </trkpt>
      <trkpt lat="49.31721" lon="0.98673">
        <ele>48.5</ele>
        <time>2020-08-18T10:45:13.000Z</time>
      </trkpt>
      <trkpt lat="49.31731" lon="0.98699">
        <ele>47.8</ele>
        <time>2020-08-18T10:45:18.000Z</time>
      </trkpt>
      <trkpt lat="49.31744" lon="0.98712">
        <ele>46</ele>
        <time>2020-08-18T10:45:23.000Z</time>
      </trkpt>
      <trkpt lat="49.31755" lon="0.98721">
        <ele>43.8</ele>
        <time>2020-08-18T10:45:28.000Z</time>
      </trkpt>
      <trkpt lat="49.31765" lon="0.98735">
        <ele>43.6</ele>
        <time>2020-08-18T10:45:33.000Z</time>
      </trkpt>
      <trkpt lat="49.31773" lon="0.98752">
        <ele>43.4</ele>
        <time>2020-08-18T10:45:38.000Z</time>
      </trkpt>
      <trkpt lat="49.31779" lon="0.98772">
        <ele>42.5</ele>
        <time>2020-08-18T10:45:43.000Z</time>
      </trkpt>
      <trkpt lat="49.31784" lon="0.98787">
        <ele>41.6</ele>
        <time>2020-08-18T10:45:48.000Z</time>
      </trkpt>
      <trkpt lat="49.3179" lon="0.98799">
        <ele>40.9</ele>
        <time>2020-08-18T10:45:53.000Z</time>
      </trkpt>
      <trkpt lat="49.31797" lon="0.98816">
        <ele>40.7</ele>
        <time>2020-08-18T10:45:58.000Z</time>
      </trkpt>
      <trkpt lat="49.31803" lon="0.98832">
        <ele>39.7</ele>
        <time>2020-08-18T10:46:03.000Z</time>
      </trkpt>
      <trkpt lat="49.3181" lon="0.98845">
        <ele>38.7</ele>
        <time>2020-08-18T10:46:08.000Z</time>
      </trkpt>
      <trkpt lat="49.31814" lon="0.98855">
        <ele>37.4</ele>
        <time>2020-08-18T10:46:13.000Z</time>
      </trkpt>
      <trkpt lat="49.31821" lon="0.98865">
        <ele>36.8</ele>
        <time>2020-08-18T10:46:18.000Z</time>
      </trkpt>
      <trkpt lat="49.31827" lon="0.98873">
        <ele>35.9</ele>
        <time>2020-08-18T10:46:23.000Z</time>
      </trkpt>
      <trkpt lat="49.31835" lon="0.98878">
        <ele>34.7</ele>
        <time>2020-08-18T10:46:28.000Z</time>
      </trkpt>
      <trkpt lat="49.31843" lon="0.98883">
        <ele>34.4</ele>
        <time>2020-08-18T10:46:33.000Z</time>
      </trkpt>
      <trkpt lat="49.31852" lon="0.98886">
        <ele>34.5</ele>
        <time>2020-08-18T10:46:38.000Z</time>
      </trkpt>
      <trkpt lat="49.31862" lon="0.98887">
        <ele>34.7</ele>
        <time>2020-08-18T10:46:43.000Z</time>
      </trkpt>
      <trkpt lat="49.31872" lon="0.98888">
        <ele>34.6</ele>
        <time>2020-08-18T10:46:48.000Z</time>
      </trkpt>
      <trkpt lat="49.31879" lon="0.9889">
        <ele>34.5</ele>
        <time>2020-08-18T10:46:53.000Z</time>
      </trkpt>
      <trkpt lat="49.31885" lon="0.98896">
        <ele>35</ele>
        <time>2020-08-18T10:46:58.000Z</time>
      </trkpt>
      <trkpt lat="49.31893" lon="0.98902">
        <ele>35.5</ele>
        <time>2020-08-18T10:47:03.000Z</time>
      </trkpt>
      <trkpt lat="49.31904" lon="0.98914">
        <ele>37.2</ele>
        <time>2020-08-18T10:47:08.000Z</time>
      </trkpt>
      <trkpt lat="49.3191" lon="0.98929">
        <ele>37.8</ele>
        <time>2020-08-18T10:47:13.000Z</time>
      </trkpt>
      <trkpt lat="49.31908" lon="0.98949">
        <ele>38.4</ele>
        <time>2020-08-18T10:47:18.000Z</time>
      </trkpt>
      <trkpt lat="49.31909" lon="0.98966">
        <ele>38.6</ele>
        <time>2020-08-18T10:47:23.000Z</time>
      </trkpt>
      <trkpt lat="49.3191" lon="0.98986">
        <ele>38.6</ele>
        <time>2020-08-18T10:47:28.000Z</time>
      </trkpt>
      <trkpt lat="49.31909" lon="0.99008">
        <ele>38.7</ele>
        <time>2020-08-18T10:47:33.000Z</time>
      </trkpt>
      <trkpt lat="49.31904" lon="0.99033">
        <ele>37.8</ele>
        <time>2020-08-18T10:47:38.000Z</time>
      </trkpt>
      <trkpt lat="49.31896" lon="0.99067">
        <ele>36.9</ele>
        <time>2020-08-18T10:47:43.000Z</time>
      </trkpt>
      <trkpt lat="49.31886" lon="0.99107">
        <ele>35.6</ele>
        <time>2020-08-18T10:47:48.000Z</time>
      </trkpt>
      <trkpt lat="49.3186" lon="0.99166">
        <ele>28.6</ele>
        <time>2020-08-18T10:47:53.000Z</time>
      </trkpt>
      <trkpt lat="49.31846" lon="0.99217">
        <ele>24.8</ele>
        <time>2020-08-18T10:47:58.000Z</time>
      </trkpt>
      <trkpt lat="49.31838" lon="0.99264">
        <ele>20.7</ele>
        <time>2020-08-18T10:48:03.000Z</time>
      </trkpt>
      <trkpt lat="49.31831" lon="0.99309">
        <ele>19</ele>
        <time>2020-08-18T10:48:08.000Z</time>
      </trkpt>
      <trkpt lat="49.31831" lon="0.99352">
        <ele>17.5</ele>
        <time>2020-08-18T10:48:13.000Z</time>
      </trkpt>
      <trkpt lat="49.31827" lon="0.99378">
        <ele>15.9</ele>
        <time>2020-08-18T10:48:18.000Z</time>
      </trkpt>
      <trkpt lat="49.31828" lon="0.99387">
        <ele>15.1</ele>
        <time>2020-08-18T10:48:23.000Z</time>
      </trkpt>
      <trkpt lat="49.31832" lon="0.994">
        <ele>14.6</ele>
        <time>2020-08-18T10:48:30.000Z</time>
      </trkpt>
      <trkpt lat="49.3184" lon="0.99406">
        <ele>13.8</ele>
        <time>2020-08-18T10:48:35.000Z</time>
      </trkpt>
      <trkpt lat="49.31846" lon="0.99409">
        <ele>11.9</ele>
        <time>2020-08-18T10:48:40.000Z</time>
      </trkpt>
      <trkpt lat="49.31846" lon="0.99408">
        <ele>11.5</ele>
        <time>2020-08-18T10:48:43.000Z</time>
      </trkpt>
      <trkpt lat="49.31845" lon="0.9941">
        <ele>11.7</ele>
        <time>2020-08-18T10:48:49.000Z</time>
      </trkpt>
      <trkpt lat="49.31845" lon="0.99413">
        <ele>12</ele>
        <time>2020-08-18T10:48:54.000Z</time>
      </trkpt>
      <trkpt lat="49.31845" lon="0.99412">
        <ele>12.1</ele>
        <time>2020-08-18T10:49:00.000Z</time>
      </trkpt>
      <trkpt lat="49.31845" lon="0.99411">
        <ele>11.7</ele>
        <time>2020-08-18T10:49:11.000Z</time>
      </trkpt>
    </trkseg>
  </trk>
</gpx>